<?xml version="1.0" encoding="UTF-8" standalone="no" ?>
<gpx xmlns="http://www.topografix.com/GPX/1/1" xmlns:xsi="http://www.w3.org/2001/XMLSchema-instance" xsi:schemaLocation="http://www.topografix.com/GPX/1/1 http://www.topografix.com/GPX/1/1/gpx.xsd" version="1.1" creator="VisuGPX - https://www.visugpx.com">
  <metadata>
    <name>Le Reveston - Utelle - Col d'Ambellarte</name>
    <desc><![CDATA[20km, 1200m D ]]></desc>
  </metadata>
  <trk>
    <name><![CDATA[Le Reveston - Utelle - Col d'Ambellarte_1]]></name>
    <trkseg>
      <trkpt lat="43.90493" lon="7.1963">
        <ele>188.08000183106</ele>
        <time>2011-06-18T05:14:55Z</time>
      </trkpt>
      <trkpt lat="43.90516" lon="7.19637">
        <ele>190</ele>
        <time>2011-06-18T05:15:17Z</time>
      </trkpt>
      <trkpt lat="43.90521" lon="7.19635">
        <ele>190.96000671387</ele>
        <time>2011-06-18T05:15:21Z</time>
      </trkpt>
      <trkpt lat="43.90531" lon="7.19622">
        <ele>193.36000061035</ele>
        <time>2011-06-18T05:15:34Z</time>
      </trkpt>
      <trkpt lat="43.90533" lon="7.19619">
        <ele>194.32000732422</ele>
        <time>2011-06-18T05:15:37Z</time>
      </trkpt>
      <trkpt lat="43.90537" lon="7.19621">
        <ele>195.77000427246</ele>
        <time>2011-06-18T05:15:41Z</time>
      </trkpt>
      <trkpt lat="43.90535" lon="7.19636">
        <ele>198.64999389648</ele>
        <time>2011-06-18T05:15:54Z</time>
      </trkpt>
      <trkpt lat="43.90537" lon="7.1964">
        <ele>200.08999633789</ele>
        <time>2011-06-18T05:16:00Z</time>
      </trkpt>
      <trkpt lat="43.9054" lon="7.19636">
        <ele>200.57000732422</ele>
        <time>2011-06-18T05:16:04Z</time>
      </trkpt>
      <trkpt lat="43.9054" lon="7.19628">
        <ele>201.5299987793</ele>
        <time>2011-06-18T05:16:09Z</time>
      </trkpt>
      <trkpt lat="43.90542" lon="7.19624">
        <ele>202.00999450684</ele>
        <time>2011-06-18T05:16:12Z</time>
      </trkpt>
      <trkpt lat="43.90546" lon="7.19624">
        <ele>202.97999572754</ele>
        <time>2011-06-18T05:16:16Z</time>
      </trkpt>
      <trkpt lat="43.90547" lon="7.1963">
        <ele>204.89999389648</ele>
        <time>2011-06-18T05:16:28Z</time>
      </trkpt>
      <trkpt lat="43.9055" lon="7.19623">
        <ele>206.33999633789</ele>
        <time>2011-06-18T05:16:34Z</time>
      </trkpt>
      <trkpt lat="43.90554" lon="7.19607">
        <ele>209.2200012207</ele>
        <time>2011-06-18T05:16:46Z</time>
      </trkpt>
      <trkpt lat="43.90553" lon="7.19606">
        <ele>209.69999694824</ele>
        <time>2011-06-18T05:16:48Z</time>
      </trkpt>
      <trkpt lat="43.90554" lon="7.19618">
        <ele>213.07000732422</ele>
        <time>2011-06-18T05:17:02Z</time>
      </trkpt>
      <trkpt lat="43.90557" lon="7.19616">
        <ele>213.07000732422</ele>
        <time>2011-06-18T05:17:05Z</time>
      </trkpt>
      <trkpt lat="43.9057" lon="7.19614">
        <ele>215.4700012207</ele>
        <time>2011-06-18T05:17:16Z</time>
      </trkpt>
      <trkpt lat="43.90588" lon="7.19608">
        <ele>219.32000732422</ele>
        <time>2011-06-18T05:17:32Z</time>
      </trkpt>
      <trkpt lat="43.90589" lon="7.19608">
        <ele>219.32000732422</ele>
        <time>2011-06-18T05:17:33Z</time>
      </trkpt>
      <trkpt lat="43.90593" lon="7.19605">
        <ele>219.32000732422</ele>
        <time>2011-06-18T05:17:37Z</time>
      </trkpt>
      <trkpt lat="43.90592" lon="7.1961">
        <ele>222.19999694824</ele>
        <time>2011-06-18T05:17:48Z</time>
      </trkpt>
      <trkpt lat="43.9059" lon="7.19612">
        <ele>222.19999694824</ele>
        <time>2011-06-18T05:17:50Z</time>
      </trkpt>
      <trkpt lat="43.90575" lon="7.1962">
        <ele>225.08999633789</ele>
        <time>2011-06-18T05:18:05Z</time>
      </trkpt>
      <trkpt lat="43.90564" lon="7.19632">
        <ele>228.44999694824</ele>
        <time>2011-06-18T05:18:20Z</time>
      </trkpt>
      <trkpt lat="43.90557" lon="7.19644">
        <ele>231.33000183106</ele>
        <time>2011-06-18T05:18:35Z</time>
      </trkpt>
      <trkpt lat="43.90567" lon="7.19638">
        <ele>233.25999450684</ele>
        <time>2011-06-18T05:18:47Z</time>
      </trkpt>
      <trkpt lat="43.9057" lon="7.19636">
        <ele>233.25999450684</ele>
        <time>2011-06-18T05:18:51Z</time>
      </trkpt>
      <trkpt lat="43.90574" lon="7.19635">
        <ele>234.69999694824</ele>
        <time>2011-06-18T05:18:55Z</time>
      </trkpt>
      <trkpt lat="43.9057" lon="7.19648">
        <ele>237.58000183106</ele>
        <time>2011-06-18T05:19:08Z</time>
      </trkpt>
      <trkpt lat="43.90565" lon="7.19651">
        <ele>238.05999755859</ele>
        <time>2011-06-18T05:19:13Z</time>
      </trkpt>
      <trkpt lat="43.90556" lon="7.19661">
        <ele>241.91000366211</ele>
        <time>2011-06-18T05:19:25Z</time>
      </trkpt>
      <trkpt lat="43.90554" lon="7.19668">
        <ele>242.38999938965</ele>
        <time>2011-06-18T05:19:30Z</time>
      </trkpt>
      <trkpt lat="43.90556" lon="7.19682">
        <ele>245.27000427246</ele>
        <time>2011-06-18T05:19:42Z</time>
      </trkpt>
      <trkpt lat="43.90559" lon="7.19688">
        <ele>246.22999572754</ele>
        <time>2011-06-18T05:19:47Z</time>
      </trkpt>
      <trkpt lat="43.90563" lon="7.19693">
        <ele>246.7200012207</ele>
        <time>2011-06-18T05:19:51Z</time>
      </trkpt>
      <trkpt lat="43.90568" lon="7.19684">
        <ele>249.11999511719</ele>
        <time>2011-06-18T05:20:01Z</time>
      </trkpt>
      <trkpt lat="43.90572" lon="7.19673">
        <ele>250.08000183106</ele>
        <time>2011-06-18T05:20:10Z</time>
      </trkpt>
      <trkpt lat="43.90577" lon="7.19667">
        <ele>252</ele>
        <time>2011-06-18T05:20:18Z</time>
      </trkpt>
      <trkpt lat="43.90577" lon="7.19669">
        <ele>252.96000671387</ele>
        <time>2011-06-18T05:20:21Z</time>
      </trkpt>
      <trkpt lat="43.90574" lon="7.19675">
        <ele>254.88999938965</ele>
        <time>2011-06-18T05:20:26Z</time>
      </trkpt>
      <trkpt lat="43.90573" lon="7.19682">
        <ele>255.36999511719</ele>
        <time>2011-06-18T05:20:31Z</time>
      </trkpt>
      <trkpt lat="43.90575" lon="7.1969">
        <ele>256.80999755859</ele>
        <time>2011-06-18T05:20:38Z</time>
      </trkpt>
      <trkpt lat="43.90576" lon="7.19691">
        <ele>257.76998901367</ele>
        <time>2011-06-18T05:20:41Z</time>
      </trkpt>
      <trkpt lat="43.90577" lon="7.19689">
        <ele>257.76998901367</ele>
        <time>2011-06-18T05:20:43Z</time>
      </trkpt>
      <trkpt lat="43.90578" lon="7.19685">
        <ele>258.25</ele>
        <time>2011-06-18T05:20:46Z</time>
      </trkpt>
      <trkpt lat="43.90578" lon="7.19681">
        <ele>259.69000244141</ele>
        <time>2011-06-18T05:20:48Z</time>
      </trkpt>
      <trkpt lat="43.90578" lon="7.19678">
        <ele>258.73001098633</ele>
        <time>2011-06-18T05:20:50Z</time>
      </trkpt>
      <trkpt lat="43.90583" lon="7.1967">
        <ele>260.64999389648</ele>
        <time>2011-06-18T05:20:57Z</time>
      </trkpt>
      <trkpt lat="43.90593" lon="7.19669">
        <ele>263.05999755859</ele>
        <time>2011-06-18T05:21:08Z</time>
      </trkpt>
      <trkpt lat="43.90588" lon="7.19679">
        <ele>265.94000244141</ele>
        <time>2011-06-18T05:21:19Z</time>
      </trkpt>
      <trkpt lat="43.9059" lon="7.19683">
        <ele>266.42001342773</ele>
        <time>2011-06-18T05:21:23Z</time>
      </trkpt>
      <trkpt lat="43.90592" lon="7.19691">
        <ele>268.35000610352</ele>
        <time>2011-06-18T05:21:30Z</time>
      </trkpt>
      <trkpt lat="43.90586" lon="7.19706">
        <ele>272.19000244141</ele>
        <time>2011-06-18T05:21:44Z</time>
      </trkpt>
      <trkpt lat="43.90577" lon="7.19723">
        <ele>274.58999633789</ele>
        <time>2011-06-18T05:21:58Z</time>
      </trkpt>
      <trkpt lat="43.90577" lon="7.19724">
        <ele>275.55999755859</ele>
        <time>2011-06-18T05:21:59Z</time>
      </trkpt>
      <trkpt lat="43.90583" lon="7.19745">
        <ele>277.95999145508</ele>
        <time>2011-06-18T05:22:10Z</time>
      </trkpt>
      <trkpt lat="43.90583" lon="7.1975">
        <ele>278.44000244141</ele>
        <time>2011-06-18T05:22:14Z</time>
      </trkpt>
      <trkpt lat="43.9059" lon="7.19735">
        <ele>281.79998779297</ele>
        <time>2011-06-18T05:22:27Z</time>
      </trkpt>
      <trkpt lat="43.90595" lon="7.1972">
        <ele>283.73001098633</ele>
        <time>2011-06-18T05:22:40Z</time>
      </trkpt>
      <trkpt lat="43.906" lon="7.19726">
        <ele>285.17001342773</ele>
        <time>2011-06-18T05:22:48Z</time>
      </trkpt>
      <trkpt lat="43.90599" lon="7.19741">
        <ele>289.48999023438</ele>
        <time>2011-06-18T05:23:00Z</time>
      </trkpt>
      <trkpt lat="43.90598" lon="7.19748">
        <ele>290.45999145508</ele>
        <time>2011-06-18T05:23:05Z</time>
      </trkpt>
      <trkpt lat="43.90597" lon="7.19757">
        <ele>291.42001342773</ele>
        <time>2011-06-18T05:23:11Z</time>
      </trkpt>
      <trkpt lat="43.90594" lon="7.19767">
        <ele>291.89999389648</ele>
        <time>2011-06-18T05:23:17Z</time>
      </trkpt>
      <trkpt lat="43.90592" lon="7.19791">
        <ele>295.73999023438</ele>
        <time>2011-06-18T05:23:33Z</time>
      </trkpt>
      <trkpt lat="43.90593" lon="7.19793">
        <ele>295.73999023438</ele>
        <time>2011-06-18T05:23:35Z</time>
      </trkpt>
      <trkpt lat="43.90593" lon="7.1979">
        <ele>295.73999023438</ele>
        <time>2011-06-18T05:23:39Z</time>
      </trkpt>
      <trkpt lat="43.90596" lon="7.19788">
        <ele>299.10998535156</ele>
        <time>2011-06-18T05:23:49Z</time>
      </trkpt>
      <trkpt lat="43.90592" lon="7.19803">
        <ele>302.4700012207</ele>
        <time>2011-06-18T05:24:02Z</time>
      </trkpt>
      <trkpt lat="43.90591" lon="7.19804">
        <ele>301.98999023438</ele>
        <time>2011-06-18T05:24:03Z</time>
      </trkpt>
      <trkpt lat="43.90581" lon="7.19813">
        <ele>305.35998535156</ele>
        <time>2011-06-18T05:24:16Z</time>
      </trkpt>
      <trkpt lat="43.90572" lon="7.19815">
        <ele>307.2799987793</ele>
        <time>2011-06-18T05:24:26Z</time>
      </trkpt>
      <trkpt lat="43.90559" lon="7.19808">
        <ele>311.11999511719</ele>
        <time>2011-06-18T05:24:39Z</time>
      </trkpt>
      <trkpt lat="43.90554" lon="7.19806">
        <ele>312.08999633789</ele>
        <time>2011-06-18T05:24:46Z</time>
      </trkpt>
      <trkpt lat="43.90545" lon="7.19824">
        <ele>315.92999267578</ele>
        <time>2011-06-18T05:25:01Z</time>
      </trkpt>
      <trkpt lat="43.90543" lon="7.1983">
        <ele>317.85000610352</ele>
        <time>2011-06-18T05:25:09Z</time>
      </trkpt>
      <trkpt lat="43.90545" lon="7.19828">
        <ele>318.80999755859</ele>
        <time>2011-06-18T05:25:13Z</time>
      </trkpt>
      <trkpt lat="43.90554" lon="7.19822">
        <ele>320.26000976562</ele>
        <time>2011-06-18T05:25:23Z</time>
      </trkpt>
      <trkpt lat="43.90567" lon="7.19836">
        <ele>325.05999755859</ele>
        <time>2011-06-18T05:25:37Z</time>
      </trkpt>
      <trkpt lat="43.9058" lon="7.19847">
        <ele>327.95001220703</ele>
        <time>2011-06-18T05:25:49Z</time>
      </trkpt>
      <trkpt lat="43.90583" lon="7.1985">
        <ele>329.39001464844</ele>
        <time>2011-06-18T05:25:53Z</time>
      </trkpt>
      <trkpt lat="43.90588" lon="7.19856">
        <ele>331.79000854492</ele>
        <time>2011-06-18T05:26:02Z</time>
      </trkpt>
      <trkpt lat="43.90588" lon="7.19859">
        <ele>333.23001098633</ele>
        <time>2011-06-18T05:26:07Z</time>
      </trkpt>
      <trkpt lat="43.90579" lon="7.19853">
        <ele>336.11999511719</ele>
        <time>2011-06-18T05:26:21Z</time>
      </trkpt>
      <trkpt lat="43.90568" lon="7.19855">
        <ele>339.48001098633</ele>
        <time>2011-06-18T05:26:41Z</time>
      </trkpt>
      <trkpt lat="43.90568" lon="7.19856">
        <ele>339</ele>
        <time>2011-06-18T05:26:42Z</time>
      </trkpt>
      <trkpt lat="43.90585" lon="7.1987">
        <ele>342.85000610352</ele>
        <time>2011-06-18T05:27:02Z</time>
      </trkpt>
      <trkpt lat="43.90588" lon="7.19874">
        <ele>343.80999755859</ele>
        <time>2011-06-18T05:27:06Z</time>
      </trkpt>
      <trkpt lat="43.90596" lon="7.19882">
        <ele>344.76998901367</ele>
        <time>2011-06-18T05:27:17Z</time>
      </trkpt>
      <trkpt lat="43.90601" lon="7.19886">
        <ele>347.64999389648</ele>
        <time>2011-06-18T05:27:24Z</time>
      </trkpt>
      <trkpt lat="43.90607" lon="7.19865">
        <ele>350.54000854492</ele>
        <time>2011-06-18T05:27:38Z</time>
      </trkpt>
      <trkpt lat="43.90612" lon="7.19857">
        <ele>352.45999145508</ele>
        <time>2011-06-18T05:27:48Z</time>
      </trkpt>
      <trkpt lat="43.90611" lon="7.19871">
        <ele>354.85998535156</ele>
        <time>2011-06-18T05:27:59Z</time>
      </trkpt>
      <trkpt lat="43.90611" lon="7.19875">
        <ele>356.30999755859</ele>
        <time>2011-06-18T05:28:02Z</time>
      </trkpt>
      <trkpt lat="43.90617" lon="7.19862">
        <ele>358.23001098633</ele>
        <time>2011-06-18T05:28:15Z</time>
      </trkpt>
      <trkpt lat="43.90628" lon="7.19851">
        <ele>361.58999633789</ele>
        <time>2011-06-18T05:28:28Z</time>
      </trkpt>
      <trkpt lat="43.9063" lon="7.1985">
        <ele>361.58999633789</ele>
        <time>2011-06-18T05:28:30Z</time>
      </trkpt>
      <trkpt lat="43.90644" lon="7.19841">
        <ele>366.39999389648</ele>
        <time>2011-06-18T05:28:46Z</time>
      </trkpt>
      <trkpt lat="43.90652" lon="7.19831">
        <ele>369.2799987793</ele>
        <time>2011-06-18T05:28:59Z</time>
      </trkpt>
      <trkpt lat="43.90655" lon="7.1983">
        <ele>370.23999023438</ele>
        <time>2011-06-18T05:29:01Z</time>
      </trkpt>
      <trkpt lat="43.90656" lon="7.19832">
        <ele>371.20999145508</ele>
        <time>2011-06-18T05:29:05Z</time>
      </trkpt>
      <trkpt lat="43.90653" lon="7.19841">
        <ele>372.17001342773</ele>
        <time>2011-06-18T05:29:12Z</time>
      </trkpt>
      <trkpt lat="43.90652" lon="7.19845">
        <ele>373.60998535156</ele>
        <time>2011-06-18T05:29:15Z</time>
      </trkpt>
      <trkpt lat="43.9065" lon="7.19854">
        <ele>375.04998779297</ele>
        <time>2011-06-18T05:29:26Z</time>
      </trkpt>
      <trkpt lat="43.9066" lon="7.19844">
        <ele>378.42001342773</ele>
        <time>2011-06-18T05:29:37Z</time>
      </trkpt>
      <trkpt lat="43.90666" lon="7.19838">
        <ele>379.85998535156</ele>
        <time>2011-06-18T05:29:44Z</time>
      </trkpt>
      <trkpt lat="43.90677" lon="7.19836">
        <ele>383.2200012207</ele>
        <time>2011-06-18T05:29:56Z</time>
      </trkpt>
      <trkpt lat="43.90683" lon="7.19835">
        <ele>384.17999267578</ele>
        <time>2011-06-18T05:30:02Z</time>
      </trkpt>
      <trkpt lat="43.90691" lon="7.1983">
        <ele>386.58999633789</ele>
        <time>2011-06-18T05:30:11Z</time>
      </trkpt>
      <trkpt lat="43.90702" lon="7.19824">
        <ele>390.42999267578</ele>
        <time>2011-06-18T05:30:25Z</time>
      </trkpt>
      <trkpt lat="43.90702" lon="7.19823">
        <ele>390.42999267578</ele>
        <time>2011-06-18T05:30:26Z</time>
      </trkpt>
      <trkpt lat="43.90712" lon="7.19818">
        <ele>392.83999633789</ele>
        <time>2011-06-18T05:30:38Z</time>
      </trkpt>
      <trkpt lat="43.90723" lon="7.19814">
        <ele>396.20001220703</ele>
        <time>2011-06-18T05:30:50Z</time>
      </trkpt>
      <trkpt lat="43.90729" lon="7.19812">
        <ele>397.16000366211</ele>
        <time>2011-06-18T05:30:56Z</time>
      </trkpt>
      <trkpt lat="43.90733" lon="7.19815">
        <ele>398.11999511719</ele>
        <time>2011-06-18T05:31:01Z</time>
      </trkpt>
      <trkpt lat="43.90734" lon="7.19817">
        <ele>399.07998657227</ele>
        <time>2011-06-18T05:31:03Z</time>
      </trkpt>
      <trkpt lat="43.90733" lon="7.19821">
        <ele>400.04998779297</ele>
        <time>2011-06-18T05:31:07Z</time>
      </trkpt>
      <trkpt lat="43.90732" lon="7.19822">
        <ele>400.04998779297</ele>
        <time>2011-06-18T05:31:08Z</time>
      </trkpt>
      <trkpt lat="43.9072" lon="7.19838">
        <ele>403.41000366211</ele>
        <time>2011-06-18T05:31:24Z</time>
      </trkpt>
      <trkpt lat="43.9071" lon="7.19855">
        <ele>406.76998901367</ele>
        <time>2011-06-18T05:31:40Z</time>
      </trkpt>
      <trkpt lat="43.90701" lon="7.19868">
        <ele>409.66000366211</ele>
        <time>2011-06-18T05:31:53Z</time>
      </trkpt>
      <trkpt lat="43.90692" lon="7.1988">
        <ele>412.54000854492</ele>
        <time>2011-06-18T05:32:07Z</time>
      </trkpt>
      <trkpt lat="43.90684" lon="7.19897">
        <ele>415.91000366211</ele>
        <time>2011-06-18T05:32:19Z</time>
      </trkpt>
      <trkpt lat="43.90681" lon="7.19902">
        <ele>416.39001464844</ele>
        <time>2011-06-18T05:32:23Z</time>
      </trkpt>
      <trkpt lat="43.90685" lon="7.19905">
        <ele>417.35000610352</ele>
        <time>2011-06-18T05:32:28Z</time>
      </trkpt>
      <trkpt lat="43.90702" lon="7.19895">
        <ele>421.19000244141</ele>
        <time>2011-06-18T05:32:45Z</time>
      </trkpt>
      <trkpt lat="43.90718" lon="7.19894">
        <ele>424.07998657227</ele>
        <time>2011-06-18T05:32:59Z</time>
      </trkpt>
      <trkpt lat="43.90725" lon="7.19893">
        <ele>424.55999755859</ele>
        <time>2011-06-18T05:33:06Z</time>
      </trkpt>
      <trkpt lat="43.90727" lon="7.19894">
        <ele>426</ele>
        <time>2011-06-18T05:33:08Z</time>
      </trkpt>
      <trkpt lat="43.90729" lon="7.19897">
        <ele>426</ele>
        <time>2011-06-18T05:33:11Z</time>
      </trkpt>
      <trkpt lat="43.90726" lon="7.199">
        <ele>427.92001342773</ele>
        <time>2011-06-18T05:33:15Z</time>
      </trkpt>
      <trkpt lat="43.90721" lon="7.19898">
        <ele>428.89001464844</ele>
        <time>2011-06-18T05:33:20Z</time>
      </trkpt>
      <trkpt lat="43.9071" lon="7.19907">
        <ele>430.32998657227</ele>
        <time>2011-06-18T05:33:31Z</time>
      </trkpt>
      <trkpt lat="43.90709" lon="7.19909">
        <ele>430.80999755859</ele>
        <time>2011-06-18T05:33:33Z</time>
      </trkpt>
      <trkpt lat="43.90704" lon="7.19918">
        <ele>432.25</ele>
        <time>2011-06-18T05:33:40Z</time>
      </trkpt>
      <trkpt lat="43.90702" lon="7.19923">
        <ele>433.20999145508</ele>
        <time>2011-06-18T05:33:44Z</time>
      </trkpt>
      <trkpt lat="43.90701" lon="7.1994">
        <ele>436.10000610352</ele>
        <time>2011-06-18T05:33:57Z</time>
      </trkpt>
      <trkpt lat="43.907" lon="7.19947">
        <ele>436.10000610352</ele>
        <time>2011-06-18T05:34:02Z</time>
      </trkpt>
      <trkpt lat="43.907" lon="7.1995">
        <ele>437.54000854492</ele>
        <time>2011-06-18T05:34:05Z</time>
      </trkpt>
      <trkpt lat="43.90702" lon="7.19957">
        <ele>438.5</ele>
        <time>2011-06-18T05:34:10Z</time>
      </trkpt>
      <trkpt lat="43.90705" lon="7.19963">
        <ele>438.98001098633</ele>
        <time>2011-06-18T05:34:15Z</time>
      </trkpt>
      <trkpt lat="43.90719" lon="7.19977">
        <ele>442.33999633789</ele>
        <time>2011-06-18T05:34:30Z</time>
      </trkpt>
      <trkpt lat="43.90729" lon="7.19996">
        <ele>444.26998901367</ele>
        <time>2011-06-18T05:34:42Z</time>
      </trkpt>
      <trkpt lat="43.90731" lon="7.20003">
        <ele>445.23001098633</ele>
        <time>2011-06-18T05:34:46Z</time>
      </trkpt>
      <trkpt lat="43.90731" lon="7.20026">
        <ele>448.10998535156</ele>
        <time>2011-06-18T05:35:01Z</time>
      </trkpt>
      <trkpt lat="43.90736" lon="7.20035">
        <ele>448.58999633789</ele>
        <time>2011-06-18T05:35:14Z</time>
      </trkpt>
      <trkpt lat="43.90743" lon="7.20053">
        <ele>452.92001342773</ele>
        <time>2011-06-18T05:35:26Z</time>
      </trkpt>
      <trkpt lat="43.90744" lon="7.20054">
        <ele>451</ele>
        <time>2011-06-18T05:35:27Z</time>
      </trkpt>
      <trkpt lat="43.90749" lon="7.20064">
        <ele>451</ele>
        <time>2011-06-18T05:35:34Z</time>
      </trkpt>
      <trkpt lat="43.90752" lon="7.20073">
        <ele>451</ele>
        <time>2011-06-18T05:35:39Z</time>
      </trkpt>
      <trkpt lat="43.90756" lon="7.20092">
        <ele>454.35998535156</ele>
        <time>2011-06-18T05:35:53Z</time>
      </trkpt>
      <trkpt lat="43.90764" lon="7.20111">
        <ele>455.79998779297</ele>
        <time>2011-06-18T05:36:04Z</time>
      </trkpt>
      <trkpt lat="43.90771" lon="7.20128">
        <ele>457.23999023438</ele>
        <time>2011-06-18T05:36:14Z</time>
      </trkpt>
      <trkpt lat="43.90772" lon="7.20134">
        <ele>459.17001342773</ele>
        <time>2011-06-18T05:36:17Z</time>
      </trkpt>
      <trkpt lat="43.90772" lon="7.20138">
        <ele>458.69000244141</ele>
        <time>2011-06-18T05:36:19Z</time>
      </trkpt>
      <trkpt lat="43.90778" lon="7.20155">
        <ele>461.08999633789</ele>
        <time>2011-06-18T05:36:26Z</time>
      </trkpt>
      <trkpt lat="43.90786" lon="7.2017">
        <ele>463.9700012207</ele>
        <time>2011-06-18T05:36:34Z</time>
      </trkpt>
      <trkpt lat="43.90796" lon="7.2019">
        <ele>467.82000732422</ele>
        <time>2011-06-18T05:36:45Z</time>
      </trkpt>
      <trkpt lat="43.90796" lon="7.20192">
        <ele>467.82000732422</ele>
        <time>2011-06-18T05:36:46Z</time>
      </trkpt>
      <trkpt lat="43.90799" lon="7.20201">
        <ele>469.73999023438</ele>
        <time>2011-06-18T05:36:51Z</time>
      </trkpt>
      <trkpt lat="43.90802" lon="7.20217">
        <ele>473.10998535156</ele>
        <time>2011-06-18T05:37:01Z</time>
      </trkpt>
      <trkpt lat="43.90801" lon="7.20219">
        <ele>473.10998535156</ele>
        <time>2011-06-18T05:37:02Z</time>
      </trkpt>
      <trkpt lat="43.90803" lon="7.20226">
        <ele>474.54998779297</ele>
        <time>2011-06-18T05:37:06Z</time>
      </trkpt>
      <trkpt lat="43.90805" lon="7.20229">
        <ele>475.0299987793</ele>
        <time>2011-06-18T05:37:08Z</time>
      </trkpt>
      <trkpt lat="43.90813" lon="7.2024">
        <ele>478.39001464844</ele>
        <time>2011-06-18T05:37:16Z</time>
      </trkpt>
      <trkpt lat="43.90819" lon="7.20248">
        <ele>479.83999633789</ele>
        <time>2011-06-18T05:37:22Z</time>
      </trkpt>
      <trkpt lat="43.90825" lon="7.20265">
        <ele>483.20001220703</ele>
        <time>2011-06-18T05:37:32Z</time>
      </trkpt>
      <trkpt lat="43.90829" lon="7.2028">
        <ele>486.07998657227</ele>
        <time>2011-06-18T05:37:40Z</time>
      </trkpt>
      <trkpt lat="43.90831" lon="7.20284">
        <ele>487.04998779297</ele>
        <time>2011-06-18T05:37:42Z</time>
      </trkpt>
      <trkpt lat="43.90833" lon="7.20289">
        <ele>488.48999023438</ele>
        <time>2011-06-18T05:37:45Z</time>
      </trkpt>
      <trkpt lat="43.90836" lon="7.20311">
        <ele>491.36999511719</ele>
        <time>2011-06-18T05:37:56Z</time>
      </trkpt>
      <trkpt lat="43.90836" lon="7.20319">
        <ele>492.32998657227</ele>
        <time>2011-06-18T05:38:00Z</time>
      </trkpt>
      <trkpt lat="43.90839" lon="7.20329">
        <ele>492.32998657227</ele>
        <time>2011-06-18T05:38:05Z</time>
      </trkpt>
      <trkpt lat="43.90855" lon="7.20321">
        <ele>494.73999023438</ele>
        <time>2011-06-18T05:38:16Z</time>
      </trkpt>
      <trkpt lat="43.90856" lon="7.2032">
        <ele>494.73999023438</ele>
        <time>2011-06-18T05:38:17Z</time>
      </trkpt>
      <trkpt lat="43.90861" lon="7.20318">
        <ele>495.70001220703</ele>
        <time>2011-06-18T05:38:21Z</time>
      </trkpt>
      <trkpt lat="43.90868" lon="7.20313">
        <ele>496.17999267578</ele>
        <time>2011-06-18T05:38:26Z</time>
      </trkpt>
      <trkpt lat="43.90878" lon="7.20319">
        <ele>498.10000610352</ele>
        <time>2011-06-18T05:38:33Z</time>
      </trkpt>
      <trkpt lat="43.90878" lon="7.20327">
        <ele>500.5</ele>
        <time>2011-06-18T05:38:39Z</time>
      </trkpt>
      <trkpt lat="43.90874" lon="7.20328">
        <ele>500.98001098633</ele>
        <time>2011-06-18T05:38:43Z</time>
      </trkpt>
      <trkpt lat="43.90871" lon="7.20328">
        <ele>501.95001220703</ele>
        <time>2011-06-18T05:38:46Z</time>
      </trkpt>
      <trkpt lat="43.90871" lon="7.20336">
        <ele>503.39001464844</ele>
        <time>2011-06-18T05:38:51Z</time>
      </trkpt>
      <trkpt lat="43.90886" lon="7.20351">
        <ele>505.79000854492</ele>
        <time>2011-06-18T05:39:06Z</time>
      </trkpt>
      <trkpt lat="43.90889" lon="7.20357">
        <ele>507.23001098633</ele>
        <time>2011-06-18T05:39:12Z</time>
      </trkpt>
      <trkpt lat="43.90879" lon="7.20359">
        <ele>509.16000366211</ele>
        <time>2011-06-18T05:39:24Z</time>
      </trkpt>
      <trkpt lat="43.90874" lon="7.20361">
        <ele>510.60000610352</ele>
        <time>2011-06-18T05:39:28Z</time>
      </trkpt>
      <trkpt lat="43.90871" lon="7.20364">
        <ele>512.03997802734</ele>
        <time>2011-06-18T05:39:32Z</time>
      </trkpt>
      <trkpt lat="43.90871" lon="7.20367">
        <ele>512.03997802734</ele>
        <time>2011-06-18T05:39:35Z</time>
      </trkpt>
      <trkpt lat="43.90882" lon="7.20377">
        <ele>515.40002441406</ele>
        <time>2011-06-18T05:39:48Z</time>
      </trkpt>
      <trkpt lat="43.90881" lon="7.20381">
        <ele>516.36999511719</ele>
        <time>2011-06-18T05:39:55Z</time>
      </trkpt>
      <trkpt lat="43.90872" lon="7.20385">
        <ele>518.77001953125</ele>
        <time>2011-06-18T05:40:06Z</time>
      </trkpt>
      <trkpt lat="43.90871" lon="7.20387">
        <ele>520.21002197266</ele>
        <time>2011-06-18T05:40:08Z</time>
      </trkpt>
      <trkpt lat="43.90872" lon="7.2039">
        <ele>520.21002197266</ele>
        <time>2011-06-18T05:40:10Z</time>
      </trkpt>
      <trkpt lat="43.90875" lon="7.20394">
        <ele>521.16998291016</ele>
        <time>2011-06-18T05:40:14Z</time>
      </trkpt>
      <trkpt lat="43.90885" lon="7.20404">
        <ele>525.02001953125</ele>
        <time>2011-06-18T05:40:27Z</time>
      </trkpt>
      <trkpt lat="43.90899" lon="7.20413">
        <ele>527.90002441406</ele>
        <time>2011-06-18T05:40:43Z</time>
      </trkpt>
      <trkpt lat="43.9091" lon="7.20415">
        <ele>531.27001953125</ele>
        <time>2011-06-18T05:40:55Z</time>
      </trkpt>
      <trkpt lat="43.90927" lon="7.20414">
        <ele>534.63000488281</ele>
        <time>2011-06-18T05:41:13Z</time>
      </trkpt>
      <trkpt lat="43.90932" lon="7.20413">
        <ele>535.59002685547</ele>
        <time>2011-06-18T05:41:19Z</time>
      </trkpt>
      <trkpt lat="43.90935" lon="7.20412">
        <ele>536.54998779297</ele>
        <time>2011-06-18T05:41:22Z</time>
      </trkpt>
      <trkpt lat="43.90951" lon="7.20402">
        <ele>539.91998291016</ele>
        <time>2011-06-18T05:41:37Z</time>
      </trkpt>
      <trkpt lat="43.90958" lon="7.20385">
        <ele>540.40002441406</ele>
        <time>2011-06-18T05:41:45Z</time>
      </trkpt>
      <trkpt lat="43.90986" lon="7.20367">
        <ele>540.40002441406</ele>
        <time>2011-06-18T05:41:58Z</time>
      </trkpt>
      <trkpt lat="43.91014" lon="7.20353">
        <ele>542.32000732422</ele>
        <time>2011-06-18T05:42:11Z</time>
      </trkpt>
      <trkpt lat="43.91042" lon="7.20343">
        <ele>543.76000976562</ele>
        <time>2011-06-18T05:42:24Z</time>
      </trkpt>
      <trkpt lat="43.91059" lon="7.20336">
        <ele>545.69000244141</ele>
        <time>2011-06-18T05:42:34Z</time>
      </trkpt>
      <trkpt lat="43.91076" lon="7.20334">
        <ele>549.04998779297</ele>
        <time>2011-06-18T05:42:44Z</time>
      </trkpt>
      <trkpt lat="43.91082" lon="7.20336">
        <ele>549.53002929688</ele>
        <time>2011-06-18T05:42:48Z</time>
      </trkpt>
      <trkpt lat="43.91093" lon="7.20348">
        <ele>553.38000488281</ele>
        <time>2011-06-18T05:43:02Z</time>
      </trkpt>
      <trkpt lat="43.91097" lon="7.20361">
        <ele>554.82000732422</ele>
        <time>2011-06-18T05:43:12Z</time>
      </trkpt>
      <trkpt lat="43.91099" lon="7.20368">
        <ele>555.78002929688</ele>
        <time>2011-06-18T05:43:16Z</time>
      </trkpt>
      <trkpt lat="43.91109" lon="7.20386">
        <ele>558.65997314453</ele>
        <time>2011-06-18T05:43:30Z</time>
      </trkpt>
      <trkpt lat="43.91118" lon="7.20399">
        <ele>560.59002685547</ele>
        <time>2011-06-18T05:43:43Z</time>
      </trkpt>
      <trkpt lat="43.91123" lon="7.20404">
        <ele>562.03002929688</ele>
        <time>2011-06-18T05:43:50Z</time>
      </trkpt>
      <trkpt lat="43.91125" lon="7.20418">
        <ele>563.95001220703</ele>
        <time>2011-06-18T05:44:02Z</time>
      </trkpt>
      <trkpt lat="43.91125" lon="7.20424">
        <ele>564.90997314453</ele>
        <time>2011-06-18T05:44:06Z</time>
      </trkpt>
      <trkpt lat="43.91127" lon="7.20444">
        <ele>567.32000732422</ele>
        <time>2011-06-18T05:44:21Z</time>
      </trkpt>
      <trkpt lat="43.91129" lon="7.20458">
        <ele>570.67999267578</ele>
        <time>2011-06-18T05:44:33Z</time>
      </trkpt>
      <trkpt lat="43.9113" lon="7.20459">
        <ele>570.20001220703</ele>
        <time>2011-06-18T05:44:34Z</time>
      </trkpt>
      <trkpt lat="43.91133" lon="7.20459">
        <ele>571.64001464844</ele>
        <time>2011-06-18T05:44:38Z</time>
      </trkpt>
      <trkpt lat="43.91136" lon="7.20458">
        <ele>572.59997558594</ele>
        <time>2011-06-18T05:44:41Z</time>
      </trkpt>
      <trkpt lat="43.91137" lon="7.20464">
        <ele>574.53002929688</ele>
        <time>2011-06-18T05:44:48Z</time>
      </trkpt>
      <trkpt lat="43.91141" lon="7.20466">
        <ele>575.01000976562</ele>
        <time>2011-06-18T05:44:52Z</time>
      </trkpt>
      <trkpt lat="43.91147" lon="7.20475">
        <ele>575.96997070312</ele>
        <time>2011-06-18T05:45:00Z</time>
      </trkpt>
      <trkpt lat="43.91146" lon="7.20495">
        <ele>578.84997558594</ele>
        <time>2011-06-18T05:45:14Z</time>
      </trkpt>
      <trkpt lat="43.91142" lon="7.20502">
        <ele>580.28997802734</ele>
        <time>2011-06-18T05:45:26Z</time>
      </trkpt>
      <trkpt lat="43.91137" lon="7.20513">
        <ele>583.65997314453</ele>
        <time>2011-06-18T05:45:38Z</time>
      </trkpt>
      <trkpt lat="43.91133" lon="7.20516">
        <ele>584.61999511719</ele>
        <time>2011-06-18T05:45:43Z</time>
      </trkpt>
      <trkpt lat="43.9113" lon="7.20526">
        <ele>587.5</ele>
        <time>2011-06-18T05:45:55Z</time>
      </trkpt>
      <trkpt lat="43.9113" lon="7.20528">
        <ele>587.02001953125</ele>
        <time>2011-06-18T05:45:58Z</time>
      </trkpt>
      <trkpt lat="43.91131" lon="7.20531">
        <ele>588.46002197266</ele>
        <time>2011-06-18T05:46:01Z</time>
      </trkpt>
      <trkpt lat="43.91132" lon="7.20541">
        <ele>590.86999511719</ele>
        <time>2011-06-18T05:46:10Z</time>
      </trkpt>
      <trkpt lat="43.91127" lon="7.20547">
        <ele>593.27001953125</ele>
        <time>2011-06-18T05:46:20Z</time>
      </trkpt>
      <trkpt lat="43.91126" lon="7.20555">
        <ele>596.15002441406</ele>
        <time>2011-06-18T05:46:28Z</time>
      </trkpt>
      <trkpt lat="43.91127" lon="7.20565">
        <ele>599.03997802734</ele>
        <time>2011-06-18T05:46:37Z</time>
      </trkpt>
      <trkpt lat="43.91129" lon="7.20576">
        <ele>602.40002441406</ele>
        <time>2011-06-18T05:46:48Z</time>
      </trkpt>
      <trkpt lat="43.9113" lon="7.20584">
        <ele>605.28997802734</ele>
        <time>2011-06-18T05:46:56Z</time>
      </trkpt>
      <trkpt lat="43.91133" lon="7.20602">
        <ele>608.16998291016</ele>
        <time>2011-06-18T05:47:11Z</time>
      </trkpt>
      <trkpt lat="43.91132" lon="7.20621">
        <ele>611.53997802734</ele>
        <time>2011-06-18T05:47:25Z</time>
      </trkpt>
      <trkpt lat="43.91131" lon="7.20639">
        <ele>614.90002441406</ele>
        <time>2011-06-18T05:47:38Z</time>
      </trkpt>
      <trkpt lat="43.91131" lon="7.20642">
        <ele>615.38000488281</ele>
        <time>2011-06-18T05:47:40Z</time>
      </trkpt>
      <trkpt lat="43.91133" lon="7.20658">
        <ele>619.22998046875</ele>
        <time>2011-06-18T05:47:53Z</time>
      </trkpt>
      <trkpt lat="43.91133" lon="7.20668">
        <ele>620.66998291016</ele>
        <time>2011-06-18T05:48:00Z</time>
      </trkpt>
      <trkpt lat="43.91136" lon="7.20675">
        <ele>621.15002441406</ele>
        <time>2011-06-18T05:48:05Z</time>
      </trkpt>
      <trkpt lat="43.91137" lon="7.20678">
        <ele>622.10998535156</ele>
        <time>2011-06-18T05:48:07Z</time>
      </trkpt>
      <trkpt lat="43.91139" lon="7.20692">
        <ele>624.98999023438</ele>
        <time>2011-06-18T05:48:18Z</time>
      </trkpt>
      <trkpt lat="43.91142" lon="7.20712">
        <ele>627.40002441406</ele>
        <time>2011-06-18T05:48:31Z</time>
      </trkpt>
      <trkpt lat="43.91148" lon="7.20737">
        <ele>630.28002929688</ele>
        <time>2011-06-18T05:48:43Z</time>
      </trkpt>
      <trkpt lat="43.91151" lon="7.20743">
        <ele>630.28002929688</ele>
        <time>2011-06-18T05:48:45Z</time>
      </trkpt>
      <trkpt lat="43.91154" lon="7.20757">
        <ele>630.76000976562</ele>
        <time>2011-06-18T05:48:51Z</time>
      </trkpt>
      <trkpt lat="43.91165" lon="7.20791">
        <ele>631.71997070312</ele>
        <time>2011-06-18T05:49:04Z</time>
      </trkpt>
      <trkpt lat="43.91181" lon="7.20806">
        <ele>633.16998291016</ele>
        <time>2011-06-18T05:49:13Z</time>
      </trkpt>
      <trkpt lat="43.91206" lon="7.20826">
        <ele>634.13000488281</ele>
        <time>2011-06-18T05:49:26Z</time>
      </trkpt>
      <trkpt lat="43.9121" lon="7.20834">
        <ele>635.57000732422</ele>
        <time>2011-06-18T05:49:30Z</time>
      </trkpt>
      <trkpt lat="43.91222" lon="7.20854">
        <ele>637.48999023438</ele>
        <time>2011-06-18T05:49:41Z</time>
      </trkpt>
      <trkpt lat="43.91222" lon="7.20855">
        <ele>637.48999023438</ele>
        <time>2011-06-18T05:49:42Z</time>
      </trkpt>
      <trkpt lat="43.91223" lon="7.20867">
        <ele>639.40997314453</ele>
        <time>2011-06-18T05:49:49Z</time>
      </trkpt>
      <trkpt lat="43.91226" lon="7.20891">
        <ele>641.34002685547</ele>
        <time>2011-06-18T05:50:00Z</time>
      </trkpt>
      <trkpt lat="43.91235" lon="7.20907">
        <ele>643.73999023438</ele>
        <time>2011-06-18T05:50:11Z</time>
      </trkpt>
      <trkpt lat="43.91237" lon="7.20911">
        <ele>644.70001220703</ele>
        <time>2011-06-18T05:50:13Z</time>
      </trkpt>
      <trkpt lat="43.91244" lon="7.20919">
        <ele>645.65997314453</ele>
        <time>2011-06-18T05:50:18Z</time>
      </trkpt>
      <trkpt lat="43.91248" lon="7.20926">
        <ele>647.09997558594</ele>
        <time>2011-06-18T05:50:22Z</time>
      </trkpt>
      <trkpt lat="43.91253" lon="7.20941">
        <ele>649.03002929688</ele>
        <time>2011-06-18T05:50:32Z</time>
      </trkpt>
      <trkpt lat="43.91267" lon="7.20957">
        <ele>652.86999511719</ele>
        <time>2011-06-18T05:50:45Z</time>
      </trkpt>
      <trkpt lat="43.91269" lon="7.20959">
        <ele>652.86999511719</ele>
        <time>2011-06-18T05:50:49Z</time>
      </trkpt>
      <trkpt lat="43.91273" lon="7.20962">
        <ele>654.30999755859</ele>
        <time>2011-06-18T05:50:53Z</time>
      </trkpt>
      <trkpt lat="43.91286" lon="7.20971">
        <ele>657.20001220703</ele>
        <time>2011-06-18T05:51:08Z</time>
      </trkpt>
      <trkpt lat="43.91294" lon="7.20977">
        <ele>660.55999755859</ele>
        <time>2011-06-18T05:51:20Z</time>
      </trkpt>
      <trkpt lat="43.91307" lon="7.20996">
        <ele>659.59997558594</ele>
        <time>2011-06-18T05:51:33Z</time>
      </trkpt>
      <trkpt lat="43.91307" lon="7.21005">
        <ele>661.03997802734</ele>
        <time>2011-06-18T05:51:39Z</time>
      </trkpt>
      <trkpt lat="43.9131" lon="7.21015">
        <ele>662.01000976562</ele>
        <time>2011-06-18T05:51:45Z</time>
      </trkpt>
      <trkpt lat="43.91317" lon="7.21027">
        <ele>663.92999267578</ele>
        <time>2011-06-18T05:51:55Z</time>
      </trkpt>
      <trkpt lat="43.91323" lon="7.21029">
        <ele>665.84997558594</ele>
        <time>2011-06-18T05:52:00Z</time>
      </trkpt>
      <trkpt lat="43.91341" lon="7.21027">
        <ele>668.72998046875</ele>
        <time>2011-06-18T05:52:10Z</time>
      </trkpt>
      <trkpt lat="43.91357" lon="7.21028">
        <ele>671.61999511719</ele>
        <time>2011-06-18T05:52:24Z</time>
      </trkpt>
      <trkpt lat="43.91365" lon="7.21021">
        <ele>673.53997802734</ele>
        <time>2011-06-18T05:52:32Z</time>
      </trkpt>
      <trkpt lat="43.91376" lon="7.21014">
        <ele>676.90997314453</ele>
        <time>2011-06-18T05:52:44Z</time>
      </trkpt>
      <trkpt lat="43.9138" lon="7.21013">
        <ele>677.86999511719</ele>
        <time>2011-06-18T05:52:48Z</time>
      </trkpt>
      <trkpt lat="43.91385" lon="7.21014">
        <ele>679.30999755859</ele>
        <time>2011-06-18T05:52:53Z</time>
      </trkpt>
      <trkpt lat="43.914" lon="7.21027">
        <ele>678.83001708984</ele>
        <time>2011-06-18T05:53:09Z</time>
      </trkpt>
      <trkpt lat="43.91419" lon="7.2103">
        <ele>676.41998291016</ele>
        <time>2011-06-18T05:53:17Z</time>
      </trkpt>
      <trkpt lat="43.91426" lon="7.21027">
        <ele>675.46002197266</ele>
        <time>2011-06-18T05:53:20Z</time>
      </trkpt>
      <trkpt lat="43.91438" lon="7.21037">
        <ele>673.53997802734</ele>
        <time>2011-06-18T05:53:26Z</time>
      </trkpt>
      <trkpt lat="43.91451" lon="7.21056">
        <ele>669.21997070312</ele>
        <time>2011-06-18T05:53:35Z</time>
      </trkpt>
      <trkpt lat="43.91457" lon="7.21062">
        <ele>668.72998046875</ele>
        <time>2011-06-18T05:53:39Z</time>
      </trkpt>
      <trkpt lat="43.91478" lon="7.21043">
        <ele>669.70001220703</ele>
        <time>2011-06-18T05:53:51Z</time>
      </trkpt>
      <trkpt lat="43.91482" lon="7.21033">
        <ele>670.17999267578</ele>
        <time>2011-06-18T05:53:54Z</time>
      </trkpt>
      <trkpt lat="43.91484" lon="7.2102">
        <ele>671.14001464844</ele>
        <time>2011-06-18T05:53:58Z</time>
      </trkpt>
      <trkpt lat="43.91491" lon="7.21011">
        <ele>668.72998046875</ele>
        <time>2011-06-18T05:54:03Z</time>
      </trkpt>
      <trkpt lat="43.91496" lon="7.21005">
        <ele>668.25</ele>
        <time>2011-06-18T05:54:12Z</time>
      </trkpt>
      <trkpt lat="43.91495" lon="7.21004">
        <ele>669.21997070312</ele>
        <time>2011-06-18T05:54:17Z</time>
      </trkpt>
      <trkpt lat="43.91493" lon="7.21006">
        <ele>669.70001220703</ele>
        <time>2011-06-18T05:54:20Z</time>
      </trkpt>
      <trkpt lat="43.91483" lon="7.21015">
        <ele>672.58001708984</ele>
        <time>2011-06-18T05:54:30Z</time>
      </trkpt>
      <trkpt lat="43.91481" lon="7.21011">
        <ele>674.02001953125</ele>
        <time>2011-06-18T05:54:36Z</time>
      </trkpt>
      <trkpt lat="43.91484" lon="7.21003">
        <ele>674.5</ele>
        <time>2011-06-18T05:54:41Z</time>
      </trkpt>
      <trkpt lat="43.91486" lon="7.21">
        <ele>675.94000244141</ele>
        <time>2011-06-18T05:54:44Z</time>
      </trkpt>
      <trkpt lat="43.91499" lon="7.20992">
        <ele>677.86999511719</ele>
        <time>2011-06-18T05:54:57Z</time>
      </trkpt>
      <trkpt lat="43.91499" lon="7.20989">
        <ele>681.22998046875</ele>
        <time>2011-06-18T05:55:07Z</time>
      </trkpt>
      <trkpt lat="43.91495" lon="7.20989">
        <ele>681.22998046875</ele>
        <time>2011-06-18T05:55:21Z</time>
      </trkpt>
      <trkpt lat="43.9149" lon="7.2099">
        <ele>683.63000488281</ele>
        <time>2011-06-18T05:56:17Z</time>
      </trkpt>
      <trkpt lat="43.91488" lon="7.2099">
        <ele>684.11999511719</ele>
        <time>2011-06-18T05:56:20Z</time>
      </trkpt>
      <trkpt lat="43.91472" lon="7.21001">
        <ele>686.52001953125</ele>
        <time>2011-06-18T05:56:35Z</time>
      </trkpt>
      <trkpt lat="43.91459" lon="7.20987">
        <ele>689.88000488281</ele>
        <time>2011-06-18T05:56:51Z</time>
      </trkpt>
      <trkpt lat="43.91452" lon="7.20976">
        <ele>693.25</ele>
        <time>2011-06-18T05:57:04Z</time>
      </trkpt>
      <trkpt lat="43.91447" lon="7.2096">
        <ele>696.13000488281</ele>
        <time>2011-06-18T05:57:16Z</time>
      </trkpt>
      <trkpt lat="43.91446" lon="7.20952">
        <ele>696.60998535156</ele>
        <time>2011-06-18T05:57:19Z</time>
      </trkpt>
      <trkpt lat="43.91455" lon="7.20947">
        <ele>699.97998046875</ele>
        <time>2011-06-18T05:57:32Z</time>
      </trkpt>
      <trkpt lat="43.9146" lon="7.20951">
        <ele>699.97998046875</ele>
        <time>2011-06-18T05:57:37Z</time>
      </trkpt>
      <trkpt lat="43.91469" lon="7.20953">
        <ele>703.34002685547</ele>
        <time>2011-06-18T05:57:53Z</time>
      </trkpt>
      <trkpt lat="43.91473" lon="7.20951">
        <ele>705.26000976562</ele>
        <time>2011-06-18T05:58:06Z</time>
      </trkpt>
      <trkpt lat="43.91479" lon="7.20948">
        <ele>706.22998046875</ele>
        <time>2011-06-18T05:58:18Z</time>
      </trkpt>
      <trkpt lat="43.91497" lon="7.20953">
        <ele>708.15002441406</ele>
        <time>2011-06-18T05:58:36Z</time>
      </trkpt>
      <trkpt lat="43.91498" lon="7.20954">
        <ele>709.10998535156</ele>
        <time>2011-06-18T05:58:37Z</time>
      </trkpt>
      <trkpt lat="43.91509" lon="7.20952">
        <ele>711.98999023438</ele>
        <time>2011-06-18T05:58:49Z</time>
      </trkpt>
      <trkpt lat="43.9151" lon="7.20951">
        <ele>711.98999023438</ele>
        <time>2011-06-18T05:58:50Z</time>
      </trkpt>
      <trkpt lat="43.91513" lon="7.2095">
        <ele>712.95001220703</ele>
        <time>2011-06-18T05:58:54Z</time>
      </trkpt>
      <trkpt lat="43.91516" lon="7.20949">
        <ele>713.44000244141</ele>
        <time>2011-06-18T05:58:57Z</time>
      </trkpt>
      <trkpt lat="43.91523" lon="7.20947">
        <ele>714.88000488281</ele>
        <time>2011-06-18T05:59:04Z</time>
      </trkpt>
      <trkpt lat="43.91516" lon="7.20942">
        <ele>717.76000976562</ele>
        <time>2011-06-18T05:59:14Z</time>
      </trkpt>
      <trkpt lat="43.91515" lon="7.20941">
        <ele>718.23999023438</ele>
        <time>2011-06-18T05:59:16Z</time>
      </trkpt>
      <trkpt lat="43.91517" lon="7.20939">
        <ele>719.20001220703</ele>
        <time>2011-06-18T05:59:19Z</time>
      </trkpt>
      <trkpt lat="43.91531" lon="7.20937">
        <ele>720.65002441406</ele>
        <time>2011-06-18T05:59:32Z</time>
      </trkpt>
      <trkpt lat="43.91536" lon="7.20939">
        <ele>722.57000732422</ele>
        <time>2011-06-18T05:59:37Z</time>
      </trkpt>
      <trkpt lat="43.91548" lon="7.2094">
        <ele>724.96997070312</ele>
        <time>2011-06-18T05:59:48Z</time>
      </trkpt>
      <trkpt lat="43.91559" lon="7.2094">
        <ele>727.85998535156</ele>
        <time>2011-06-18T06:00:00Z</time>
      </trkpt>
      <trkpt lat="43.91561" lon="7.2094">
        <ele>728.82000732422</ele>
        <time>2011-06-18T06:00:02Z</time>
      </trkpt>
      <trkpt lat="43.91573" lon="7.20946">
        <ele>730.73999023438</ele>
        <time>2011-06-18T06:00:15Z</time>
      </trkpt>
      <trkpt lat="43.91583" lon="7.20948">
        <ele>734.09997558594</ele>
        <time>2011-06-18T06:00:29Z</time>
      </trkpt>
      <trkpt lat="43.91589" lon="7.20943">
        <ele>736.03002929688</ele>
        <time>2011-06-18T06:00:42Z</time>
      </trkpt>
      <trkpt lat="43.91581" lon="7.20936">
        <ele>738.42999267578</ele>
        <time>2011-06-18T06:00:52Z</time>
      </trkpt>
      <trkpt lat="43.91581" lon="7.20934">
        <ele>738.90997314453</ele>
        <time>2011-06-18T06:00:54Z</time>
      </trkpt>
      <trkpt lat="43.91587" lon="7.20935">
        <ele>739.86999511719</ele>
        <time>2011-06-18T06:01:00Z</time>
      </trkpt>
      <trkpt lat="43.916" lon="7.2094">
        <ele>743.71997070312</ele>
        <time>2011-06-18T06:01:14Z</time>
      </trkpt>
      <trkpt lat="43.91616" lon="7.20947">
        <ele>747.08001708984</ele>
        <time>2011-06-18T06:01:31Z</time>
      </trkpt>
      <trkpt lat="43.91622" lon="7.20948">
        <ele>748.52001953125</ele>
        <time>2011-06-18T06:01:38Z</time>
      </trkpt>
      <trkpt lat="43.91636" lon="7.20944">
        <ele>750.92999267578</ele>
        <time>2011-06-18T06:01:54Z</time>
      </trkpt>
      <trkpt lat="43.91647" lon="7.20937">
        <ele>754.28997802734</ele>
        <time>2011-06-18T06:02:07Z</time>
      </trkpt>
      <trkpt lat="43.9165" lon="7.20936">
        <ele>754.28997802734</ele>
        <time>2011-06-18T06:02:10Z</time>
      </trkpt>
      <trkpt lat="43.91653" lon="7.20935">
        <ele>754.77001953125</ele>
        <time>2011-06-18T06:02:13Z</time>
      </trkpt>
      <trkpt lat="43.91669" lon="7.20928">
        <ele>757.65997314453</ele>
        <time>2011-06-18T06:02:29Z</time>
      </trkpt>
      <trkpt lat="43.91678" lon="7.20923">
        <ele>760.53997802734</ele>
        <time>2011-06-18T06:02:41Z</time>
      </trkpt>
      <trkpt lat="43.91685" lon="7.20922">
        <ele>762.46002197266</ele>
        <time>2011-06-18T06:02:49Z</time>
      </trkpt>
      <trkpt lat="43.91695" lon="7.20924">
        <ele>764.86999511719</ele>
        <time>2011-06-18T06:02:59Z</time>
      </trkpt>
      <trkpt lat="43.91706" lon="7.20925">
        <ele>767.75</ele>
        <time>2011-06-18T06:03:12Z</time>
      </trkpt>
      <trkpt lat="43.91707" lon="7.20925">
        <ele>768.22998046875</ele>
        <time>2011-06-18T06:03:13Z</time>
      </trkpt>
      <trkpt lat="43.91719" lon="7.20921">
        <ele>771.59997558594</ele>
        <time>2011-06-18T06:03:26Z</time>
      </trkpt>
      <trkpt lat="43.91719" lon="7.20921">
        <ele>773.03997802734</ele>
        <time>2011-06-18T06:03:27Z</time>
      </trkpt>
      <trkpt lat="43.9171" lon="7.20917">
        <ele>774.47998046875</ele>
        <time>2011-06-18T06:03:40Z</time>
      </trkpt>
      <trkpt lat="43.91716" lon="7.20914">
        <ele>775.44000244141</ele>
        <time>2011-06-18T06:03:53Z</time>
      </trkpt>
      <trkpt lat="43.91719" lon="7.20913">
        <ele>776.88000488281</ele>
        <time>2011-06-18T06:04:13Z</time>
      </trkpt>
      <trkpt lat="43.91723" lon="7.2091">
        <ele>777.84002685547</ele>
        <time>2011-06-18T06:04:17Z</time>
      </trkpt>
      <trkpt lat="43.91727" lon="7.20906">
        <ele>779.28997802734</ele>
        <time>2011-06-18T06:04:21Z</time>
      </trkpt>
      <trkpt lat="43.91729" lon="7.20905">
        <ele>780.25</ele>
        <time>2011-06-18T06:04:23Z</time>
      </trkpt>
      <trkpt lat="43.91733" lon="7.20903">
        <ele>781.69000244141</ele>
        <time>2011-06-18T06:04:27Z</time>
      </trkpt>
      <trkpt lat="43.91738" lon="7.20902">
        <ele>781.69000244141</ele>
        <time>2011-06-18T06:04:31Z</time>
      </trkpt>
      <trkpt lat="43.91745" lon="7.20912">
        <ele>784.09002685547</ele>
        <time>2011-06-18T06:04:38Z</time>
      </trkpt>
      <trkpt lat="43.91752" lon="7.20921">
        <ele>787.94000244141</ele>
        <time>2011-06-18T06:04:47Z</time>
      </trkpt>
      <trkpt lat="43.91753" lon="7.20922">
        <ele>787.94000244141</ele>
        <time>2011-06-18T06:04:48Z</time>
      </trkpt>
      <trkpt lat="43.91761" lon="7.2092">
        <ele>790.82000732422</ele>
        <time>2011-06-18T06:04:57Z</time>
      </trkpt>
      <trkpt lat="43.91757" lon="7.20911">
        <ele>791.78002929688</ele>
        <time>2011-06-18T06:05:02Z</time>
      </trkpt>
      <trkpt lat="43.91753" lon="7.20894">
        <ele>795.15002441406</ele>
        <time>2011-06-18T06:05:12Z</time>
      </trkpt>
      <trkpt lat="43.91752" lon="7.20889">
        <ele>796.10998535156</ele>
        <time>2011-06-18T06:05:16Z</time>
      </trkpt>
      <trkpt lat="43.91755" lon="7.20887">
        <ele>797.07000732422</ele>
        <time>2011-06-18T06:05:23Z</time>
      </trkpt>
      <trkpt lat="43.91764" lon="7.209">
        <ele>800.91998291016</ele>
        <time>2011-06-18T06:05:36Z</time>
      </trkpt>
      <trkpt lat="43.91772" lon="7.20911">
        <ele>803.79998779297</ele>
        <time>2011-06-18T06:05:47Z</time>
      </trkpt>
      <trkpt lat="43.91773" lon="7.20912">
        <ele>803.79998779297</ele>
        <time>2011-06-18T06:05:48Z</time>
      </trkpt>
      <trkpt lat="43.91785" lon="7.20923">
        <ele>807.15997314453</ele>
        <time>2011-06-18T06:06:01Z</time>
      </trkpt>
      <trkpt lat="43.91793" lon="7.20931">
        <ele>809.57000732422</ele>
        <time>2011-06-18T06:06:11Z</time>
      </trkpt>
      <trkpt lat="43.91795" lon="7.20938">
        <ele>809.57000732422</ele>
        <time>2011-06-18T06:06:16Z</time>
      </trkpt>
      <trkpt lat="43.91793" lon="7.20943">
        <ele>811.01000976562</ele>
        <time>2011-06-18T06:06:19Z</time>
      </trkpt>
      <trkpt lat="43.91789" lon="7.20957">
        <ele>811.96997070312</ele>
        <time>2011-06-18T06:06:30Z</time>
      </trkpt>
      <trkpt lat="43.91788" lon="7.20962">
        <ele>811.96997070312</ele>
        <time>2011-06-18T06:06:33Z</time>
      </trkpt>
      <trkpt lat="43.91785" lon="7.20982">
        <ele>815.34002685547</ele>
        <time>2011-06-18T06:06:50Z</time>
      </trkpt>
      <trkpt lat="43.91783" lon="7.20993">
        <ele>816.29998779297</ele>
        <time>2011-06-18T06:06:57Z</time>
      </trkpt>
      <trkpt lat="43.9178" lon="7.21016">
        <ele>819.65997314453</ele>
        <time>2011-06-18T06:07:14Z</time>
      </trkpt>
      <trkpt lat="43.91779" lon="7.21022">
        <ele>819.17999267578</ele>
        <time>2011-06-18T06:07:18Z</time>
      </trkpt>
      <trkpt lat="43.9178" lon="7.2103">
        <ele>820.14001464844</ele>
        <time>2011-06-18T06:07:23Z</time>
      </trkpt>
      <trkpt lat="43.91786" lon="7.21042">
        <ele>823.03002929688</ele>
        <time>2011-06-18T06:07:33Z</time>
      </trkpt>
      <trkpt lat="43.91791" lon="7.21058">
        <ele>824.46997070312</ele>
        <time>2011-06-18T06:07:46Z</time>
      </trkpt>
      <trkpt lat="43.91792" lon="7.21063">
        <ele>825.42999267578</ele>
        <time>2011-06-18T06:07:50Z</time>
      </trkpt>
      <trkpt lat="43.91792" lon="7.21066">
        <ele>825.90997314453</ele>
        <time>2011-06-18T06:07:52Z</time>
      </trkpt>
      <trkpt lat="43.91795" lon="7.21082">
        <ele>827.83001708984</ele>
        <time>2011-06-18T06:08:02Z</time>
      </trkpt>
      <trkpt lat="43.91797" lon="7.21096">
        <ele>828.30999755859</ele>
        <time>2011-06-18T06:08:15Z</time>
      </trkpt>
      <trkpt lat="43.91801" lon="7.21107">
        <ele>830.23999023438</ele>
        <time>2011-06-18T06:08:26Z</time>
      </trkpt>
      <trkpt lat="43.91803" lon="7.2111">
        <ele>831.67999267578</ele>
        <time>2011-06-18T06:08:29Z</time>
      </trkpt>
      <trkpt lat="43.91815" lon="7.21113">
        <ele>833.11999511719</ele>
        <time>2011-06-18T06:08:41Z</time>
      </trkpt>
      <trkpt lat="43.91826" lon="7.21114">
        <ele>832.64001464844</ele>
        <time>2011-06-18T06:08:52Z</time>
      </trkpt>
      <trkpt lat="43.91838" lon="7.21117">
        <ele>834.08001708984</ele>
        <time>2011-06-18T06:09:03Z</time>
      </trkpt>
      <trkpt lat="43.91848" lon="7.21119">
        <ele>835.52001953125</ele>
        <time>2011-06-18T06:09:08Z</time>
      </trkpt>
      <trkpt lat="43.91869" lon="7.21128">
        <ele>836</ele>
        <time>2011-06-18T06:09:19Z</time>
      </trkpt>
      <trkpt lat="43.9189" lon="7.21149">
        <ele>836.47998046875</ele>
        <time>2011-06-18T06:09:30Z</time>
      </trkpt>
      <trkpt lat="43.91896" lon="7.21152">
        <ele>836.96002197266</ele>
        <time>2011-06-18T06:09:33Z</time>
      </trkpt>
      <trkpt lat="43.91903" lon="7.21163">
        <ele>839.84997558594</ele>
        <time>2011-06-18T06:09:38Z</time>
      </trkpt>
      <trkpt lat="43.91913" lon="7.21189">
        <ele>841.77001953125</ele>
        <time>2011-06-18T06:09:48Z</time>
      </trkpt>
      <trkpt lat="43.91922" lon="7.21205">
        <ele>842.72998046875</ele>
        <time>2011-06-18T06:09:55Z</time>
      </trkpt>
      <trkpt lat="43.91938" lon="7.21224">
        <ele>845.14001464844</ele>
        <time>2011-06-18T06:10:07Z</time>
      </trkpt>
      <trkpt lat="43.91957" lon="7.21246">
        <ele>845.61999511719</ele>
        <time>2011-06-18T06:10:20Z</time>
      </trkpt>
      <trkpt lat="43.91972" lon="7.2127">
        <ele>846.58001708984</ele>
        <time>2011-06-18T06:10:31Z</time>
      </trkpt>
      <trkpt lat="43.91982" lon="7.21294">
        <ele>848.02001953125</ele>
        <time>2011-06-18T06:10:42Z</time>
      </trkpt>
      <trkpt lat="43.91982" lon="7.21296">
        <ele>848.97998046875</ele>
        <time>2011-06-18T06:10:43Z</time>
      </trkpt>
      <trkpt lat="43.91983" lon="7.213">
        <ele>848.97998046875</ele>
        <time>2011-06-18T06:10:45Z</time>
      </trkpt>
      <trkpt lat="43.91984" lon="7.21315">
        <ele>851.38000488281</ele>
        <time>2011-06-18T06:10:54Z</time>
      </trkpt>
      <trkpt lat="43.91983" lon="7.2132">
        <ele>852.34997558594</ele>
        <time>2011-06-18T06:10:56Z</time>
      </trkpt>
      <trkpt lat="43.91981" lon="7.21333">
        <ele>853.78997802734</ele>
        <time>2011-06-18T06:11:03Z</time>
      </trkpt>
      <trkpt lat="43.91981" lon="7.21349">
        <ele>858.10998535156</ele>
        <time>2011-06-18T06:11:13Z</time>
      </trkpt>
      <trkpt lat="43.9198" lon="7.21358">
        <ele>858.59002685547</ele>
        <time>2011-06-18T06:11:17Z</time>
      </trkpt>
      <trkpt lat="43.91979" lon="7.21362">
        <ele>859.55999755859</ele>
        <time>2011-06-18T06:11:19Z</time>
      </trkpt>
      <trkpt lat="43.91979" lon="7.2137">
        <ele>861</ele>
        <time>2011-06-18T06:11:23Z</time>
      </trkpt>
      <trkpt lat="43.91975" lon="7.21395">
        <ele>863.88000488281</ele>
        <time>2011-06-18T06:11:35Z</time>
      </trkpt>
      <trkpt lat="43.91975" lon="7.21397">
        <ele>863.88000488281</ele>
        <time>2011-06-18T06:11:36Z</time>
      </trkpt>
      <trkpt lat="43.91977" lon="7.2141">
        <ele>865.32000732422</ele>
        <time>2011-06-18T06:11:43Z</time>
      </trkpt>
      <trkpt lat="43.9198" lon="7.21416">
        <ele>866.28997802734</ele>
        <time>2011-06-18T06:11:46Z</time>
      </trkpt>
      <trkpt lat="43.91983" lon="7.21422">
        <ele>866.28997802734</ele>
        <time>2011-06-18T06:11:50Z</time>
      </trkpt>
      <trkpt lat="43.91987" lon="7.21437">
        <ele>870.13000488281</ele>
        <time>2011-06-18T06:11:59Z</time>
      </trkpt>
      <trkpt lat="43.91994" lon="7.21461">
        <ele>871.57000732422</ele>
        <time>2011-06-18T06:12:11Z</time>
      </trkpt>
      <trkpt lat="43.92001" lon="7.21473">
        <ele>873.97998046875</ele>
        <time>2011-06-18T06:12:18Z</time>
      </trkpt>
      <trkpt lat="43.92006" lon="7.21485">
        <ele>875.41998291016</ele>
        <time>2011-06-18T06:12:26Z</time>
      </trkpt>
      <trkpt lat="43.9201" lon="7.215">
        <ele>878.29998779297</ele>
        <time>2011-06-18T06:12:35Z</time>
      </trkpt>
      <trkpt lat="43.92009" lon="7.21524">
        <ele>882.15002441406</ele>
        <time>2011-06-18T06:12:47Z</time>
      </trkpt>
      <trkpt lat="43.92009" lon="7.21526">
        <ele>882.63000488281</ele>
        <time>2011-06-18T06:12:48Z</time>
      </trkpt>
      <trkpt lat="43.92009" lon="7.21535">
        <ele>882.63000488281</ele>
        <time>2011-06-18T06:12:52Z</time>
      </trkpt>
      <trkpt lat="43.92007" lon="7.2155">
        <ele>884.54998779297</ele>
        <time>2011-06-18T06:12:59Z</time>
      </trkpt>
      <trkpt lat="43.92004" lon="7.21575">
        <ele>888.88000488281</ele>
        <time>2011-06-18T06:13:12Z</time>
      </trkpt>
      <trkpt lat="43.91998" lon="7.216">
        <ele>890.32000732422</ele>
        <time>2011-06-18T06:13:24Z</time>
      </trkpt>
      <trkpt lat="43.91995" lon="7.21616">
        <ele>894.15997314453</ele>
        <time>2011-06-18T06:13:34Z</time>
      </trkpt>
      <trkpt lat="43.91988" lon="7.21635">
        <ele>897.04998779297</ele>
        <time>2011-06-18T06:13:44Z</time>
      </trkpt>
      <trkpt lat="43.91985" lon="7.21655">
        <ele>899.45001220703</ele>
        <time>2011-06-18T06:13:55Z</time>
      </trkpt>
      <trkpt lat="43.91995" lon="7.21696">
        <ele>900.89001464844</ele>
        <time>2011-06-18T06:14:09Z</time>
      </trkpt>
      <trkpt lat="43.92013" lon="7.21725">
        <ele>902.82000732422</ele>
        <time>2011-06-18T06:14:21Z</time>
      </trkpt>
      <trkpt lat="43.92024" lon="7.21736">
        <ele>906.17999267578</ele>
        <time>2011-06-18T06:14:29Z</time>
      </trkpt>
      <trkpt lat="43.92025" lon="7.21737">
        <ele>906.65997314453</ele>
        <time>2011-06-18T06:14:30Z</time>
      </trkpt>
      <trkpt lat="43.92039" lon="7.21747">
        <ele>909.05999755859</ele>
        <time>2011-06-18T06:14:40Z</time>
      </trkpt>
      <trkpt lat="43.92043" lon="7.2175">
        <ele>910.03002929688</ele>
        <time>2011-06-18T06:14:43Z</time>
      </trkpt>
      <trkpt lat="43.92052" lon="7.21754">
        <ele>912.42999267578</ele>
        <time>2011-06-18T06:14:50Z</time>
      </trkpt>
      <trkpt lat="43.92069" lon="7.21763">
        <ele>915.78997802734</ele>
        <time>2011-06-18T06:15:00Z</time>
      </trkpt>
      <trkpt lat="43.92075" lon="7.21763">
        <ele>916.27001953125</ele>
        <time>2011-06-18T06:15:04Z</time>
      </trkpt>
      <trkpt lat="43.9208" lon="7.21762">
        <ele>917.23999023438</ele>
        <time>2011-06-18T06:15:08Z</time>
      </trkpt>
      <trkpt lat="43.92087" lon="7.2176">
        <ele>919.15997314453</ele>
        <time>2011-06-18T06:15:14Z</time>
      </trkpt>
      <trkpt lat="43.92092" lon="7.21763">
        <ele>920.11999511719</ele>
        <time>2011-06-18T06:15:19Z</time>
      </trkpt>
      <trkpt lat="43.92095" lon="7.21766">
        <ele>921.08001708984</ele>
        <time>2011-06-18T06:15:22Z</time>
      </trkpt>
      <trkpt lat="43.92098" lon="7.21779">
        <ele>923.96002197266</ele>
        <time>2011-06-18T06:15:29Z</time>
      </trkpt>
      <trkpt lat="43.92097" lon="7.21781">
        <ele>923.96002197266</ele>
        <time>2011-06-18T06:15:30Z</time>
      </trkpt>
      <trkpt lat="43.92098" lon="7.2181">
        <ele>924.92999267578</ele>
        <time>2011-06-18T06:15:41Z</time>
      </trkpt>
      <trkpt lat="43.921" lon="7.21833">
        <ele>927.33001708984</ele>
        <time>2011-06-18T06:15:56Z</time>
      </trkpt>
      <trkpt lat="43.92099" lon="7.21835">
        <ele>927.80999755859</ele>
        <time>2011-06-18T06:16:10Z</time>
      </trkpt>
      <trkpt lat="43.92099" lon="7.21835">
        <ele>927.33001708984</ele>
        <time>2011-06-18T06:16:11Z</time>
      </trkpt>
      <trkpt lat="43.92113" lon="7.21828">
        <ele>928.28997802734</ele>
        <time>2011-06-18T06:16:22Z</time>
      </trkpt>
      <trkpt lat="43.92112" lon="7.21829">
        <ele>927.33001708984</ele>
        <time>2011-06-18T06:16:25Z</time>
      </trkpt>
      <trkpt lat="43.92106" lon="7.21832">
        <ele>928.28997802734</ele>
        <time>2011-06-18T06:16:37Z</time>
      </trkpt>
      <trkpt lat="43.92105" lon="7.21835">
        <ele>926.84997558594</ele>
        <time>2011-06-18T06:16:51Z</time>
      </trkpt>
      <trkpt lat="43.92106" lon="7.21832">
        <ele>927.33001708984</ele>
        <time>2011-06-18T06:17:04Z</time>
      </trkpt>
      <trkpt lat="43.92106" lon="7.21835">
        <ele>927.80999755859</ele>
        <time>2011-06-18T06:17:17Z</time>
      </trkpt>
      <trkpt lat="43.92107" lon="7.21836">
        <ele>928.28997802734</ele>
        <time>2011-06-18T06:17:30Z</time>
      </trkpt>
      <trkpt lat="43.92102" lon="7.21833">
        <ele>927.33001708984</ele>
        <time>2011-06-18T06:17:46Z</time>
      </trkpt>
      <trkpt lat="43.92116" lon="7.21844">
        <ele>928.77001953125</ele>
        <time>2011-06-18T06:18:02Z</time>
      </trkpt>
      <trkpt lat="43.92124" lon="7.21853">
        <ele>930.21002197266</ele>
        <time>2011-06-18T06:18:11Z</time>
      </trkpt>
      <trkpt lat="43.92126" lon="7.21855">
        <ele>929.72998046875</ele>
        <time>2011-06-18T06:18:13Z</time>
      </trkpt>
      <trkpt lat="43.9213" lon="7.21855">
        <ele>929.72998046875</ele>
        <time>2011-06-18T06:18:16Z</time>
      </trkpt>
      <trkpt lat="43.92137" lon="7.21856">
        <ele>930.69000244141</ele>
        <time>2011-06-18T06:18:20Z</time>
      </trkpt>
      <trkpt lat="43.92139" lon="7.21856">
        <ele>931.16998291016</ele>
        <time>2011-06-18T06:18:21Z</time>
      </trkpt>
      <trkpt lat="43.92148" lon="7.2188">
        <ele>932.61999511719</ele>
        <time>2011-06-18T06:18:33Z</time>
      </trkpt>
      <trkpt lat="43.92149" lon="7.21898">
        <ele>935.02001953125</ele>
        <time>2011-06-18T06:18:41Z</time>
      </trkpt>
      <trkpt lat="43.92143" lon="7.2192">
        <ele>937.41998291016</ele>
        <time>2011-06-18T06:18:54Z</time>
      </trkpt>
      <trkpt lat="43.92135" lon="7.21924">
        <ele>937.90002441406</ele>
        <time>2011-06-18T06:19:09Z</time>
      </trkpt>
      <trkpt lat="43.92128" lon="7.21928">
        <ele>937.41998291016</ele>
        <time>2011-06-18T06:19:23Z</time>
      </trkpt>
      <trkpt lat="43.92128" lon="7.21929">
        <ele>938.38000488281</ele>
        <time>2011-06-18T06:19:28Z</time>
      </trkpt>
      <trkpt lat="43.92116" lon="7.21939">
        <ele>942.22998046875</ele>
        <time>2011-06-18T06:19:40Z</time>
      </trkpt>
      <trkpt lat="43.92093" lon="7.21949">
        <ele>944.63000488281</ele>
        <time>2011-06-18T06:19:58Z</time>
      </trkpt>
      <trkpt lat="43.92084" lon="7.21955">
        <ele>948</ele>
        <time>2011-06-18T06:20:07Z</time>
      </trkpt>
      <trkpt lat="43.92079" lon="7.21962">
        <ele>949.91998291016</ele>
        <time>2011-06-18T06:20:14Z</time>
      </trkpt>
      <trkpt lat="43.92068" lon="7.21972">
        <ele>951.84002685547</ele>
        <time>2011-06-18T06:20:29Z</time>
      </trkpt>
      <trkpt lat="43.9206" lon="7.21978">
        <ele>955.21002197266</ele>
        <time>2011-06-18T06:20:40Z</time>
      </trkpt>
      <trkpt lat="43.92059" lon="7.21979">
        <ele>955.21002197266</ele>
        <time>2011-06-18T06:20:41Z</time>
      </trkpt>
      <trkpt lat="43.92051" lon="7.21986">
        <ele>958.09002685547</ele>
        <time>2011-06-18T06:20:49Z</time>
      </trkpt>
      <trkpt lat="43.92046" lon="7.2199">
        <ele>960.01000976562</ele>
        <time>2011-06-18T06:20:53Z</time>
      </trkpt>
      <trkpt lat="43.92039" lon="7.21995">
        <ele>961.94000244141</ele>
        <time>2011-06-18T06:21:00Z</time>
      </trkpt>
      <trkpt lat="43.92026" lon="7.21997">
        <ele>965.29998779297</ele>
        <time>2011-06-18T06:21:11Z</time>
      </trkpt>
      <trkpt lat="43.92004" lon="7.21994">
        <ele>968.17999267578</ele>
        <time>2011-06-18T06:21:27Z</time>
      </trkpt>
      <trkpt lat="43.91996" lon="7.22003">
        <ele>970.10998535156</ele>
        <time>2011-06-18T06:21:35Z</time>
      </trkpt>
      <trkpt lat="43.9199" lon="7.22008">
        <ele>972.98999023438</ele>
        <time>2011-06-18T06:21:40Z</time>
      </trkpt>
      <trkpt lat="43.91964" lon="7.22013">
        <ele>974.42999267578</ele>
        <time>2011-06-18T06:21:58Z</time>
      </trkpt>
      <trkpt lat="43.91948" lon="7.22009">
        <ele>976.84002685547</ele>
        <time>2011-06-18T06:22:11Z</time>
      </trkpt>
      <trkpt lat="43.91935" lon="7.2201">
        <ele>979.23999023438</ele>
        <time>2011-06-18T06:22:21Z</time>
      </trkpt>
      <trkpt lat="43.91912" lon="7.22014">
        <ele>981.15997314453</ele>
        <time>2011-06-18T06:22:36Z</time>
      </trkpt>
      <trkpt lat="43.91873" lon="7.22022">
        <ele>983.57000732422</ele>
        <time>2011-06-18T06:22:52Z</time>
      </trkpt>
      <trkpt lat="43.91846" lon="7.22045">
        <ele>986.45001220703</ele>
        <time>2011-06-18T06:23:07Z</time>
      </trkpt>
      <trkpt lat="43.91829" lon="7.22068">
        <ele>989.80999755859</ele>
        <time>2011-06-18T06:23:19Z</time>
      </trkpt>
      <trkpt lat="43.91824" lon="7.22074">
        <ele>989.80999755859</ele>
        <time>2011-06-18T06:23:24Z</time>
      </trkpt>
      <trkpt lat="43.91806" lon="7.22086">
        <ele>991.26000976562</ele>
        <time>2011-06-18T06:23:38Z</time>
      </trkpt>
      <trkpt lat="43.91799" lon="7.22094">
        <ele>993.17999267578</ele>
        <time>2011-06-18T06:23:44Z</time>
      </trkpt>
      <trkpt lat="43.91786" lon="7.22116">
        <ele>994.61999511719</ele>
        <time>2011-06-18T06:23:57Z</time>
      </trkpt>
      <trkpt lat="43.91783" lon="7.22126">
        <ele>994.61999511719</ele>
        <time>2011-06-18T06:24:01Z</time>
      </trkpt>
      <trkpt lat="43.91776" lon="7.22151">
        <ele>996.53997802734</ele>
        <time>2011-06-18T06:24:11Z</time>
      </trkpt>
      <trkpt lat="43.91762" lon="7.22173">
        <ele>997.98999023438</ele>
        <time>2011-06-18T06:24:26Z</time>
      </trkpt>
      <trkpt lat="43.91758" lon="7.22178">
        <ele>997.98999023438</ele>
        <time>2011-06-18T06:24:45Z</time>
      </trkpt>
      <trkpt lat="43.91757" lon="7.2218">
        <ele>997.98999023438</ele>
        <time>2011-06-18T06:25:04Z</time>
      </trkpt>
      <trkpt lat="43.91754" lon="7.22181">
        <ele>997.51000976562</ele>
        <time>2011-06-18T06:25:07Z</time>
      </trkpt>
      <trkpt lat="43.91745" lon="7.22203">
        <ele>995.09997558594</ele>
        <time>2011-06-18T06:25:17Z</time>
      </trkpt>
      <trkpt lat="43.91741" lon="7.22215">
        <ele>995.58001708984</ele>
        <time>2011-06-18T06:25:22Z</time>
      </trkpt>
      <trkpt lat="43.9174" lon="7.22228">
        <ele>994.14001464844</ele>
        <time>2011-06-18T06:25:27Z</time>
      </trkpt>
      <trkpt lat="43.91721" lon="7.2225">
        <ele>992.21997070312</ele>
        <time>2011-06-18T06:25:38Z</time>
      </trkpt>
      <trkpt lat="43.9172" lon="7.22281">
        <ele>990.29998779297</ele>
        <time>2011-06-18T06:25:48Z</time>
      </trkpt>
      <trkpt lat="43.91722" lon="7.22283">
        <ele>989.80999755859</ele>
        <time>2011-06-18T06:25:49Z</time>
      </trkpt>
      <trkpt lat="43.91726" lon="7.22313">
        <ele>987.40997314453</ele>
        <time>2011-06-18T06:26:00Z</time>
      </trkpt>
      <trkpt lat="43.91723" lon="7.22324">
        <ele>985.96997070312</ele>
        <time>2011-06-18T06:26:03Z</time>
      </trkpt>
      <trkpt lat="43.91713" lon="7.22362">
        <ele>984.04998779297</ele>
        <time>2011-06-18T06:26:13Z</time>
      </trkpt>
      <trkpt lat="43.91711" lon="7.22376">
        <ele>984.04998779297</ele>
        <time>2011-06-18T06:26:18Z</time>
      </trkpt>
      <trkpt lat="43.9171" lon="7.2238">
        <ele>985.01000976562</ele>
        <time>2011-06-18T06:26:20Z</time>
      </trkpt>
      <trkpt lat="43.91701" lon="7.22387">
        <ele>986.92999267578</ele>
        <time>2011-06-18T06:26:26Z</time>
      </trkpt>
      <trkpt lat="43.91673" lon="7.22384">
        <ele>989.33001708984</ele>
        <time>2011-06-18T06:26:38Z</time>
      </trkpt>
      <trkpt lat="43.91666" lon="7.22383">
        <ele>990.78002929688</ele>
        <time>2011-06-18T06:26:41Z</time>
      </trkpt>
      <trkpt lat="43.91654" lon="7.22384">
        <ele>992.70001220703</ele>
        <time>2011-06-18T06:26:47Z</time>
      </trkpt>
      <trkpt lat="43.91637" lon="7.22387">
        <ele>994.61999511719</ele>
        <time>2011-06-18T06:26:57Z</time>
      </trkpt>
      <trkpt lat="43.91626" lon="7.22397">
        <ele>994.14001464844</ele>
        <time>2011-06-18T06:27:04Z</time>
      </trkpt>
      <trkpt lat="43.91616" lon="7.22423">
        <ele>994.61999511719</ele>
        <time>2011-06-18T06:27:14Z</time>
      </trkpt>
      <trkpt lat="43.91596" lon="7.22436">
        <ele>991.26000976562</ele>
        <time>2011-06-18T06:27:23Z</time>
      </trkpt>
      <trkpt lat="43.91591" lon="7.22439">
        <ele>990.78002929688</ele>
        <time>2011-06-18T06:27:25Z</time>
      </trkpt>
      <trkpt lat="43.91578" lon="7.22466">
        <ele>987.89001464844</ele>
        <time>2011-06-18T06:27:34Z</time>
      </trkpt>
      <trkpt lat="43.91568" lon="7.22479">
        <ele>987.40997314453</ele>
        <time>2011-06-18T06:27:39Z</time>
      </trkpt>
      <trkpt lat="43.91565" lon="7.22489">
        <ele>987.40997314453</ele>
        <time>2011-06-18T06:27:42Z</time>
      </trkpt>
      <trkpt lat="43.91549" lon="7.22531">
        <ele>985.48999023438</ele>
        <time>2011-06-18T06:27:56Z</time>
      </trkpt>
      <trkpt lat="43.91538" lon="7.2255">
        <ele>985.48999023438</ele>
        <time>2011-06-18T06:28:03Z</time>
      </trkpt>
      <trkpt lat="43.91528" lon="7.22571">
        <ele>982.11999511719</ele>
        <time>2011-06-18T06:28:10Z</time>
      </trkpt>
      <trkpt lat="43.91524" lon="7.22576">
        <ele>982.11999511719</ele>
        <time>2011-06-18T06:28:12Z</time>
      </trkpt>
      <trkpt lat="43.91517" lon="7.22584">
        <ele>981.15997314453</ele>
        <time>2011-06-18T06:28:21Z</time>
      </trkpt>
      <trkpt lat="43.91517" lon="7.22586">
        <ele>981.64001464844</ele>
        <time>2011-06-18T06:28:28Z</time>
      </trkpt>
      <trkpt lat="43.91517" lon="7.22586">
        <ele>984.53002929688</ele>
        <time>2011-06-18T06:28:31Z</time>
      </trkpt>
      <trkpt lat="43.91517" lon="7.22586">
        <ele>980.67999267578</ele>
        <time>2011-06-18T06:28:32Z</time>
      </trkpt>
      <trkpt lat="43.91516" lon="7.22587">
        <ele>981.15997314453</ele>
        <time>2011-06-18T06:29:17Z</time>
      </trkpt>
      <trkpt lat="43.91516" lon="7.22587">
        <ele>981.15997314453</ele>
        <time>2011-06-18T06:29:36Z</time>
      </trkpt>
      <trkpt lat="43.91513" lon="7.22591">
        <ele>979.23999023438</ele>
        <time>2011-06-18T06:29:40Z</time>
      </trkpt>
      <trkpt lat="43.915" lon="7.22619">
        <ele>975.88000488281</ele>
        <time>2011-06-18T06:29:51Z</time>
      </trkpt>
      <trkpt lat="43.91497" lon="7.22632">
        <ele>973.46997070312</ele>
        <time>2011-06-18T06:29:57Z</time>
      </trkpt>
      <trkpt lat="43.91497" lon="7.2264">
        <ele>972.98999023438</ele>
        <time>2011-06-18T06:30:01Z</time>
      </trkpt>
      <trkpt lat="43.9149" lon="7.22655">
        <ele>970.59002685547</ele>
        <time>2011-06-18T06:30:07Z</time>
      </trkpt>
      <trkpt lat="43.91485" lon="7.22661">
        <ele>969.63000488281</ele>
        <time>2011-06-18T06:30:10Z</time>
      </trkpt>
      <trkpt lat="43.91471" lon="7.22674">
        <ele>967.70001220703</ele>
        <time>2011-06-18T06:30:20Z</time>
      </trkpt>
      <trkpt lat="43.9147" lon="7.22678">
        <ele>967.70001220703</ele>
        <time>2011-06-18T06:30:23Z</time>
      </trkpt>
      <trkpt lat="43.91467" lon="7.22684">
        <ele>968.66998291016</ele>
        <time>2011-06-18T06:30:29Z</time>
      </trkpt>
      <trkpt lat="43.91463" lon="7.22691">
        <ele>972.51000976562</ele>
        <time>2011-06-18T06:30:40Z</time>
      </trkpt>
      <trkpt lat="43.9146" lon="7.22695">
        <ele>972.98999023438</ele>
        <time>2011-06-18T06:30:45Z</time>
      </trkpt>
      <trkpt lat="43.91456" lon="7.22699">
        <ele>974.42999267578</ele>
        <time>2011-06-18T06:30:50Z</time>
      </trkpt>
      <trkpt lat="43.91455" lon="7.22709">
        <ele>975.88000488281</ele>
        <time>2011-06-18T06:30:55Z</time>
      </trkpt>
      <trkpt lat="43.91452" lon="7.22714">
        <ele>976.84002685547</ele>
        <time>2011-06-18T06:30:59Z</time>
      </trkpt>
      <trkpt lat="43.9145" lon="7.22734">
        <ele>978.76000976562</ele>
        <time>2011-06-18T06:31:12Z</time>
      </trkpt>
      <trkpt lat="43.91449" lon="7.22741">
        <ele>980.67999267578</ele>
        <time>2011-06-18T06:31:16Z</time>
      </trkpt>
      <trkpt lat="43.91447" lon="7.22747">
        <ele>980.67999267578</ele>
        <time>2011-06-18T06:31:21Z</time>
      </trkpt>
      <trkpt lat="43.91451" lon="7.22762">
        <ele>982.59997558594</ele>
        <time>2011-06-18T06:31:34Z</time>
      </trkpt>
      <trkpt lat="43.91453" lon="7.22764">
        <ele>982.59997558594</ele>
        <time>2011-06-18T06:31:43Z</time>
      </trkpt>
      <trkpt lat="43.91454" lon="7.22772">
        <ele>985.48999023438</ele>
        <time>2011-06-18T06:31:53Z</time>
      </trkpt>
      <trkpt lat="43.91456" lon="7.22785">
        <ele>989.33001708984</ele>
        <time>2011-06-18T06:32:04Z</time>
      </trkpt>
      <trkpt lat="43.91457" lon="7.22791">
        <ele>989.33001708984</ele>
        <time>2011-06-18T06:32:08Z</time>
      </trkpt>
      <trkpt lat="43.91463" lon="7.22818">
        <ele>988.84997558594</ele>
        <time>2011-06-18T06:32:24Z</time>
      </trkpt>
      <trkpt lat="43.91466" lon="7.22822">
        <ele>989.33001708984</ele>
        <time>2011-06-18T06:32:27Z</time>
      </trkpt>
      <trkpt lat="43.91467" lon="7.22825">
        <ele>990.29998779297</ele>
        <time>2011-06-18T06:32:29Z</time>
      </trkpt>
      <trkpt lat="43.91467" lon="7.22826">
        <ele>991.26000976562</ele>
        <time>2011-06-18T06:32:30Z</time>
      </trkpt>
      <trkpt lat="43.91474" lon="7.22847">
        <ele>992.21997070312</ele>
        <time>2011-06-18T06:32:44Z</time>
      </trkpt>
      <trkpt lat="43.91475" lon="7.22856">
        <ele>994.61999511719</ele>
        <time>2011-06-18T06:32:58Z</time>
      </trkpt>
      <trkpt lat="43.91476" lon="7.2286">
        <ele>994.61999511719</ele>
        <time>2011-06-18T06:33:01Z</time>
      </trkpt>
      <trkpt lat="43.91489" lon="7.22882">
        <ele>997.02001953125</ele>
        <time>2011-06-18T06:33:18Z</time>
      </trkpt>
      <trkpt lat="43.91496" lon="7.22893">
        <ele>997.51000976562</ele>
        <time>2011-06-18T06:33:32Z</time>
      </trkpt>
      <trkpt lat="43.91497" lon="7.22895">
        <ele>997.51000976562</ele>
        <time>2011-06-18T06:33:35Z</time>
      </trkpt>
      <trkpt lat="43.91496" lon="7.22904">
        <ele>1000.8699951172</ele>
        <time>2011-06-18T06:33:50Z</time>
      </trkpt>
      <trkpt lat="43.91494" lon="7.22909">
        <ele>1000.8699951172</ele>
        <time>2011-06-18T06:33:54Z</time>
      </trkpt>
      <trkpt lat="43.91488" lon="7.22911">
        <ele>1002.3099975586</ele>
        <time>2011-06-18T06:33:59Z</time>
      </trkpt>
      <trkpt lat="43.91481" lon="7.22928">
        <ele>1005.200012207</ele>
        <time>2011-06-18T06:34:12Z</time>
      </trkpt>
      <trkpt lat="43.91484" lon="7.22956">
        <ele>1006.1599731445</ele>
        <time>2011-06-18T06:34:25Z</time>
      </trkpt>
      <trkpt lat="43.91486" lon="7.22964">
        <ele>1006.6400146484</ele>
        <time>2011-06-18T06:34:28Z</time>
      </trkpt>
      <trkpt lat="43.91493" lon="7.22983">
        <ele>1009.0399780273</ele>
        <time>2011-06-18T06:34:40Z</time>
      </trkpt>
      <trkpt lat="43.91497" lon="7.22992">
        <ele>1009.5200195312</ele>
        <time>2011-06-18T06:34:44Z</time>
      </trkpt>
      <trkpt lat="43.91501" lon="7.23003">
        <ele>1012.4099731445</ele>
        <time>2011-06-18T06:34:52Z</time>
      </trkpt>
      <trkpt lat="43.91501" lon="7.23019">
        <ele>1016.25</ele>
        <time>2011-06-18T06:35:05Z</time>
      </trkpt>
      <trkpt lat="43.91502" lon="7.2303">
        <ele>1018.1699829102</ele>
        <time>2011-06-18T06:35:16Z</time>
      </trkpt>
      <trkpt lat="43.91501" lon="7.23035">
        <ele>1019.6199951172</ele>
        <time>2011-06-18T06:35:19Z</time>
      </trkpt>
      <trkpt lat="43.91501" lon="7.23038">
        <ele>1019.6199951172</ele>
        <time>2011-06-18T06:35:21Z</time>
      </trkpt>
      <trkpt lat="43.91502" lon="7.23043">
        <ele>1020.0999755859</ele>
        <time>2011-06-18T06:35:24Z</time>
      </trkpt>
      <trkpt lat="43.91504" lon="7.23049">
        <ele>1020.0999755859</ele>
        <time>2011-06-18T06:35:28Z</time>
      </trkpt>
      <trkpt lat="43.91506" lon="7.23047">
        <ele>1021.0599975586</ele>
        <time>2011-06-18T06:35:31Z</time>
      </trkpt>
      <trkpt lat="43.9151" lon="7.23046">
        <ele>1021.5399780273</ele>
        <time>2011-06-18T06:35:35Z</time>
      </trkpt>
      <trkpt lat="43.91515" lon="7.23048">
        <ele>1022.0200195312</ele>
        <time>2011-06-18T06:35:39Z</time>
      </trkpt>
      <trkpt lat="43.91518" lon="7.23047">
        <ele>1023.4600219727</ele>
        <time>2011-06-18T06:35:41Z</time>
      </trkpt>
      <trkpt lat="43.91523" lon="7.23043">
        <ele>1023.9400024414</ele>
        <time>2011-06-18T06:35:45Z</time>
      </trkpt>
      <trkpt lat="43.91535" lon="7.23046">
        <ele>1026.8299560547</ele>
        <time>2011-06-18T06:35:57Z</time>
      </trkpt>
      <trkpt lat="43.91543" lon="7.23051">
        <ele>1027.7900390625</ele>
        <time>2011-06-18T06:36:04Z</time>
      </trkpt>
      <trkpt lat="43.91552" lon="7.23054">
        <ele>1030.1899414062</ele>
        <time>2011-06-18T06:36:11Z</time>
      </trkpt>
      <trkpt lat="43.91563" lon="7.23059">
        <ele>1032.5899658203</ele>
        <time>2011-06-18T06:36:23Z</time>
      </trkpt>
      <trkpt lat="43.91569" lon="7.23059">
        <ele>1033.5500488281</ele>
        <time>2011-06-18T06:36:28Z</time>
      </trkpt>
      <trkpt lat="43.91571" lon="7.23059">
        <ele>1034.5200195312</ele>
        <time>2011-06-18T06:36:30Z</time>
      </trkpt>
      <trkpt lat="43.91584" lon="7.2306">
        <ele>1037.8800048828</ele>
        <time>2011-06-18T06:36:42Z</time>
      </trkpt>
      <trkpt lat="43.91589" lon="7.23064">
        <ele>1039.8000488281</ele>
        <time>2011-06-18T06:36:48Z</time>
      </trkpt>
      <trkpt lat="43.91591" lon="7.23067">
        <ele>1040.7600097656</ele>
        <time>2011-06-18T06:36:51Z</time>
      </trkpt>
      <trkpt lat="43.91596" lon="7.23078">
        <ele>1042.2099609375</ele>
        <time>2011-06-18T06:36:59Z</time>
      </trkpt>
      <trkpt lat="43.91616" lon="7.2308">
        <ele>1044.6099853516</ele>
        <time>2011-06-18T06:37:15Z</time>
      </trkpt>
      <trkpt lat="43.91622" lon="7.23083">
        <ele>1045.5699462891</ele>
        <time>2011-06-18T06:37:20Z</time>
      </trkpt>
      <trkpt lat="43.91628" lon="7.23091">
        <ele>1046.0500488281</ele>
        <time>2011-06-18T06:37:27Z</time>
      </trkpt>
      <trkpt lat="43.91624" lon="7.2311">
        <ele>1050.8599853516</ele>
        <time>2011-06-18T06:37:39Z</time>
      </trkpt>
      <trkpt lat="43.91624" lon="7.23117">
        <ele>1050.3800048828</ele>
        <time>2011-06-18T06:37:53Z</time>
      </trkpt>
      <trkpt lat="43.91624" lon="7.23115">
        <ele>1049.9000244141</ele>
        <time>2011-06-18T06:38:08Z</time>
      </trkpt>
      <trkpt lat="43.91624" lon="7.23115">
        <ele>1051.8199462891</ele>
        <time>2011-06-18T06:38:11Z</time>
      </trkpt>
      <trkpt lat="43.91624" lon="7.23115">
        <ele>1048.9399414062</ele>
        <time>2011-06-18T06:38:12Z</time>
      </trkpt>
      <trkpt lat="43.91624" lon="7.23115">
        <ele>1053.2600097656</ele>
        <time>2011-06-18T06:38:31Z</time>
      </trkpt>
      <trkpt lat="43.91625" lon="7.23116">
        <ele>1051.3399658203</ele>
        <time>2011-06-18T06:39:07Z</time>
      </trkpt>
      <trkpt lat="43.91625" lon="7.23114">
        <ele>1051.3399658203</ele>
        <time>2011-06-18T06:39:25Z</time>
      </trkpt>
      <trkpt lat="43.91625" lon="7.23111">
        <ele>1049.4200439453</ele>
        <time>2011-06-18T06:39:28Z</time>
      </trkpt>
      <trkpt lat="43.91627" lon="7.23102">
        <ele>1047.9699707031</ele>
        <time>2011-06-18T06:39:33Z</time>
      </trkpt>
      <trkpt lat="43.91632" lon="7.23088">
        <ele>1046.0500488281</ele>
        <time>2011-06-18T06:39:39Z</time>
      </trkpt>
      <trkpt lat="43.91644" lon="7.2309">
        <ele>1041.7299804688</ele>
        <time>2011-06-18T06:39:45Z</time>
      </trkpt>
      <trkpt lat="43.9166" lon="7.23085">
        <ele>1038.3599853516</ele>
        <time>2011-06-18T06:39:51Z</time>
      </trkpt>
      <trkpt lat="43.91667" lon="7.23078">
        <ele>1036.9200439453</ele>
        <time>2011-06-18T06:39:54Z</time>
      </trkpt>
      <trkpt lat="43.91678" lon="7.23063">
        <ele>1035</ele>
        <time>2011-06-18T06:39:59Z</time>
      </trkpt>
      <trkpt lat="43.91687" lon="7.23051">
        <ele>1032.5899658203</ele>
        <time>2011-06-18T06:40:03Z</time>
      </trkpt>
      <trkpt lat="43.91696" lon="7.23042">
        <ele>1030.6700439453</ele>
        <time>2011-06-18T06:40:07Z</time>
      </trkpt>
      <trkpt lat="43.91711" lon="7.23036">
        <ele>1027.3100585938</ele>
        <time>2011-06-18T06:40:13Z</time>
      </trkpt>
      <trkpt lat="43.91714" lon="7.23036">
        <ele>1027.7900390625</ele>
        <time>2011-06-18T06:40:14Z</time>
      </trkpt>
      <trkpt lat="43.91728" lon="7.23034">
        <ele>1023.9400024414</ele>
        <time>2011-06-18T06:40:19Z</time>
      </trkpt>
      <trkpt lat="43.91731" lon="7.23034">
        <ele>1023.9400024414</ele>
        <time>2011-06-18T06:40:20Z</time>
      </trkpt>
      <trkpt lat="43.91748" lon="7.23037">
        <ele>1020.5800170898</ele>
        <time>2011-06-18T06:40:26Z</time>
      </trkpt>
      <trkpt lat="43.91758" lon="7.23037">
        <ele>1019.1300048828</ele>
        <time>2011-06-18T06:40:29Z</time>
      </trkpt>
      <trkpt lat="43.91785" lon="7.23058">
        <ele>1016.25</ele>
        <time>2011-06-18T06:40:39Z</time>
      </trkpt>
      <trkpt lat="43.91789" lon="7.23065">
        <ele>1015.2899780273</ele>
        <time>2011-06-18T06:40:41Z</time>
      </trkpt>
      <trkpt lat="43.91791" lon="7.23072">
        <ele>1013.8499755859</ele>
        <time>2011-06-18T06:40:43Z</time>
      </trkpt>
      <trkpt lat="43.91792" lon="7.23083">
        <ele>1013.3699951172</ele>
        <time>2011-06-18T06:40:46Z</time>
      </trkpt>
      <trkpt lat="43.91793" lon="7.23091">
        <ele>1012.8900146484</ele>
        <time>2011-06-18T06:40:48Z</time>
      </trkpt>
      <trkpt lat="43.91808" lon="7.23116">
        <ele>1011.4400024414</ele>
        <time>2011-06-18T06:40:56Z</time>
      </trkpt>
      <trkpt lat="43.91813" lon="7.23141">
        <ele>1009.0399780273</ele>
        <time>2011-06-18T06:41:03Z</time>
      </trkpt>
      <trkpt lat="43.91816" lon="7.23149">
        <ele>1007.5999755859</ele>
        <time>2011-06-18T06:41:06Z</time>
      </trkpt>
      <trkpt lat="43.9183" lon="7.2316">
        <ele>1004.7199707031</ele>
        <time>2011-06-18T06:41:11Z</time>
      </trkpt>
      <trkpt lat="43.91843" lon="7.23178">
        <ele>1001.3499755859</ele>
        <time>2011-06-18T06:41:16Z</time>
      </trkpt>
      <trkpt lat="43.91846" lon="7.23182">
        <ele>1001.3499755859</ele>
        <time>2011-06-18T06:41:17Z</time>
      </trkpt>
      <trkpt lat="43.91858" lon="7.23194">
        <ele>998.46997070312</ele>
        <time>2011-06-18T06:41:22Z</time>
      </trkpt>
      <trkpt lat="43.9186" lon="7.23195">
        <ele>998.46997070312</ele>
        <time>2011-06-18T06:41:23Z</time>
      </trkpt>
      <trkpt lat="43.91875" lon="7.23203">
        <ele>995.58001708984</ele>
        <time>2011-06-18T06:41:29Z</time>
      </trkpt>
      <trkpt lat="43.91877" lon="7.23206">
        <ele>995.58001708984</ele>
        <time>2011-06-18T06:41:30Z</time>
      </trkpt>
      <trkpt lat="43.9188" lon="7.23212">
        <ele>994.14001464844</ele>
        <time>2011-06-18T06:41:32Z</time>
      </trkpt>
      <trkpt lat="43.91882" lon="7.23228">
        <ele>992.70001220703</ele>
        <time>2011-06-18T06:41:36Z</time>
      </trkpt>
      <trkpt lat="43.91881" lon="7.23236">
        <ele>990.29998779297</ele>
        <time>2011-06-18T06:41:38Z</time>
      </trkpt>
      <trkpt lat="43.91874" lon="7.23268">
        <ele>987.40997314453</ele>
        <time>2011-06-18T06:41:47Z</time>
      </trkpt>
      <trkpt lat="43.91853" lon="7.23288">
        <ele>984.53002929688</ele>
        <time>2011-06-18T06:41:56Z</time>
      </trkpt>
      <trkpt lat="43.91844" lon="7.23292">
        <ele>982.59997558594</ele>
        <time>2011-06-18T06:42:00Z</time>
      </trkpt>
      <trkpt lat="43.91844" lon="7.23297">
        <ele>982.11999511719</ele>
        <time>2011-06-18T06:42:02Z</time>
      </trkpt>
      <trkpt lat="43.91861" lon="7.23321">
        <ele>978.28002929688</ele>
        <time>2011-06-18T06:42:10Z</time>
      </trkpt>
      <trkpt lat="43.9187" lon="7.23332">
        <ele>975.39001464844</ele>
        <time>2011-06-18T06:42:14Z</time>
      </trkpt>
      <trkpt lat="43.91877" lon="7.23345">
        <ele>973.46997070312</ele>
        <time>2011-06-18T06:42:18Z</time>
      </trkpt>
      <trkpt lat="43.91883" lon="7.23356">
        <ele>971.54998779297</ele>
        <time>2011-06-18T06:42:22Z</time>
      </trkpt>
      <trkpt lat="43.91887" lon="7.23361">
        <ele>969.63000488281</ele>
        <time>2011-06-18T06:42:24Z</time>
      </trkpt>
      <trkpt lat="43.91901" lon="7.23368">
        <ele>966.73999023438</ele>
        <time>2011-06-18T06:42:30Z</time>
      </trkpt>
      <trkpt lat="43.91909" lon="7.23373">
        <ele>964.82000732422</ele>
        <time>2011-06-18T06:42:33Z</time>
      </trkpt>
      <trkpt lat="43.91917" lon="7.23378">
        <ele>962.90002441406</ele>
        <time>2011-06-18T06:42:36Z</time>
      </trkpt>
      <trkpt lat="43.91933" lon="7.23386">
        <ele>960.01000976562</ele>
        <time>2011-06-18T06:42:43Z</time>
      </trkpt>
      <trkpt lat="43.91945" lon="7.23392">
        <ele>957.60998535156</ele>
        <time>2011-06-18T06:42:48Z</time>
      </trkpt>
      <trkpt lat="43.91947" lon="7.23395">
        <ele>956.65002441406</ele>
        <time>2011-06-18T06:42:49Z</time>
      </trkpt>
      <trkpt lat="43.91955" lon="7.23407">
        <ele>954.25</ele>
        <time>2011-06-18T06:42:53Z</time>
      </trkpt>
      <trkpt lat="43.91959" lon="7.23412">
        <ele>953.77001953125</ele>
        <time>2011-06-18T06:42:58Z</time>
      </trkpt>
      <trkpt lat="43.91945" lon="7.23414">
        <ele>950.88000488281</ele>
        <time>2011-06-18T06:43:05Z</time>
      </trkpt>
      <trkpt lat="43.91933" lon="7.23417">
        <ele>948.96002197266</ele>
        <time>2011-06-18T06:43:09Z</time>
      </trkpt>
      <trkpt lat="43.91919" lon="7.2342">
        <ele>945.59002685547</ele>
        <time>2011-06-18T06:43:14Z</time>
      </trkpt>
      <trkpt lat="43.91905" lon="7.23423">
        <ele>942.22998046875</ele>
        <time>2011-06-18T06:43:18Z</time>
      </trkpt>
      <trkpt lat="43.91901" lon="7.23425">
        <ele>942.22998046875</ele>
        <time>2011-06-18T06:43:19Z</time>
      </trkpt>
      <trkpt lat="43.91895" lon="7.23428">
        <ele>940.78997802734</ele>
        <time>2011-06-18T06:43:21Z</time>
      </trkpt>
      <trkpt lat="43.91889" lon="7.23431">
        <ele>939.83001708984</ele>
        <time>2011-06-18T06:43:23Z</time>
      </trkpt>
      <trkpt lat="43.91894" lon="7.23439">
        <ele>937.90002441406</ele>
        <time>2011-06-18T06:43:29Z</time>
      </trkpt>
      <trkpt lat="43.9191" lon="7.23452">
        <ele>934.05999755859</ele>
        <time>2011-06-18T06:43:35Z</time>
      </trkpt>
      <trkpt lat="43.91925" lon="7.23459">
        <ele>931.16998291016</ele>
        <time>2011-06-18T06:43:40Z</time>
      </trkpt>
      <trkpt lat="43.9194" lon="7.2347">
        <ele>928.77001953125</ele>
        <time>2011-06-18T06:43:46Z</time>
      </trkpt>
      <trkpt lat="43.91948" lon="7.23477">
        <ele>926.36999511719</ele>
        <time>2011-06-18T06:43:49Z</time>
      </trkpt>
      <trkpt lat="43.91961" lon="7.23489">
        <ele>924.92999267578</ele>
        <time>2011-06-18T06:43:54Z</time>
      </trkpt>
      <trkpt lat="43.91983" lon="7.23506">
        <ele>920.59997558594</ele>
        <time>2011-06-18T06:44:02Z</time>
      </trkpt>
      <trkpt lat="43.91994" lon="7.23517">
        <ele>918.20001220703</ele>
        <time>2011-06-18T06:44:07Z</time>
      </trkpt>
      <trkpt lat="43.92006" lon="7.23525">
        <ele>915.30999755859</ele>
        <time>2011-06-18T06:44:12Z</time>
      </trkpt>
      <trkpt lat="43.92015" lon="7.2353">
        <ele>913.86999511719</ele>
        <time>2011-06-18T06:44:15Z</time>
      </trkpt>
      <trkpt lat="43.92028" lon="7.23541">
        <ele>911.95001220703</ele>
        <time>2011-06-18T06:44:20Z</time>
      </trkpt>
      <trkpt lat="43.92039" lon="7.23548">
        <ele>910.98999023438</ele>
        <time>2011-06-18T06:44:30Z</time>
      </trkpt>
      <trkpt lat="43.9204" lon="7.23545">
        <ele>910.51000976562</ele>
        <time>2011-06-18T06:44:47Z</time>
      </trkpt>
      <trkpt lat="43.92041" lon="7.23545">
        <ele>911.46997070312</ele>
        <time>2011-06-18T06:45:02Z</time>
      </trkpt>
      <trkpt lat="43.92042" lon="7.23547">
        <ele>910.98999023438</ele>
        <time>2011-06-18T06:45:34Z</time>
      </trkpt>
      <trkpt lat="43.92042" lon="7.23548">
        <ele>910.98999023438</ele>
        <time>2011-06-18T06:46:30Z</time>
      </trkpt>
      <trkpt lat="43.92041" lon="7.23552">
        <ele>911.46997070312</ele>
        <time>2011-06-18T06:47:07Z</time>
      </trkpt>
      <trkpt lat="43.92041" lon="7.23554">
        <ele>910.51000976562</ele>
        <time>2011-06-18T06:47:32Z</time>
      </trkpt>
      <trkpt lat="43.92043" lon="7.23558">
        <ele>910.98999023438</ele>
        <time>2011-06-18T06:48:15Z</time>
      </trkpt>
      <trkpt lat="43.92044" lon="7.23562">
        <ele>910.98999023438</ele>
        <time>2011-06-18T06:48:20Z</time>
      </trkpt>
      <trkpt lat="43.92045" lon="7.23567">
        <ele>911.46997070312</ele>
        <time>2011-06-18T06:48:25Z</time>
      </trkpt>
      <trkpt lat="43.92047" lon="7.2358">
        <ele>910.03002929688</ele>
        <time>2011-06-18T06:48:37Z</time>
      </trkpt>
      <trkpt lat="43.92047" lon="7.23587">
        <ele>910.98999023438</ele>
        <time>2011-06-18T06:48:41Z</time>
      </trkpt>
      <trkpt lat="43.92047" lon="7.23594">
        <ele>909.53997802734</ele>
        <time>2011-06-18T06:48:46Z</time>
      </trkpt>
      <trkpt lat="43.92049" lon="7.23601">
        <ele>910.03002929688</ele>
        <time>2011-06-18T06:48:52Z</time>
      </trkpt>
      <trkpt lat="43.92052" lon="7.23607">
        <ele>910.98999023438</ele>
        <time>2011-06-18T06:48:57Z</time>
      </trkpt>
      <trkpt lat="43.92055" lon="7.23614">
        <ele>910.98999023438</ele>
        <time>2011-06-18T06:49:01Z</time>
      </trkpt>
      <trkpt lat="43.92048" lon="7.23655">
        <ele>909.53997802734</ele>
        <time>2011-06-18T06:49:14Z</time>
      </trkpt>
      <trkpt lat="43.92039" lon="7.23683">
        <ele>909.53997802734</ele>
        <time>2011-06-18T06:49:25Z</time>
      </trkpt>
      <trkpt lat="43.92037" lon="7.2371">
        <ele>910.03002929688</ele>
        <time>2011-06-18T06:49:35Z</time>
      </trkpt>
      <trkpt lat="43.9204" lon="7.23748">
        <ele>909.53997802734</ele>
        <time>2011-06-18T06:49:47Z</time>
      </trkpt>
      <trkpt lat="43.92046" lon="7.23789">
        <ele>909.53997802734</ele>
        <time>2011-06-18T06:50:00Z</time>
      </trkpt>
      <trkpt lat="43.92033" lon="7.23819">
        <ele>910.51000976562</ele>
        <time>2011-06-18T06:50:13Z</time>
      </trkpt>
      <trkpt lat="43.9203" lon="7.23832">
        <ele>910.03002929688</ele>
        <time>2011-06-18T06:50:20Z</time>
      </trkpt>
      <trkpt lat="43.92038" lon="7.2385">
        <ele>907.14001464844</ele>
        <time>2011-06-18T06:50:26Z</time>
      </trkpt>
      <trkpt lat="43.9204" lon="7.23853">
        <ele>907.61999511719</ele>
        <time>2011-06-18T06:50:27Z</time>
      </trkpt>
      <trkpt lat="43.92052" lon="7.23877">
        <ele>906.17999267578</ele>
        <time>2011-06-18T06:50:34Z</time>
      </trkpt>
      <trkpt lat="43.92055" lon="7.23885">
        <ele>905.21997070312</ele>
        <time>2011-06-18T06:50:36Z</time>
      </trkpt>
      <trkpt lat="43.92073" lon="7.23899">
        <ele>901.84997558594</ele>
        <time>2011-06-18T06:50:43Z</time>
      </trkpt>
      <trkpt lat="43.92102" lon="7.23897">
        <ele>898.96997070312</ele>
        <time>2011-06-18T06:50:51Z</time>
      </trkpt>
      <trkpt lat="43.92105" lon="7.23894">
        <ele>898.01000976562</ele>
        <time>2011-06-18T06:50:52Z</time>
      </trkpt>
      <trkpt lat="43.9212" lon="7.23889">
        <ele>896.09002685547</ele>
        <time>2011-06-18T06:50:56Z</time>
      </trkpt>
      <trkpt lat="43.92135" lon="7.23914">
        <ele>894.15997314453</ele>
        <time>2011-06-18T06:51:03Z</time>
      </trkpt>
      <trkpt lat="43.92141" lon="7.23967">
        <ele>893.67999267578</ele>
        <time>2011-06-18T06:51:16Z</time>
      </trkpt>
      <trkpt lat="43.92138" lon="7.24007">
        <ele>896.09002685547</ele>
        <time>2011-06-18T06:51:27Z</time>
      </trkpt>
      <trkpt lat="43.92133" lon="7.24047">
        <ele>896.09002685547</ele>
        <time>2011-06-18T06:51:38Z</time>
      </trkpt>
      <trkpt lat="43.92115" lon="7.24082">
        <ele>894.64001464844</ele>
        <time>2011-06-18T06:51:48Z</time>
      </trkpt>
      <trkpt lat="43.92085" lon="7.24107">
        <ele>894.64001464844</ele>
        <time>2011-06-18T06:52:01Z</time>
      </trkpt>
      <trkpt lat="43.92077" lon="7.2415">
        <ele>891.76000976562</ele>
        <time>2011-06-18T06:52:11Z</time>
      </trkpt>
      <trkpt lat="43.92071" lon="7.24186">
        <ele>892.23999023438</ele>
        <time>2011-06-18T06:52:21Z</time>
      </trkpt>
      <trkpt lat="43.92066" lon="7.242">
        <ele>890.32000732422</ele>
        <time>2011-06-18T06:52:30Z</time>
      </trkpt>
      <trkpt lat="43.92035" lon="7.24213">
        <ele>890.79998779297</ele>
        <time>2011-06-18T06:52:40Z</time>
      </trkpt>
      <trkpt lat="43.92013" lon="7.24218">
        <ele>889.84002685547</ele>
        <time>2011-06-18T06:52:48Z</time>
      </trkpt>
      <trkpt lat="43.92002" lon="7.24234">
        <ele>887.90997314453</ele>
        <time>2011-06-18T06:52:54Z</time>
      </trkpt>
      <trkpt lat="43.91994" lon="7.24241">
        <ele>886.95001220703</ele>
        <time>2011-06-18T06:52:58Z</time>
      </trkpt>
      <trkpt lat="43.91978" lon="7.24233">
        <ele>884.07000732422</ele>
        <time>2011-06-18T06:53:04Z</time>
      </trkpt>
      <trkpt lat="43.91974" lon="7.2423">
        <ele>883.59002685547</ele>
        <time>2011-06-18T06:53:06Z</time>
      </trkpt>
      <trkpt lat="43.91971" lon="7.24232">
        <ele>882.15002441406</ele>
        <time>2011-06-18T06:53:09Z</time>
      </trkpt>
      <trkpt lat="43.91983" lon="7.24254">
        <ele>878.78002929688</ele>
        <time>2011-06-18T06:53:16Z</time>
      </trkpt>
      <trkpt lat="43.91986" lon="7.24257">
        <ele>878.78002929688</ele>
        <time>2011-06-18T06:53:17Z</time>
      </trkpt>
      <trkpt lat="43.92" lon="7.24268">
        <ele>875.41998291016</ele>
        <time>2011-06-18T06:53:23Z</time>
      </trkpt>
      <trkpt lat="43.92027" lon="7.24281">
        <ele>871.57000732422</ele>
        <time>2011-06-18T06:53:33Z</time>
      </trkpt>
      <trkpt lat="43.92029" lon="7.24283">
        <ele>871.09002685547</ele>
        <time>2011-06-18T06:53:34Z</time>
      </trkpt>
      <trkpt lat="43.92045" lon="7.24309">
        <ele>867.25</ele>
        <time>2011-06-18T06:53:42Z</time>
      </trkpt>
      <trkpt lat="43.92047" lon="7.24312">
        <ele>867.25</ele>
        <time>2011-06-18T06:53:43Z</time>
      </trkpt>
      <trkpt lat="43.92056" lon="7.24347">
        <ele>863.40002441406</ele>
        <time>2011-06-18T06:53:53Z</time>
      </trkpt>
      <trkpt lat="43.92058" lon="7.2436">
        <ele>862.44000244141</ele>
        <time>2011-06-18T06:53:58Z</time>
      </trkpt>
      <trkpt lat="43.92059" lon="7.24365">
        <ele>861</ele>
        <time>2011-06-18T06:54:00Z</time>
      </trkpt>
      <trkpt lat="43.92046" lon="7.24388">
        <ele>857.63000488281</ele>
        <time>2011-06-18T06:54:07Z</time>
      </trkpt>
      <trkpt lat="43.92044" lon="7.24391">
        <ele>857.15002441406</ele>
        <time>2011-06-18T06:54:08Z</time>
      </trkpt>
      <trkpt lat="43.92038" lon="7.24399">
        <ele>855.22998046875</ele>
        <time>2011-06-18T06:54:11Z</time>
      </trkpt>
      <trkpt lat="43.92031" lon="7.24412">
        <ele>851.86999511719</ele>
        <time>2011-06-18T06:54:16Z</time>
      </trkpt>
      <trkpt lat="43.92029" lon="7.24418">
        <ele>850.90002441406</ele>
        <time>2011-06-18T06:54:18Z</time>
      </trkpt>
      <trkpt lat="43.92013" lon="7.2445">
        <ele>848.02001953125</ele>
        <time>2011-06-18T06:54:27Z</time>
      </trkpt>
      <trkpt lat="43.91999" lon="7.24464">
        <ele>845.14001464844</ele>
        <time>2011-06-18T06:54:32Z</time>
      </trkpt>
      <trkpt lat="43.91985" lon="7.24474">
        <ele>841.77001953125</ele>
        <time>2011-06-18T06:54:38Z</time>
      </trkpt>
      <trkpt lat="43.91975" lon="7.24478">
        <ele>839.36999511719</ele>
        <time>2011-06-18T06:54:42Z</time>
      </trkpt>
      <trkpt lat="43.91946" lon="7.24491">
        <ele>835.52001953125</ele>
        <time>2011-06-18T06:54:52Z</time>
      </trkpt>
      <trkpt lat="43.91935" lon="7.24508">
        <ele>832.64001464844</ele>
        <time>2011-06-18T06:54:57Z</time>
      </trkpt>
      <trkpt lat="43.9193" lon="7.24514">
        <ele>831.20001220703</ele>
        <time>2011-06-18T06:54:59Z</time>
      </trkpt>
      <trkpt lat="43.9192" lon="7.24521">
        <ele>828.30999755859</ele>
        <time>2011-06-18T06:55:03Z</time>
      </trkpt>
      <trkpt lat="43.91917" lon="7.24522">
        <ele>828.30999755859</ele>
        <time>2011-06-18T06:55:04Z</time>
      </trkpt>
      <trkpt lat="43.91904" lon="7.24524">
        <ele>824.95001220703</ele>
        <time>2011-06-18T06:55:09Z</time>
      </trkpt>
      <trkpt lat="43.91902" lon="7.24524">
        <ele>824.95001220703</ele>
        <time>2011-06-18T06:55:10Z</time>
      </trkpt>
      <trkpt lat="43.9189" lon="7.24528">
        <ele>822.54998779297</ele>
        <time>2011-06-18T06:55:15Z</time>
      </trkpt>
      <trkpt lat="43.91883" lon="7.2453">
        <ele>821.58001708984</ele>
        <time>2011-06-18T06:55:19Z</time>
      </trkpt>
      <trkpt lat="43.9188" lon="7.24529">
        <ele>821.58001708984</ele>
        <time>2011-06-18T06:55:21Z</time>
      </trkpt>
      <trkpt lat="43.9187" lon="7.24534">
        <ele>821.58001708984</ele>
        <time>2011-06-18T06:55:36Z</time>
      </trkpt>
      <trkpt lat="43.91869" lon="7.24535">
        <ele>821.58001708984</ele>
        <time>2011-06-18T06:55:57Z</time>
      </trkpt>
      <trkpt lat="43.91869" lon="7.24534">
        <ele>822.54998779297</ele>
        <time>2011-06-18T06:56:14Z</time>
      </trkpt>
      <trkpt lat="43.91872" lon="7.24535">
        <ele>822.54998779297</ele>
        <time>2011-06-18T06:57:07Z</time>
      </trkpt>
      <trkpt lat="43.9187" lon="7.24537">
        <ele>821.58001708984</ele>
        <time>2011-06-18T06:57:15Z</time>
      </trkpt>
      <trkpt lat="43.91849" lon="7.24559">
        <ele>821.58001708984</ele>
        <time>2011-06-18T06:57:34Z</time>
      </trkpt>
      <trkpt lat="43.91838" lon="7.24589">
        <ele>818.21997070312</ele>
        <time>2011-06-18T06:57:49Z</time>
      </trkpt>
      <trkpt lat="43.91817" lon="7.24616">
        <ele>820.61999511719</ele>
        <time>2011-06-18T06:58:01Z</time>
      </trkpt>
      <trkpt lat="43.91805" lon="7.24633">
        <ele>821.09997558594</ele>
        <time>2011-06-18T06:58:09Z</time>
      </trkpt>
      <trkpt lat="43.91804" lon="7.24636">
        <ele>822.05999755859</ele>
        <time>2011-06-18T06:58:11Z</time>
      </trkpt>
      <trkpt lat="43.91787" lon="7.2467">
        <ele>820.61999511719</ele>
        <time>2011-06-18T06:58:24Z</time>
      </trkpt>
      <trkpt lat="43.91776" lon="7.24698">
        <ele>817.73999023438</ele>
        <time>2011-06-18T06:58:33Z</time>
      </trkpt>
      <trkpt lat="43.9176" lon="7.2471">
        <ele>816.78002929688</ele>
        <time>2011-06-18T06:58:41Z</time>
      </trkpt>
      <trkpt lat="43.91737" lon="7.24734">
        <ele>814.36999511719</ele>
        <time>2011-06-18T06:58:51Z</time>
      </trkpt>
      <trkpt lat="43.91727" lon="7.24736">
        <ele>812.45001220703</ele>
        <time>2011-06-18T06:58:55Z</time>
      </trkpt>
      <trkpt lat="43.91725" lon="7.24737">
        <ele>812.92999267578</ele>
        <time>2011-06-18T06:58:56Z</time>
      </trkpt>
      <trkpt lat="43.91712" lon="7.24747">
        <ele>810.04998779297</ele>
        <time>2011-06-18T06:59:02Z</time>
      </trkpt>
      <trkpt lat="43.91703" lon="7.24758">
        <ele>809.57000732422</ele>
        <time>2011-06-18T06:59:12Z</time>
      </trkpt>
      <trkpt lat="43.91697" lon="7.2476">
        <ele>809.57000732422</ele>
        <time>2011-06-18T06:59:30Z</time>
      </trkpt>
      <trkpt lat="43.91696" lon="7.24761">
        <ele>809.57000732422</ele>
        <time>2011-06-18T06:59:35Z</time>
      </trkpt>
      <trkpt lat="43.917" lon="7.24761">
        <ele>809.09002685547</ele>
        <time>2011-06-18T07:07:09Z</time>
      </trkpt>
      <trkpt lat="43.91695" lon="7.24765">
        <ele>809.57000732422</ele>
        <time>2011-06-18T07:07:27Z</time>
      </trkpt>
      <trkpt lat="43.91693" lon="7.24765">
        <ele>810.04998779297</ele>
        <time>2011-06-18T07:07:49Z</time>
      </trkpt>
      <trkpt lat="43.91689" lon="7.24767">
        <ele>810.04998779297</ele>
        <time>2011-06-18T07:07:55Z</time>
      </trkpt>
      <trkpt lat="43.91687" lon="7.24771">
        <ele>810.04998779297</ele>
        <time>2011-06-18T07:07:59Z</time>
      </trkpt>
      <trkpt lat="43.91684" lon="7.2477">
        <ele>809.57000732422</ele>
        <time>2011-06-18T07:08:02Z</time>
      </trkpt>
      <trkpt lat="43.91675" lon="7.24766">
        <ele>809.57000732422</ele>
        <time>2011-06-18T07:08:09Z</time>
      </trkpt>
      <trkpt lat="43.91673" lon="7.24763">
        <ele>809.09002685547</ele>
        <time>2011-06-18T07:08:11Z</time>
      </trkpt>
      <trkpt lat="43.91662" lon="7.24752">
        <ele>809.09002685547</ele>
        <time>2011-06-18T07:08:21Z</time>
      </trkpt>
      <trkpt lat="43.91657" lon="7.24749">
        <ele>808.60998535156</ele>
        <time>2011-06-18T07:08:26Z</time>
      </trkpt>
      <trkpt lat="43.91654" lon="7.24745">
        <ele>808.13000488281</ele>
        <time>2011-06-18T07:08:30Z</time>
      </trkpt>
      <trkpt lat="43.91642" lon="7.24724">
        <ele>807.64001464844</ele>
        <time>2011-06-18T07:08:42Z</time>
      </trkpt>
      <trkpt lat="43.91617" lon="7.24729">
        <ele>805.23999023438</ele>
        <time>2011-06-18T07:08:52Z</time>
      </trkpt>
      <trkpt lat="43.91614" lon="7.24729">
        <ele>804.28002929688</ele>
        <time>2011-06-18T07:08:59Z</time>
      </trkpt>
      <trkpt lat="43.91629" lon="7.2472">
        <ele>806.20001220703</ele>
        <time>2011-06-18T07:09:09Z</time>
      </trkpt>
      <trkpt lat="43.91636" lon="7.24717">
        <ele>807.64001464844</ele>
        <time>2011-06-18T07:09:15Z</time>
      </trkpt>
      <trkpt lat="43.91639" lon="7.24716">
        <ele>807.15997314453</ele>
        <time>2011-06-18T07:09:20Z</time>
      </trkpt>
      <trkpt lat="43.9164" lon="7.24717">
        <ele>808.13000488281</ele>
        <time>2011-06-18T07:09:23Z</time>
      </trkpt>
      <trkpt lat="43.91647" lon="7.24727">
        <ele>808.13000488281</ele>
        <time>2011-06-18T07:09:29Z</time>
      </trkpt>
      <trkpt lat="43.91652" lon="7.24735">
        <ele>808.60998535156</ele>
        <time>2011-06-18T07:09:32Z</time>
      </trkpt>
      <trkpt lat="43.91669" lon="7.24754">
        <ele>809.57000732422</ele>
        <time>2011-06-18T07:09:43Z</time>
      </trkpt>
      <trkpt lat="43.91676" lon="7.24764">
        <ele>809.57000732422</ele>
        <time>2011-06-18T07:09:48Z</time>
      </trkpt>
      <trkpt lat="43.9168" lon="7.24767">
        <ele>809.57000732422</ele>
        <time>2011-06-18T07:09:51Z</time>
      </trkpt>
      <trkpt lat="43.917" lon="7.24755">
        <ele>809.57000732422</ele>
        <time>2011-06-18T07:10:02Z</time>
      </trkpt>
      <trkpt lat="43.91708" lon="7.24737">
        <ele>810.53002929688</ele>
        <time>2011-06-18T07:10:08Z</time>
      </trkpt>
      <trkpt lat="43.91716" lon="7.24702">
        <ele>809.57000732422</ele>
        <time>2011-06-18T07:10:19Z</time>
      </trkpt>
      <trkpt lat="43.91721" lon="7.24684">
        <ele>809.09002685547</ele>
        <time>2011-06-18T07:10:24Z</time>
      </trkpt>
      <trkpt lat="43.91714" lon="7.24666">
        <ele>808.60998535156</ele>
        <time>2011-06-18T07:10:31Z</time>
      </trkpt>
      <trkpt lat="43.91712" lon="7.24639">
        <ele>805.23999023438</ele>
        <time>2011-06-18T07:10:40Z</time>
      </trkpt>
      <trkpt lat="43.9171" lon="7.24631">
        <ele>805.23999023438</ele>
        <time>2011-06-18T07:10:42Z</time>
      </trkpt>
      <trkpt lat="43.91714" lon="7.2461">
        <ele>801.88000488281</ele>
        <time>2011-06-18T07:10:48Z</time>
      </trkpt>
      <trkpt lat="43.91721" lon="7.2459">
        <ele>799.95001220703</ele>
        <time>2011-06-18T07:10:53Z</time>
      </trkpt>
      <trkpt lat="43.91723" lon="7.24545">
        <ele>797.07000732422</ele>
        <time>2011-06-18T07:11:05Z</time>
      </trkpt>
      <trkpt lat="43.91716" lon="7.245">
        <ele>794.66998291016</ele>
        <time>2011-06-18T07:11:18Z</time>
      </trkpt>
      <trkpt lat="43.9171" lon="7.24486">
        <ele>791.78002929688</ele>
        <time>2011-06-18T07:11:26Z</time>
      </trkpt>
      <trkpt lat="43.91708" lon="7.24473">
        <ele>787.94000244141</ele>
        <time>2011-06-18T07:11:32Z</time>
      </trkpt>
      <trkpt lat="43.91708" lon="7.24471">
        <ele>787.94000244141</ele>
        <time>2011-06-18T07:11:33Z</time>
      </trkpt>
      <trkpt lat="43.91709" lon="7.24461">
        <ele>786.02001953125</ele>
        <time>2011-06-18T07:11:36Z</time>
      </trkpt>
      <trkpt lat="43.91712" lon="7.24451">
        <ele>784.09002685547</ele>
        <time>2011-06-18T07:11:39Z</time>
      </trkpt>
      <trkpt lat="43.91717" lon="7.24437">
        <ele>781.21002197266</ele>
        <time>2011-06-18T07:11:43Z</time>
      </trkpt>
      <trkpt lat="43.91719" lon="7.24419">
        <ele>778.80999755859</ele>
        <time>2011-06-18T07:11:49Z</time>
      </trkpt>
      <trkpt lat="43.91717" lon="7.24393">
        <ele>774.47998046875</ele>
        <time>2011-06-18T07:11:59Z</time>
      </trkpt>
      <trkpt lat="43.91717" lon="7.2439">
        <ele>774.96002197266</ele>
        <time>2011-06-18T07:12:00Z</time>
      </trkpt>
      <trkpt lat="43.91716" lon="7.24388">
        <ele>774.47998046875</ele>
        <time>2011-06-18T07:12:01Z</time>
      </trkpt>
      <trkpt lat="43.91712" lon="7.24378">
        <ele>772.55999755859</ele>
        <time>2011-06-18T07:12:10Z</time>
      </trkpt>
      <trkpt lat="43.917" lon="7.24356">
        <ele>769.66998291016</ele>
        <time>2011-06-18T07:12:19Z</time>
      </trkpt>
      <trkpt lat="43.91687" lon="7.24331">
        <ele>767.27001953125</ele>
        <time>2011-06-18T07:12:28Z</time>
      </trkpt>
      <trkpt lat="43.91667" lon="7.24334">
        <ele>767.75</ele>
        <time>2011-06-18T07:12:39Z</time>
      </trkpt>
      <trkpt lat="43.91646" lon="7.2433">
        <ele>770.63000488281</ele>
        <time>2011-06-18T07:12:53Z</time>
      </trkpt>
      <trkpt lat="43.91619" lon="7.2433">
        <ele>769.66998291016</ele>
        <time>2011-06-18T07:13:04Z</time>
      </trkpt>
      <trkpt lat="43.91594" lon="7.24347">
        <ele>769.66998291016</ele>
        <time>2011-06-18T07:13:15Z</time>
      </trkpt>
      <trkpt lat="43.91567" lon="7.24342">
        <ele>772.08001708984</ele>
        <time>2011-06-18T07:13:26Z</time>
      </trkpt>
      <trkpt lat="43.9154" lon="7.24327">
        <ele>773.03997802734</ele>
        <time>2011-06-18T07:13:38Z</time>
      </trkpt>
      <trkpt lat="43.91531" lon="7.24322">
        <ele>773.52001953125</ele>
        <time>2011-06-18T07:13:42Z</time>
      </trkpt>
      <trkpt lat="43.91519" lon="7.24297">
        <ele>774.96002197266</ele>
        <time>2011-06-18T07:13:51Z</time>
      </trkpt>
      <trkpt lat="43.91513" lon="7.24293">
        <ele>775.91998291016</ele>
        <time>2011-06-18T07:13:56Z</time>
      </trkpt>
      <trkpt lat="43.91499" lon="7.24311">
        <ele>779.28997802734</ele>
        <time>2011-06-18T07:14:05Z</time>
      </trkpt>
      <trkpt lat="43.9149" lon="7.24313">
        <ele>780.25</ele>
        <time>2011-06-18T07:14:11Z</time>
      </trkpt>
      <trkpt lat="43.91484" lon="7.24328">
        <ele>783.13000488281</ele>
        <time>2011-06-18T07:14:20Z</time>
      </trkpt>
      <trkpt lat="43.91484" lon="7.24333">
        <ele>783.60998535156</ele>
        <time>2011-06-18T07:14:22Z</time>
      </trkpt>
      <trkpt lat="43.91475" lon="7.24353">
        <ele>786.5</ele>
        <time>2011-06-18T07:14:34Z</time>
      </trkpt>
      <trkpt lat="43.91471" lon="7.24358">
        <ele>787.94000244141</ele>
        <time>2011-06-18T07:14:39Z</time>
      </trkpt>
      <trkpt lat="43.9147" lon="7.24363">
        <ele>788.90002441406</ele>
        <time>2011-06-18T07:14:43Z</time>
      </trkpt>
      <trkpt lat="43.91465" lon="7.24389">
        <ele>791.78002929688</ele>
        <time>2011-06-18T07:14:58Z</time>
      </trkpt>
      <trkpt lat="43.91464" lon="7.24394">
        <ele>792.73999023438</ele>
        <time>2011-06-18T07:15:01Z</time>
      </trkpt>
      <trkpt lat="43.91457" lon="7.24413">
        <ele>795.15002441406</ele>
        <time>2011-06-18T07:15:12Z</time>
      </trkpt>
      <trkpt lat="43.91452" lon="7.24442">
        <ele>797.54998779297</ele>
        <time>2011-06-18T07:15:24Z</time>
      </trkpt>
      <trkpt lat="43.91445" lon="7.24471">
        <ele>800.91998291016</ele>
        <time>2011-06-18T07:15:37Z</time>
      </trkpt>
      <trkpt lat="43.91442" lon="7.24495">
        <ele>804.28002929688</ele>
        <time>2011-06-18T07:15:48Z</time>
      </trkpt>
      <trkpt lat="43.91431" lon="7.24507">
        <ele>807.64001464844</ele>
        <time>2011-06-18T07:15:57Z</time>
      </trkpt>
      <trkpt lat="43.91428" lon="7.24508">
        <ele>808.13000488281</ele>
        <time>2011-06-18T07:15:59Z</time>
      </trkpt>
      <trkpt lat="43.91418" lon="7.24508">
        <ele>809.57000732422</ele>
        <time>2011-06-18T07:16:06Z</time>
      </trkpt>
      <trkpt lat="43.91401" lon="7.24508">
        <ele>812.92999267578</ele>
        <time>2011-06-18T07:16:17Z</time>
      </trkpt>
      <trkpt lat="43.91398" lon="7.24508">
        <ele>812.92999267578</ele>
        <time>2011-06-18T07:16:19Z</time>
      </trkpt>
      <trkpt lat="43.91383" lon="7.24514">
        <ele>816.29998779297</ele>
        <time>2011-06-18T07:16:35Z</time>
      </trkpt>
      <trkpt lat="43.91381" lon="7.24515">
        <ele>816.78002929688</ele>
        <time>2011-06-18T07:16:37Z</time>
      </trkpt>
      <trkpt lat="43.91379" lon="7.24515">
        <ele>816.78002929688</ele>
        <time>2011-06-18T07:16:39Z</time>
      </trkpt>
      <trkpt lat="43.91361" lon="7.24517">
        <ele>820.61999511719</ele>
        <time>2011-06-18T07:16:52Z</time>
      </trkpt>
      <trkpt lat="43.91341" lon="7.24522">
        <ele>823.51000976562</ele>
        <time>2011-06-18T07:17:02Z</time>
      </trkpt>
      <trkpt lat="43.91338" lon="7.24523">
        <ele>823.51000976562</ele>
        <time>2011-06-18T07:17:03Z</time>
      </trkpt>
      <trkpt lat="43.91334" lon="7.24523">
        <ele>823.51000976562</ele>
        <time>2011-06-18T07:17:05Z</time>
      </trkpt>
      <trkpt lat="43.91312" lon="7.24523">
        <ele>822.54998779297</ele>
        <time>2011-06-18T07:17:16Z</time>
      </trkpt>
      <trkpt lat="43.9131" lon="7.24525">
        <ele>823.98999023438</ele>
        <time>2011-06-18T07:17:17Z</time>
      </trkpt>
      <trkpt lat="43.9129" lon="7.2453">
        <ele>820.14001464844</ele>
        <time>2011-06-18T07:17:25Z</time>
      </trkpt>
      <trkpt lat="43.9126" lon="7.24531">
        <ele>817.73999023438</ele>
        <time>2011-06-18T07:17:36Z</time>
      </trkpt>
      <trkpt lat="43.91251" lon="7.24532">
        <ele>816.78002929688</ele>
        <time>2011-06-18T07:17:39Z</time>
      </trkpt>
      <trkpt lat="43.91224" lon="7.24522">
        <ele>813.89001464844</ele>
        <time>2011-06-18T07:17:49Z</time>
      </trkpt>
      <trkpt lat="43.91211" lon="7.24518">
        <ele>811.96997070312</ele>
        <time>2011-06-18T07:17:53Z</time>
      </trkpt>
      <trkpt lat="43.91191" lon="7.24515">
        <ele>808.60998535156</ele>
        <time>2011-06-18T07:18:00Z</time>
      </trkpt>
      <trkpt lat="43.91154" lon="7.24508">
        <ele>805.71997070312</ele>
        <time>2011-06-18T07:18:12Z</time>
      </trkpt>
      <trkpt lat="43.91123" lon="7.24488">
        <ele>802.35998535156</ele>
        <time>2011-06-18T07:18:23Z</time>
      </trkpt>
      <trkpt lat="43.91121" lon="7.24486">
        <ele>802.35998535156</ele>
        <time>2011-06-18T07:18:24Z</time>
      </trkpt>
      <trkpt lat="43.91098" lon="7.24471">
        <ele>798.51000976562</ele>
        <time>2011-06-18T07:18:32Z</time>
      </trkpt>
      <trkpt lat="43.91092" lon="7.24466">
        <ele>798.03002929688</ele>
        <time>2011-06-18T07:18:34Z</time>
      </trkpt>
      <trkpt lat="43.91075" lon="7.24439">
        <ele>795.15002441406</ele>
        <time>2011-06-18T07:18:43Z</time>
      </trkpt>
      <trkpt lat="43.91076" lon="7.24412">
        <ele>793.21997070312</ele>
        <time>2011-06-18T07:18:52Z</time>
      </trkpt>
      <trkpt lat="43.91078" lon="7.24385">
        <ele>789.38000488281</ele>
        <time>2011-06-18T07:19:01Z</time>
      </trkpt>
      <trkpt lat="43.91076" lon="7.24377">
        <ele>788.41998291016</ele>
        <time>2011-06-18T07:19:03Z</time>
      </trkpt>
      <trkpt lat="43.91073" lon="7.24366">
        <ele>786.97998046875</ele>
        <time>2011-06-18T07:19:06Z</time>
      </trkpt>
      <trkpt lat="43.91072" lon="7.24342">
        <ele>783.13000488281</ele>
        <time>2011-06-18T07:19:12Z</time>
      </trkpt>
      <trkpt lat="43.91071" lon="7.24327">
        <ele>782.65002441406</ele>
        <time>2011-06-18T07:19:16Z</time>
      </trkpt>
      <trkpt lat="43.91068" lon="7.24313">
        <ele>780.25</ele>
        <time>2011-06-18T07:19:20Z</time>
      </trkpt>
      <trkpt lat="43.91051" lon="7.24281">
        <ele>778.32000732422</ele>
        <time>2011-06-18T07:19:30Z</time>
      </trkpt>
      <trkpt lat="43.91023" lon="7.24259">
        <ele>776.88000488281</ele>
        <time>2011-06-18T07:19:42Z</time>
      </trkpt>
      <trkpt lat="43.90998" lon="7.24238">
        <ele>777.35998535156</ele>
        <time>2011-06-18T07:19:53Z</time>
      </trkpt>
      <trkpt lat="43.90965" lon="7.24215">
        <ele>778.80999755859</ele>
        <time>2011-06-18T07:20:07Z</time>
      </trkpt>
      <trkpt lat="43.90942" lon="7.24202">
        <ele>779.28997802734</ele>
        <time>2011-06-18T07:20:17Z</time>
      </trkpt>
      <trkpt lat="43.90935" lon="7.24196">
        <ele>781.21002197266</ele>
        <time>2011-06-18T07:20:21Z</time>
      </trkpt>
      <trkpt lat="43.90931" lon="7.24194">
        <ele>782.16998291016</ele>
        <time>2011-06-18T07:20:23Z</time>
      </trkpt>
      <trkpt lat="43.90921" lon="7.24164">
        <ele>784.57000732422</ele>
        <time>2011-06-18T07:20:34Z</time>
      </trkpt>
      <trkpt lat="43.90918" lon="7.24127">
        <ele>783.60998535156</ele>
        <time>2011-06-18T07:20:44Z</time>
      </trkpt>
      <trkpt lat="43.90918" lon="7.24109">
        <ele>782.65002441406</ele>
        <time>2011-06-18T07:20:49Z</time>
      </trkpt>
      <trkpt lat="43.90911" lon="7.24087">
        <ele>781.69000244141</ele>
        <time>2011-06-18T07:20:56Z</time>
      </trkpt>
      <trkpt lat="43.90892" lon="7.24065">
        <ele>785.04998779297</ele>
        <time>2011-06-18T07:21:08Z</time>
      </trkpt>
      <trkpt lat="43.90887" lon="7.24062">
        <ele>786.02001953125</ele>
        <time>2011-06-18T07:21:11Z</time>
      </trkpt>
      <trkpt lat="43.90882" lon="7.24055">
        <ele>787.94000244141</ele>
        <time>2011-06-18T07:21:15Z</time>
      </trkpt>
      <trkpt lat="43.90879" lon="7.24051">
        <ele>787.46002197266</ele>
        <time>2011-06-18T07:21:17Z</time>
      </trkpt>
      <trkpt lat="43.90872" lon="7.2404">
        <ele>786.97998046875</ele>
        <time>2011-06-18T07:21:22Z</time>
      </trkpt>
      <trkpt lat="43.90869" lon="7.24007">
        <ele>785.04998779297</ele>
        <time>2011-06-18T07:21:35Z</time>
      </trkpt>
      <trkpt lat="43.9086" lon="7.23967">
        <ele>783.13000488281</ele>
        <time>2011-06-18T07:21:46Z</time>
      </trkpt>
      <trkpt lat="43.90839" lon="7.23938">
        <ele>780.25</ele>
        <time>2011-06-18T07:21:56Z</time>
      </trkpt>
      <trkpt lat="43.90809" lon="7.23912">
        <ele>778.32000732422</ele>
        <time>2011-06-18T07:22:09Z</time>
      </trkpt>
      <trkpt lat="43.90785" lon="7.23878">
        <ele>779.77001953125</ele>
        <time>2011-06-18T07:22:22Z</time>
      </trkpt>
      <trkpt lat="43.90774" lon="7.23849">
        <ele>777.84002685547</ele>
        <time>2011-06-18T07:22:31Z</time>
      </trkpt>
      <trkpt lat="43.90771" lon="7.23835">
        <ele>775.91998291016</ele>
        <time>2011-06-18T07:22:35Z</time>
      </trkpt>
      <trkpt lat="43.90774" lon="7.23818">
        <ele>773.52001953125</ele>
        <time>2011-06-18T07:22:40Z</time>
      </trkpt>
      <trkpt lat="43.90782" lon="7.23794">
        <ele>770.63000488281</ele>
        <time>2011-06-18T07:22:47Z</time>
      </trkpt>
      <trkpt lat="43.90782" lon="7.23782">
        <ele>770.15002441406</ele>
        <time>2011-06-18T07:22:50Z</time>
      </trkpt>
      <trkpt lat="43.90783" lon="7.2377">
        <ele>768.22998046875</ele>
        <time>2011-06-18T07:22:53Z</time>
      </trkpt>
      <trkpt lat="43.90786" lon="7.23762">
        <ele>768.22998046875</ele>
        <time>2011-06-18T07:22:55Z</time>
      </trkpt>
      <trkpt lat="43.90788" lon="7.23753">
        <ele>766.78997802734</ele>
        <time>2011-06-18T07:22:57Z</time>
      </trkpt>
      <trkpt lat="43.90804" lon="7.23705">
        <ele>766.30999755859</ele>
        <time>2011-06-18T07:23:09Z</time>
      </trkpt>
      <trkpt lat="43.90804" lon="7.23692">
        <ele>765.34997558594</ele>
        <time>2011-06-18T07:23:12Z</time>
      </trkpt>
      <trkpt lat="43.90797" lon="7.23679">
        <ele>765.34997558594</ele>
        <time>2011-06-18T07:23:17Z</time>
      </trkpt>
      <trkpt lat="43.90784" lon="7.23679">
        <ele>764.39001464844</ele>
        <time>2011-06-18T07:23:21Z</time>
      </trkpt>
      <trkpt lat="43.90744" lon="7.23684">
        <ele>761.97998046875</ele>
        <time>2011-06-18T07:23:33Z</time>
      </trkpt>
      <trkpt lat="43.90709" lon="7.23685">
        <ele>759.09997558594</ele>
        <time>2011-06-18T07:23:44Z</time>
      </trkpt>
      <trkpt lat="43.90706" lon="7.23685">
        <ele>759.09997558594</ele>
        <time>2011-06-18T07:23:45Z</time>
      </trkpt>
      <trkpt lat="43.90695" lon="7.23682">
        <ele>757.65997314453</ele>
        <time>2011-06-18T07:23:48Z</time>
      </trkpt>
      <trkpt lat="43.90673" lon="7.23637">
        <ele>756.21002197266</ele>
        <time>2011-06-18T07:24:00Z</time>
      </trkpt>
      <trkpt lat="43.9067" lon="7.23626">
        <ele>756.21002197266</ele>
        <time>2011-06-18T07:24:03Z</time>
      </trkpt>
      <trkpt lat="43.90664" lon="7.23611">
        <ele>753.33001708984</ele>
        <time>2011-06-18T07:24:07Z</time>
      </trkpt>
      <trkpt lat="43.90657" lon="7.23559">
        <ele>751.40997314453</ele>
        <time>2011-06-18T07:24:20Z</time>
      </trkpt>
      <trkpt lat="43.90652" lon="7.23515">
        <ele>750.92999267578</ele>
        <time>2011-06-18T07:24:31Z</time>
      </trkpt>
      <trkpt lat="43.90643" lon="7.23474">
        <ele>749.96997070312</ele>
        <time>2011-06-18T07:24:42Z</time>
      </trkpt>
      <trkpt lat="43.90624" lon="7.23435">
        <ele>749.96997070312</ele>
        <time>2011-06-18T07:24:55Z</time>
      </trkpt>
      <trkpt lat="43.90619" lon="7.23425">
        <ele>747.08001708984</ele>
        <time>2011-06-18T07:25:00Z</time>
      </trkpt>
      <trkpt lat="43.90617" lon="7.23419">
        <ele>747.55999755859</ele>
        <time>2011-06-18T07:25:03Z</time>
      </trkpt>
      <trkpt lat="43.9061" lon="7.2342">
        <ele>746.59997558594</ele>
        <time>2011-06-18T07:25:09Z</time>
      </trkpt>
      <trkpt lat="43.90603" lon="7.23448">
        <ele>746.11999511719</ele>
        <time>2011-06-18T07:25:23Z</time>
      </trkpt>
      <trkpt lat="43.90599" lon="7.23477">
        <ele>744.20001220703</ele>
        <time>2011-06-18T07:25:31Z</time>
      </trkpt>
      <trkpt lat="43.90585" lon="7.23505">
        <ele>744.20001220703</ele>
        <time>2011-06-18T07:25:39Z</time>
      </trkpt>
      <trkpt lat="43.90576" lon="7.23533">
        <ele>741.78997802734</ele>
        <time>2011-06-18T07:25:48Z</time>
      </trkpt>
      <trkpt lat="43.90567" lon="7.2357">
        <ele>739.86999511719</ele>
        <time>2011-06-18T07:25:58Z</time>
      </trkpt>
      <trkpt lat="43.9056" lon="7.23589">
        <ele>738.90997314453</ele>
        <time>2011-06-18T07:26:03Z</time>
      </trkpt>
      <trkpt lat="43.90539" lon="7.23611">
        <ele>737.95001220703</ele>
        <time>2011-06-18T07:26:14Z</time>
      </trkpt>
      <trkpt lat="43.90528" lon="7.23629">
        <ele>741.30999755859</ele>
        <time>2011-06-18T07:26:21Z</time>
      </trkpt>
      <trkpt lat="43.90524" lon="7.23633">
        <ele>742.28002929688</ele>
        <time>2011-06-18T07:26:24Z</time>
      </trkpt>
      <trkpt lat="43.90523" lon="7.2366">
        <ele>743.23999023438</ele>
        <time>2011-06-18T07:26:37Z</time>
      </trkpt>
      <trkpt lat="43.90524" lon="7.23663">
        <ele>743.23999023438</ele>
        <time>2011-06-18T07:26:54Z</time>
      </trkpt>
      <trkpt lat="43.90525" lon="7.23665">
        <ele>742.76000976562</ele>
        <time>2011-06-18T07:27:11Z</time>
      </trkpt>
      <trkpt lat="43.90525" lon="7.23665">
        <ele>743.23999023438</ele>
        <time>2011-06-18T07:27:33Z</time>
      </trkpt>
      <trkpt lat="43.90522" lon="7.23671">
        <ele>742.76000976562</ele>
        <time>2011-06-18T07:28:46Z</time>
      </trkpt>
      <trkpt lat="43.90524" lon="7.23668">
        <ele>742.28002929688</ele>
        <time>2011-06-18T07:28:58Z</time>
      </trkpt>
      <trkpt lat="43.90524" lon="7.23666">
        <ele>742.76000976562</ele>
        <time>2011-06-18T07:29:16Z</time>
      </trkpt>
      <trkpt lat="43.90525" lon="7.23665">
        <ele>742.76000976562</ele>
        <time>2011-06-18T07:29:40Z</time>
      </trkpt>
      <trkpt lat="43.90525" lon="7.23663">
        <ele>742.76000976562</ele>
        <time>2011-06-18T07:30:02Z</time>
      </trkpt>
      <trkpt lat="43.90524" lon="7.23665">
        <ele>742.76000976562</ele>
        <time>2011-06-18T07:30:46Z</time>
      </trkpt>
      <trkpt lat="43.90524" lon="7.23665">
        <ele>742.76000976562</ele>
        <time>2011-06-18T07:30:49Z</time>
      </trkpt>
      <trkpt lat="43.90523" lon="7.23671">
        <ele>742.76000976562</ele>
        <time>2011-06-18T07:31:10Z</time>
      </trkpt>
      <trkpt lat="43.90523" lon="7.23672">
        <ele>743.23999023438</ele>
        <time>2011-06-18T07:31:50Z</time>
      </trkpt>
      <trkpt lat="43.90524" lon="7.23673">
        <ele>742.28002929688</ele>
        <time>2011-06-18T07:32:07Z</time>
      </trkpt>
      <trkpt lat="43.90524" lon="7.23674">
        <ele>741.78997802734</ele>
        <time>2011-06-18T07:32:19Z</time>
      </trkpt>
      <trkpt lat="43.90517" lon="7.23685">
        <ele>745.64001464844</ele>
        <time>2011-06-18T07:32:32Z</time>
      </trkpt>
      <trkpt lat="43.90514" lon="7.23693">
        <ele>747.08001708984</ele>
        <time>2011-06-18T07:32:38Z</time>
      </trkpt>
      <trkpt lat="43.90513" lon="7.23692">
        <ele>747.55999755859</ele>
        <time>2011-06-18T07:32:41Z</time>
      </trkpt>
      <trkpt lat="43.90512" lon="7.23685">
        <ele>749</ele>
        <time>2011-06-18T07:32:45Z</time>
      </trkpt>
      <trkpt lat="43.90512" lon="7.23677">
        <ele>749.96997070312</ele>
        <time>2011-06-18T07:32:49Z</time>
      </trkpt>
      <trkpt lat="43.90511" lon="7.23671">
        <ele>750.92999267578</ele>
        <time>2011-06-18T07:32:53Z</time>
      </trkpt>
      <trkpt lat="43.90503" lon="7.23684">
        <ele>753.80999755859</ele>
        <time>2011-06-18T07:33:03Z</time>
      </trkpt>
      <trkpt lat="43.90495" lon="7.23697">
        <ele>756.69000244141</ele>
        <time>2011-06-18T07:33:14Z</time>
      </trkpt>
      <trkpt lat="43.90488" lon="7.23706">
        <ele>758.61999511719</ele>
        <time>2011-06-18T07:33:21Z</time>
      </trkpt>
      <trkpt lat="43.90485" lon="7.23709">
        <ele>758.61999511719</ele>
        <time>2011-06-18T07:33:24Z</time>
      </trkpt>
      <trkpt lat="43.90482" lon="7.23713">
        <ele>760.53997802734</ele>
        <time>2011-06-18T07:33:27Z</time>
      </trkpt>
      <trkpt lat="43.90481" lon="7.23714">
        <ele>759.58001708984</ele>
        <time>2011-06-18T07:33:28Z</time>
      </trkpt>
      <trkpt lat="43.90467" lon="7.23726">
        <ele>761.5</ele>
        <time>2011-06-18T07:33:38Z</time>
      </trkpt>
      <trkpt lat="43.90463" lon="7.23726">
        <ele>761.97998046875</ele>
        <time>2011-06-18T07:33:40Z</time>
      </trkpt>
      <trkpt lat="43.90453" lon="7.23726">
        <ele>762.94000244141</ele>
        <time>2011-06-18T07:33:45Z</time>
      </trkpt>
      <trkpt lat="43.90445" lon="7.23716">
        <ele>766.30999755859</ele>
        <time>2011-06-18T07:33:56Z</time>
      </trkpt>
      <trkpt lat="43.90427" lon="7.23704">
        <ele>767.75</ele>
        <time>2011-06-18T07:34:07Z</time>
      </trkpt>
      <trkpt lat="43.90426" lon="7.23698">
        <ele>768.22998046875</ele>
        <time>2011-06-18T07:34:10Z</time>
      </trkpt>
      <trkpt lat="43.90431" lon="7.23695">
        <ele>770.15002441406</ele>
        <time>2011-06-18T07:34:14Z</time>
      </trkpt>
      <trkpt lat="43.90434" lon="7.23693">
        <ele>771.10998535156</ele>
        <time>2011-06-18T07:34:17Z</time>
      </trkpt>
      <trkpt lat="43.90437" lon="7.23685">
        <ele>771.59997558594</ele>
        <time>2011-06-18T07:34:22Z</time>
      </trkpt>
      <trkpt lat="43.90439" lon="7.23669">
        <ele>773.03997802734</ele>
        <time>2011-06-18T07:34:31Z</time>
      </trkpt>
      <trkpt lat="43.90464" lon="7.23661">
        <ele>774.47998046875</ele>
        <time>2011-06-18T07:34:42Z</time>
      </trkpt>
      <trkpt lat="43.90467" lon="7.23659">
        <ele>774.47998046875</ele>
        <time>2011-06-18T07:34:44Z</time>
      </trkpt>
      <trkpt lat="43.90467" lon="7.23653">
        <ele>776.40002441406</ele>
        <time>2011-06-18T07:34:49Z</time>
      </trkpt>
      <trkpt lat="43.90466" lon="7.23645">
        <ele>776.88000488281</ele>
        <time>2011-06-18T07:34:54Z</time>
      </trkpt>
      <trkpt lat="43.90465" lon="7.23643">
        <ele>778.32000732422</ele>
        <time>2011-06-18T07:34:56Z</time>
      </trkpt>
      <trkpt lat="43.90464" lon="7.23638">
        <ele>779.77001953125</ele>
        <time>2011-06-18T07:35:00Z</time>
      </trkpt>
      <trkpt lat="43.90461" lon="7.23634">
        <ele>781.69000244141</ele>
        <time>2011-06-18T07:35:05Z</time>
      </trkpt>
      <trkpt lat="43.90459" lon="7.23627">
        <ele>783.13000488281</ele>
        <time>2011-06-18T07:35:11Z</time>
      </trkpt>
      <trkpt lat="43.90454" lon="7.23621">
        <ele>785.53002929688</ele>
        <time>2011-06-18T07:35:18Z</time>
      </trkpt>
      <trkpt lat="43.90453" lon="7.23612">
        <ele>787.94000244141</ele>
        <time>2011-06-18T07:35:26Z</time>
      </trkpt>
      <trkpt lat="43.90443" lon="7.23604">
        <ele>790.82000732422</ele>
        <time>2011-06-18T07:35:38Z</time>
      </trkpt>
      <trkpt lat="43.90441" lon="7.23596">
        <ele>793.71002197266</ele>
        <time>2011-06-18T07:35:45Z</time>
      </trkpt>
      <trkpt lat="43.90437" lon="7.2359">
        <ele>796.10998535156</ele>
        <time>2011-06-18T07:35:54Z</time>
      </trkpt>
      <trkpt lat="43.90434" lon="7.23583">
        <ele>799.46997070312</ele>
        <time>2011-06-18T07:36:04Z</time>
      </trkpt>
      <trkpt lat="43.90433" lon="7.23573">
        <ele>801.88000488281</ele>
        <time>2011-06-18T07:36:13Z</time>
      </trkpt>
      <trkpt lat="43.90428" lon="7.23571">
        <ele>802.35998535156</ele>
        <time>2011-06-18T07:36:19Z</time>
      </trkpt>
      <trkpt lat="43.90436" lon="7.2357">
        <ele>804.28002929688</ele>
        <time>2011-06-18T07:36:27Z</time>
      </trkpt>
      <trkpt lat="43.90438" lon="7.23569">
        <ele>804.28002929688</ele>
        <time>2011-06-18T07:36:29Z</time>
      </trkpt>
      <trkpt lat="43.90442" lon="7.23568">
        <ele>804.76000976562</ele>
        <time>2011-06-18T07:36:32Z</time>
      </trkpt>
      <trkpt lat="43.90447" lon="7.23557">
        <ele>806.20001220703</ele>
        <time>2011-06-18T07:36:38Z</time>
      </trkpt>
      <trkpt lat="43.90452" lon="7.23545">
        <ele>808.60998535156</ele>
        <time>2011-06-18T07:36:47Z</time>
      </trkpt>
      <trkpt lat="43.90453" lon="7.2354">
        <ele>810.04998779297</ele>
        <time>2011-06-18T07:36:52Z</time>
      </trkpt>
      <trkpt lat="43.90461" lon="7.2352">
        <ele>813.89001464844</ele>
        <time>2011-06-18T07:37:04Z</time>
      </trkpt>
      <trkpt lat="43.90461" lon="7.23519">
        <ele>814.36999511719</ele>
        <time>2011-06-18T07:37:05Z</time>
      </trkpt>
      <trkpt lat="43.90462" lon="7.23518">
        <ele>814.84997558594</ele>
        <time>2011-06-18T07:37:06Z</time>
      </trkpt>
      <trkpt lat="43.90469" lon="7.23511">
        <ele>815.82000732422</ele>
        <time>2011-06-18T07:37:12Z</time>
      </trkpt>
      <trkpt lat="43.90474" lon="7.23503">
        <ele>817.26000976562</ele>
        <time>2011-06-18T07:37:18Z</time>
      </trkpt>
      <trkpt lat="43.9048" lon="7.23483">
        <ele>816.78002929688</ele>
        <time>2011-06-18T07:37:30Z</time>
      </trkpt>
      <trkpt lat="43.90482" lon="7.23478">
        <ele>816.78002929688</ele>
        <time>2011-06-18T07:37:32Z</time>
      </trkpt>
      <trkpt lat="43.90483" lon="7.23449">
        <ele>820.61999511719</ele>
        <time>2011-06-18T07:37:47Z</time>
      </trkpt>
      <trkpt lat="43.90483" lon="7.23443">
        <ele>821.09997558594</ele>
        <time>2011-06-18T07:37:50Z</time>
      </trkpt>
      <trkpt lat="43.90483" lon="7.23439">
        <ele>822.54998779297</ele>
        <time>2011-06-18T07:37:53Z</time>
      </trkpt>
      <trkpt lat="43.90479" lon="7.2343">
        <ele>825.42999267578</ele>
        <time>2011-06-18T07:38:00Z</time>
      </trkpt>
      <trkpt lat="43.90479" lon="7.23426">
        <ele>824.95001220703</ele>
        <time>2011-06-18T07:38:03Z</time>
      </trkpt>
      <trkpt lat="43.90478" lon="7.23414">
        <ele>827.83001708984</ele>
        <time>2011-06-18T07:38:11Z</time>
      </trkpt>
      <trkpt lat="43.90477" lon="7.23403">
        <ele>831.20001220703</ele>
        <time>2011-06-18T07:38:19Z</time>
      </trkpt>
      <trkpt lat="43.90477" lon="7.23395">
        <ele>832.15997314453</ele>
        <time>2011-06-18T07:38:25Z</time>
      </trkpt>
      <trkpt lat="43.90478" lon="7.23391">
        <ele>833.11999511719</ele>
        <time>2011-06-18T07:38:28Z</time>
      </trkpt>
      <trkpt lat="43.90488" lon="7.23368">
        <ele>834.55999755859</ele>
        <time>2011-06-18T07:38:40Z</time>
      </trkpt>
      <trkpt lat="43.9049" lon="7.23357">
        <ele>835.03997802734</ele>
        <time>2011-06-18T07:38:45Z</time>
      </trkpt>
      <trkpt lat="43.90489" lon="7.2334">
        <ele>839.36999511719</ele>
        <time>2011-06-18T07:38:56Z</time>
      </trkpt>
      <trkpt lat="43.90489" lon="7.23338">
        <ele>838.89001464844</ele>
        <time>2011-06-18T07:38:57Z</time>
      </trkpt>
      <trkpt lat="43.90488" lon="7.23325">
        <ele>842.25</ele>
        <time>2011-06-18T07:39:05Z</time>
      </trkpt>
      <trkpt lat="43.90488" lon="7.23324">
        <ele>842.25</ele>
        <time>2011-06-18T07:39:06Z</time>
      </trkpt>
      <trkpt lat="43.90488" lon="7.23321">
        <ele>842.72998046875</ele>
        <time>2011-06-18T07:39:08Z</time>
      </trkpt>
      <trkpt lat="43.90488" lon="7.23295">
        <ele>846.09997558594</ele>
        <time>2011-06-18T07:39:23Z</time>
      </trkpt>
      <trkpt lat="43.90484" lon="7.23282">
        <ele>848.02001953125</ele>
        <time>2011-06-18T07:39:29Z</time>
      </trkpt>
      <trkpt lat="43.90478" lon="7.23264">
        <ele>850.41998291016</ele>
        <time>2011-06-18T07:39:37Z</time>
      </trkpt>
      <trkpt lat="43.90466" lon="7.23228">
        <ele>852.34997558594</ele>
        <time>2011-06-18T07:39:51Z</time>
      </trkpt>
      <trkpt lat="43.90464" lon="7.23226">
        <ele>852.83001708984</ele>
        <time>2011-06-18T07:39:52Z</time>
      </trkpt>
      <trkpt lat="43.90459" lon="7.23217">
        <ele>854.27001953125</ele>
        <time>2011-06-18T07:39:57Z</time>
      </trkpt>
      <trkpt lat="43.90452" lon="7.23207">
        <ele>856.66998291016</ele>
        <time>2011-06-18T07:40:06Z</time>
      </trkpt>
      <trkpt lat="43.90452" lon="7.2323">
        <ele>859.55999755859</ele>
        <time>2011-06-18T07:40:19Z</time>
      </trkpt>
      <trkpt lat="43.90451" lon="7.23237">
        <ele>860.52001953125</ele>
        <time>2011-06-18T07:40:23Z</time>
      </trkpt>
      <trkpt lat="43.90449" lon="7.23253">
        <ele>862.91998291016</ele>
        <time>2011-06-18T07:40:33Z</time>
      </trkpt>
      <trkpt lat="43.90446" lon="7.23252">
        <ele>864.35998535156</ele>
        <time>2011-06-18T07:40:39Z</time>
      </trkpt>
      <trkpt lat="43.90445" lon="7.23247">
        <ele>864.84002685547</ele>
        <time>2011-06-18T07:40:42Z</time>
      </trkpt>
      <trkpt lat="43.90443" lon="7.23241">
        <ele>866.28997802734</ele>
        <time>2011-06-18T07:40:46Z</time>
      </trkpt>
      <trkpt lat="43.90435" lon="7.23237">
        <ele>868.21002197266</ele>
        <time>2011-06-18T07:40:54Z</time>
      </trkpt>
      <trkpt lat="43.90427" lon="7.23225">
        <ele>871.57000732422</ele>
        <time>2011-06-18T07:41:03Z</time>
      </trkpt>
      <trkpt lat="43.90417" lon="7.232">
        <ele>874.94000244141</ele>
        <time>2011-06-18T07:41:13Z</time>
      </trkpt>
      <trkpt lat="43.90407" lon="7.23176">
        <ele>876.85998535156</ele>
        <time>2011-06-18T07:41:23Z</time>
      </trkpt>
      <trkpt lat="43.90401" lon="7.23165">
        <ele>878.78002929688</ele>
        <time>2011-06-18T07:41:30Z</time>
      </trkpt>
      <trkpt lat="43.90399" lon="7.23163">
        <ele>879.26000976562</ele>
        <time>2011-06-18T07:41:32Z</time>
      </trkpt>
      <trkpt lat="43.90392" lon="7.23147">
        <ele>883.10998535156</ele>
        <time>2011-06-18T07:41:43Z</time>
      </trkpt>
      <trkpt lat="43.90392" lon="7.23145">
        <ele>882.63000488281</ele>
        <time>2011-06-18T07:41:44Z</time>
      </trkpt>
      <trkpt lat="43.90385" lon="7.23125">
        <ele>885.03002929688</ele>
        <time>2011-06-18T07:41:52Z</time>
      </trkpt>
      <trkpt lat="43.90376" lon="7.23097">
        <ele>889.35998535156</ele>
        <time>2011-06-18T07:42:04Z</time>
      </trkpt>
      <trkpt lat="43.90371" lon="7.23076">
        <ele>892.23999023438</ele>
        <time>2011-06-18T07:42:13Z</time>
      </trkpt>
      <trkpt lat="43.90368" lon="7.23072">
        <ele>893.20001220703</ele>
        <time>2011-06-18T07:42:15Z</time>
      </trkpt>
      <trkpt lat="43.90365" lon="7.23062">
        <ele>894.15997314453</ele>
        <time>2011-06-18T07:42:20Z</time>
      </trkpt>
      <trkpt lat="43.90364" lon="7.23057">
        <ele>895.60998535156</ele>
        <time>2011-06-18T07:42:22Z</time>
      </trkpt>
      <trkpt lat="43.90359" lon="7.23035">
        <ele>899.45001220703</ele>
        <time>2011-06-18T07:42:31Z</time>
      </trkpt>
      <trkpt lat="43.90347" lon="7.23013">
        <ele>901.84997558594</ele>
        <time>2011-06-18T07:42:42Z</time>
      </trkpt>
      <trkpt lat="43.90334" lon="7.22999">
        <ele>903.78002929688</ele>
        <time>2011-06-18T07:42:52Z</time>
      </trkpt>
      <trkpt lat="43.90328" lon="7.2299">
        <ele>905.21997070312</ele>
        <time>2011-06-18T07:42:59Z</time>
      </trkpt>
      <trkpt lat="43.90324" lon="7.22987">
        <ele>907.14001464844</ele>
        <time>2011-06-18T07:43:04Z</time>
      </trkpt>
      <trkpt lat="43.90322" lon="7.22985">
        <ele>908.09997558594</ele>
        <time>2011-06-18T07:43:07Z</time>
      </trkpt>
      <trkpt lat="43.90318" lon="7.22981">
        <ele>909.05999755859</ele>
        <time>2011-06-18T07:43:12Z</time>
      </trkpt>
      <trkpt lat="43.90311" lon="7.22968">
        <ele>911.46997070312</ele>
        <time>2011-06-18T07:43:20Z</time>
      </trkpt>
      <trkpt lat="43.90304" lon="7.22955">
        <ele>912.90997314453</ele>
        <time>2011-06-18T07:43:27Z</time>
      </trkpt>
      <trkpt lat="43.9029" lon="7.22931">
        <ele>915.78997802734</ele>
        <time>2011-06-18T07:43:40Z</time>
      </trkpt>
      <trkpt lat="43.90287" lon="7.22928">
        <ele>916.75</ele>
        <time>2011-06-18T07:43:42Z</time>
      </trkpt>
      <trkpt lat="43.90284" lon="7.22924">
        <ele>917.23999023438</ele>
        <time>2011-06-18T07:43:44Z</time>
      </trkpt>
      <trkpt lat="43.90279" lon="7.22908">
        <ele>918.67999267578</ele>
        <time>2011-06-18T07:43:51Z</time>
      </trkpt>
      <trkpt lat="43.90288" lon="7.22907">
        <ele>917.23999023438</ele>
        <time>2011-06-18T07:43:56Z</time>
      </trkpt>
      <trkpt lat="43.903" lon="7.22908">
        <ele>916.75</ele>
        <time>2011-06-18T07:44:01Z</time>
      </trkpt>
      <trkpt lat="43.90311" lon="7.229">
        <ele>918.67999267578</ele>
        <time>2011-06-18T07:44:07Z</time>
      </trkpt>
      <trkpt lat="43.90318" lon="7.22859">
        <ele>921.08001708984</ele>
        <time>2011-06-18T07:44:21Z</time>
      </trkpt>
      <trkpt lat="43.90319" lon="7.22831">
        <ele>922.03997802734</ele>
        <time>2011-06-18T07:44:30Z</time>
      </trkpt>
      <trkpt lat="43.90316" lon="7.22794">
        <ele>924.45001220703</ele>
        <time>2011-06-18T07:44:42Z</time>
      </trkpt>
      <trkpt lat="43.9031" lon="7.22772">
        <ele>925.89001464844</ele>
        <time>2011-06-18T07:44:51Z</time>
      </trkpt>
      <trkpt lat="43.90309" lon="7.22745">
        <ele>927.80999755859</ele>
        <time>2011-06-18T07:45:00Z</time>
      </trkpt>
      <trkpt lat="43.90302" lon="7.22728">
        <ele>929.72998046875</ele>
        <time>2011-06-18T07:45:07Z</time>
      </trkpt>
      <trkpt lat="43.90295" lon="7.22715">
        <ele>931.65002441406</ele>
        <time>2011-06-18T07:45:13Z</time>
      </trkpt>
      <trkpt lat="43.90294" lon="7.22713">
        <ele>931.16998291016</ele>
        <time>2011-06-18T07:45:14Z</time>
      </trkpt>
      <trkpt lat="43.90292" lon="7.22705">
        <ele>932.61999511719</ele>
        <time>2011-06-18T07:45:18Z</time>
      </trkpt>
      <trkpt lat="43.90286" lon="7.22702">
        <ele>934.53997802734</ele>
        <time>2011-06-18T07:45:24Z</time>
      </trkpt>
      <trkpt lat="43.9028" lon="7.22692">
        <ele>937.41998291016</ele>
        <time>2011-06-18T07:45:35Z</time>
      </trkpt>
      <trkpt lat="43.90279" lon="7.22693">
        <ele>937.41998291016</ele>
        <time>2011-06-18T07:45:36Z</time>
      </trkpt>
      <trkpt lat="43.90276" lon="7.22693">
        <ele>938.85998535156</ele>
        <time>2011-06-18T07:45:39Z</time>
      </trkpt>
      <trkpt lat="43.90274" lon="7.22688">
        <ele>940.30999755859</ele>
        <time>2011-06-18T07:45:43Z</time>
      </trkpt>
      <trkpt lat="43.9027" lon="7.22667">
        <ele>942.71002197266</ele>
        <time>2011-06-18T07:45:55Z</time>
      </trkpt>
      <trkpt lat="43.90261" lon="7.22651">
        <ele>944.15002441406</ele>
        <time>2011-06-18T07:46:03Z</time>
      </trkpt>
      <trkpt lat="43.9026" lon="7.22647">
        <ele>944.63000488281</ele>
        <time>2011-06-18T07:46:05Z</time>
      </trkpt>
      <trkpt lat="43.90261" lon="7.22629">
        <ele>947.03997802734</ele>
        <time>2011-06-18T07:46:13Z</time>
      </trkpt>
      <trkpt lat="43.90262" lon="7.22625">
        <ele>946.07000732422</ele>
        <time>2011-06-18T07:46:15Z</time>
      </trkpt>
      <trkpt lat="43.90263" lon="7.22619">
        <ele>947.52001953125</ele>
        <time>2011-06-18T07:46:19Z</time>
      </trkpt>
      <trkpt lat="43.90264" lon="7.22609">
        <ele>951.35998535156</ele>
        <time>2011-06-18T07:46:28Z</time>
      </trkpt>
      <trkpt lat="43.90265" lon="7.22602">
        <ele>952.79998779297</ele>
        <time>2011-06-18T07:46:35Z</time>
      </trkpt>
      <trkpt lat="43.90263" lon="7.22597">
        <ele>953.77001953125</ele>
        <time>2011-06-18T07:46:39Z</time>
      </trkpt>
      <trkpt lat="43.90257" lon="7.22591">
        <ele>956.16998291016</ele>
        <time>2011-06-18T07:46:45Z</time>
      </trkpt>
      <trkpt lat="43.90248" lon="7.22583">
        <ele>958.57000732422</ele>
        <time>2011-06-18T07:46:56Z</time>
      </trkpt>
      <trkpt lat="43.90234" lon="7.22574">
        <ele>961.94000244141</ele>
        <time>2011-06-18T07:47:10Z</time>
      </trkpt>
      <trkpt lat="43.90229" lon="7.22569">
        <ele>962.41998291016</ele>
        <time>2011-06-18T07:47:19Z</time>
      </trkpt>
      <trkpt lat="43.90223" lon="7.22567">
        <ele>963.38000488281</ele>
        <time>2011-06-18T07:47:25Z</time>
      </trkpt>
      <trkpt lat="43.90223" lon="7.22561">
        <ele>963.85998535156</ele>
        <time>2011-06-18T07:47:28Z</time>
      </trkpt>
      <trkpt lat="43.90222" lon="7.22554">
        <ele>965.29998779297</ele>
        <time>2011-06-18T07:47:32Z</time>
      </trkpt>
      <trkpt lat="43.9022" lon="7.22547">
        <ele>965.29998779297</ele>
        <time>2011-06-18T07:47:36Z</time>
      </trkpt>
      <trkpt lat="43.90219" lon="7.22543">
        <ele>966.73999023438</ele>
        <time>2011-06-18T07:47:39Z</time>
      </trkpt>
      <trkpt lat="43.9021" lon="7.22508">
        <ele>966.26000976562</ele>
        <time>2011-06-18T07:47:55Z</time>
      </trkpt>
      <trkpt lat="43.90215" lon="7.22476">
        <ele>966.73999023438</ele>
        <time>2011-06-18T07:48:06Z</time>
      </trkpt>
      <trkpt lat="43.90218" lon="7.22468">
        <ele>969.15002441406</ele>
        <time>2011-06-18T07:48:10Z</time>
      </trkpt>
      <trkpt lat="43.9022" lon="7.22444">
        <ele>969.63000488281</ele>
        <time>2011-06-18T07:48:26Z</time>
      </trkpt>
      <trkpt lat="43.90219" lon="7.22442">
        <ele>970.10998535156</ele>
        <time>2011-06-18T07:48:38Z</time>
      </trkpt>
      <trkpt lat="43.90218" lon="7.22447">
        <ele>969.15002441406</ele>
        <time>2011-06-18T07:48:57Z</time>
      </trkpt>
      <trkpt lat="43.90218" lon="7.22448">
        <ele>970.10998535156</ele>
        <time>2011-06-18T07:49:02Z</time>
      </trkpt>
      <trkpt lat="43.90218" lon="7.22446">
        <ele>970.10998535156</ele>
        <time>2011-06-18T07:49:15Z</time>
      </trkpt>
      <trkpt lat="43.90219" lon="7.22439">
        <ele>970.10998535156</ele>
        <time>2011-06-18T07:49:28Z</time>
      </trkpt>
      <trkpt lat="43.90217" lon="7.22438">
        <ele>969.63000488281</ele>
        <time>2011-06-18T07:49:44Z</time>
      </trkpt>
      <trkpt lat="43.90216" lon="7.22445">
        <ele>969.63000488281</ele>
        <time>2011-06-18T07:50:26Z</time>
      </trkpt>
      <trkpt lat="43.90217" lon="7.22445">
        <ele>970.10998535156</ele>
        <time>2011-06-18T07:50:59Z</time>
      </trkpt>
      <trkpt lat="43.90217" lon="7.22445">
        <ele>970.10998535156</ele>
        <time>2011-06-18T07:52:04Z</time>
      </trkpt>
      <trkpt lat="43.90217" lon="7.22445">
        <ele>970.59002685547</ele>
        <time>2011-06-18T07:52:51Z</time>
      </trkpt>
      <trkpt lat="43.90213" lon="7.22444">
        <ele>972.03002929688</ele>
        <time>2011-06-18T07:53:13Z</time>
      </trkpt>
      <trkpt lat="43.90201" lon="7.22433">
        <ele>973.46997070312</ele>
        <time>2011-06-18T07:53:28Z</time>
      </trkpt>
      <trkpt lat="43.90199" lon="7.22432">
        <ele>972.98999023438</ele>
        <time>2011-06-18T07:53:30Z</time>
      </trkpt>
      <trkpt lat="43.90194" lon="7.22433">
        <ele>973.95001220703</ele>
        <time>2011-06-18T07:53:34Z</time>
      </trkpt>
      <trkpt lat="43.90186" lon="7.22439">
        <ele>974.42999267578</ele>
        <time>2011-06-18T07:53:39Z</time>
      </trkpt>
      <trkpt lat="43.90166" lon="7.22438">
        <ele>975.88000488281</ele>
        <time>2011-06-18T07:53:52Z</time>
      </trkpt>
      <trkpt lat="43.9016" lon="7.22437">
        <ele>976.84002685547</ele>
        <time>2011-06-18T07:53:56Z</time>
      </trkpt>
      <trkpt lat="43.90155" lon="7.22437">
        <ele>977.32000732422</ele>
        <time>2011-06-18T07:54:00Z</time>
      </trkpt>
      <trkpt lat="43.90141" lon="7.22434">
        <ele>980.20001220703</ele>
        <time>2011-06-18T07:54:12Z</time>
      </trkpt>
      <trkpt lat="43.90122" lon="7.2243">
        <ele>982.11999511719</ele>
        <time>2011-06-18T07:54:28Z</time>
      </trkpt>
      <trkpt lat="43.90119" lon="7.22429">
        <ele>983.09002685547</ele>
        <time>2011-06-18T07:54:31Z</time>
      </trkpt>
      <trkpt lat="43.90118" lon="7.22429">
        <ele>984.04998779297</ele>
        <time>2011-06-18T07:54:33Z</time>
      </trkpt>
      <trkpt lat="43.90116" lon="7.22428">
        <ele>984.53002929688</ele>
        <time>2011-06-18T07:54:35Z</time>
      </trkpt>
      <trkpt lat="43.90107" lon="7.22415">
        <ele>987.89001464844</ele>
        <time>2011-06-18T07:54:48Z</time>
      </trkpt>
      <trkpt lat="43.90106" lon="7.22415">
        <ele>987.40997314453</ele>
        <time>2011-06-18T07:54:49Z</time>
      </trkpt>
      <trkpt lat="43.90093" lon="7.2241">
        <ele>991.73999023438</ele>
        <time>2011-06-18T07:55:02Z</time>
      </trkpt>
      <trkpt lat="43.90088" lon="7.22403">
        <ele>995.09997558594</ele>
        <time>2011-06-18T07:55:14Z</time>
      </trkpt>
      <trkpt lat="43.90079" lon="7.22407">
        <ele>996.53997802734</ele>
        <time>2011-06-18T07:55:23Z</time>
      </trkpt>
      <trkpt lat="43.90078" lon="7.22421">
        <ele>999.42999267578</ele>
        <time>2011-06-18T07:55:37Z</time>
      </trkpt>
      <trkpt lat="43.90078" lon="7.22423">
        <ele>1000.8699951172</ele>
        <time>2011-06-18T07:55:39Z</time>
      </trkpt>
      <trkpt lat="43.9007" lon="7.22424">
        <ele>1002.7899780273</ele>
        <time>2011-06-18T07:55:50Z</time>
      </trkpt>
      <trkpt lat="43.9006" lon="7.22421">
        <ele>1005.6799926758</ele>
        <time>2011-06-18T07:56:00Z</time>
      </trkpt>
      <trkpt lat="43.90056" lon="7.2242">
        <ele>1006.6400146484</ele>
        <time>2011-06-18T07:56:03Z</time>
      </trkpt>
      <trkpt lat="43.90052" lon="7.22419">
        <ele>1007.5999755859</ele>
        <time>2011-06-18T07:56:07Z</time>
      </trkpt>
      <trkpt lat="43.90048" lon="7.2242">
        <ele>1009.5200195312</ele>
        <time>2011-06-18T07:56:12Z</time>
      </trkpt>
      <trkpt lat="43.90046" lon="7.22421">
        <ele>1010</ele>
        <time>2011-06-18T07:56:14Z</time>
      </trkpt>
      <trkpt lat="43.90041" lon="7.22418">
        <ele>1010.9600219727</ele>
        <time>2011-06-18T07:56:19Z</time>
      </trkpt>
      <trkpt lat="43.90039" lon="7.22418">
        <ele>1011.4400024414</ele>
        <time>2011-06-18T07:56:20Z</time>
      </trkpt>
      <trkpt lat="43.9003" lon="7.22417">
        <ele>1014.8099975586</ele>
        <time>2011-06-18T07:56:30Z</time>
      </trkpt>
      <trkpt lat="43.90027" lon="7.2242">
        <ele>1015.2899780273</ele>
        <time>2011-06-18T07:56:35Z</time>
      </trkpt>
      <trkpt lat="43.90018" lon="7.22441">
        <ele>1018.6500244141</ele>
        <time>2011-06-18T07:56:49Z</time>
      </trkpt>
      <trkpt lat="43.90016" lon="7.22444">
        <ele>1019.1300048828</ele>
        <time>2011-06-18T07:56:51Z</time>
      </trkpt>
      <trkpt lat="43.90015" lon="7.22446">
        <ele>1020.0999755859</ele>
        <time>2011-06-18T07:56:53Z</time>
      </trkpt>
      <trkpt lat="43.90015" lon="7.22448">
        <ele>1020.0999755859</ele>
        <time>2011-06-18T07:56:54Z</time>
      </trkpt>
      <trkpt lat="43.90015" lon="7.22465">
        <ele>1021.5399780273</ele>
        <time>2011-06-18T07:57:04Z</time>
      </trkpt>
      <trkpt lat="43.90014" lon="7.22467">
        <ele>1022.0200195312</ele>
        <time>2011-06-18T07:57:05Z</time>
      </trkpt>
      <trkpt lat="43.90011" lon="7.22491">
        <ele>1021.0599975586</ele>
        <time>2011-06-18T07:57:13Z</time>
      </trkpt>
      <trkpt lat="43.9001" lon="7.22502">
        <ele>1022.0200195312</ele>
        <time>2011-06-18T07:57:16Z</time>
      </trkpt>
      <trkpt lat="43.9001" lon="7.22508">
        <ele>1021.5399780273</ele>
        <time>2011-06-18T07:57:18Z</time>
      </trkpt>
      <trkpt lat="43.9001" lon="7.2252">
        <ele>1021.5399780273</ele>
        <time>2011-06-18T07:57:22Z</time>
      </trkpt>
      <trkpt lat="43.90004" lon="7.22545">
        <ele>1022.0200195312</ele>
        <time>2011-06-18T07:57:33Z</time>
      </trkpt>
      <trkpt lat="43.90003" lon="7.22547">
        <ele>1022.5</ele>
        <time>2011-06-18T07:57:34Z</time>
      </trkpt>
      <trkpt lat="43.90002" lon="7.22565">
        <ele>1021.0599975586</ele>
        <time>2011-06-18T07:57:40Z</time>
      </trkpt>
      <trkpt lat="43.9" lon="7.22576">
        <ele>1021.5399780273</ele>
        <time>2011-06-18T07:57:44Z</time>
      </trkpt>
      <trkpt lat="43.89997" lon="7.22582">
        <ele>1021.0599975586</ele>
        <time>2011-06-18T07:57:46Z</time>
      </trkpt>
      <trkpt lat="43.89993" lon="7.22591">
        <ele>1021.5399780273</ele>
        <time>2011-06-18T07:57:50Z</time>
      </trkpt>
      <trkpt lat="43.89993" lon="7.22603">
        <ele>1020.5800170898</ele>
        <time>2011-06-18T07:57:54Z</time>
      </trkpt>
      <trkpt lat="43.89981" lon="7.22621">
        <ele>1022.9799804688</ele>
        <time>2011-06-18T07:58:01Z</time>
      </trkpt>
      <trkpt lat="43.89958" lon="7.22631">
        <ele>1024.9000244141</ele>
        <time>2011-06-18T07:58:13Z</time>
      </trkpt>
      <trkpt lat="43.89945" lon="7.22649">
        <ele>1028.2700195312</ele>
        <time>2011-06-18T07:58:22Z</time>
      </trkpt>
      <trkpt lat="43.89943" lon="7.22651">
        <ele>1028.2700195312</ele>
        <time>2011-06-18T07:58:23Z</time>
      </trkpt>
      <trkpt lat="43.89934" lon="7.22661">
        <ele>1030.1899414062</ele>
        <time>2011-06-18T07:58:29Z</time>
      </trkpt>
      <trkpt lat="43.8993" lon="7.22664">
        <ele>1030.1899414062</ele>
        <time>2011-06-18T07:58:31Z</time>
      </trkpt>
      <trkpt lat="43.89919" lon="7.22675">
        <ele>1032.5899658203</ele>
        <time>2011-06-18T07:58:37Z</time>
      </trkpt>
      <trkpt lat="43.89904" lon="7.22691">
        <ele>1036.4399414062</ele>
        <time>2011-06-18T07:58:46Z</time>
      </trkpt>
      <trkpt lat="43.8989" lon="7.227">
        <ele>1039.3199462891</ele>
        <time>2011-06-18T07:58:53Z</time>
      </trkpt>
      <trkpt lat="43.89886" lon="7.22702">
        <ele>1039.8000488281</ele>
        <time>2011-06-18T07:58:54Z</time>
      </trkpt>
      <trkpt lat="43.89858" lon="7.2269">
        <ele>1042.6899414062</ele>
        <time>2011-06-18T07:59:07Z</time>
      </trkpt>
      <trkpt lat="43.89843" lon="7.22667">
        <ele>1043.1700439453</ele>
        <time>2011-06-18T07:59:24Z</time>
      </trkpt>
      <trkpt lat="43.89841" lon="7.22665">
        <ele>1043.6500244141</ele>
        <time>2011-06-18T07:59:26Z</time>
      </trkpt>
      <trkpt lat="43.89846" lon="7.22657">
        <ele>1044.1300048828</ele>
        <time>2011-06-18T07:59:40Z</time>
      </trkpt>
      <trkpt lat="43.89846" lon="7.22659">
        <ele>1043.6500244141</ele>
        <time>2011-06-18T07:59:52Z</time>
      </trkpt>
      <trkpt lat="43.89851" lon="7.22654">
        <ele>1044.1300048828</ele>
        <time>2011-06-18T08:00:15Z</time>
      </trkpt>
      <trkpt lat="43.89859" lon="7.22636">
        <ele>1045.0899658203</ele>
        <time>2011-06-18T08:00:30Z</time>
      </trkpt>
      <trkpt lat="43.89863" lon="7.22629">
        <ele>1044.1300048828</ele>
        <time>2011-06-18T08:00:36Z</time>
      </trkpt>
      <trkpt lat="43.89872" lon="7.22596">
        <ele>1045.5699462891</ele>
        <time>2011-06-18T08:00:57Z</time>
      </trkpt>
      <trkpt lat="43.89879" lon="7.22547">
        <ele>1048.4499511719</ele>
        <time>2011-06-18T08:01:26Z</time>
      </trkpt>
      <trkpt lat="43.89884" lon="7.22509">
        <ele>1049.9000244141</ele>
        <time>2011-06-18T08:01:49Z</time>
      </trkpt>
      <trkpt lat="43.89881" lon="7.22471">
        <ele>1053.2600097656</ele>
        <time>2011-06-18T08:02:11Z</time>
      </trkpt>
      <trkpt lat="43.89878" lon="7.2244">
        <ele>1055.1800537109</ele>
        <time>2011-06-18T08:02:30Z</time>
      </trkpt>
      <trkpt lat="43.89875" lon="7.22417">
        <ele>1056.1500244141</ele>
        <time>2011-06-18T08:02:47Z</time>
      </trkpt>
      <trkpt lat="43.89873" lon="7.22408">
        <ele>1056.6300048828</ele>
        <time>2011-06-18T08:03:04Z</time>
      </trkpt>
      <trkpt lat="43.89865" lon="7.22384">
        <ele>1057.1099853516</ele>
        <time>2011-06-18T08:03:19Z</time>
      </trkpt>
      <trkpt lat="43.89857" lon="7.2236">
        <ele>1058.5500488281</ele>
        <time>2011-06-18T08:03:35Z</time>
      </trkpt>
      <trkpt lat="43.89848" lon="7.22333">
        <ele>1057.5899658203</ele>
        <time>2011-06-18T08:03:53Z</time>
      </trkpt>
      <trkpt lat="43.89838" lon="7.22307">
        <ele>1057.5899658203</ele>
        <time>2011-06-18T08:04:10Z</time>
      </trkpt>
      <trkpt lat="43.89837" lon="7.22296">
        <ele>1058.0699462891</ele>
        <time>2011-06-18T08:04:23Z</time>
      </trkpt>
      <trkpt lat="43.8983" lon="7.22278">
        <ele>1057.1099853516</ele>
        <time>2011-06-18T08:04:37Z</time>
      </trkpt>
      <trkpt lat="43.89823" lon="7.22245">
        <ele>1056.6300048828</ele>
        <time>2011-06-18T08:04:57Z</time>
      </trkpt>
      <trkpt lat="43.8982" lon="7.22213">
        <ele>1058.0699462891</ele>
        <time>2011-06-18T08:05:17Z</time>
      </trkpt>
      <trkpt lat="43.8981" lon="7.22185">
        <ele>1058.5500488281</ele>
        <time>2011-06-18T08:05:34Z</time>
      </trkpt>
      <trkpt lat="43.898" lon="7.2216">
        <ele>1059.0300292969</ele>
        <time>2011-06-18T08:05:52Z</time>
      </trkpt>
      <trkpt lat="43.89788" lon="7.22136">
        <ele>1059.5100097656</ele>
        <time>2011-06-18T08:06:08Z</time>
      </trkpt>
      <trkpt lat="43.89785" lon="7.22117">
        <ele>1059.5100097656</ele>
        <time>2011-06-18T08:06:21Z</time>
      </trkpt>
      <trkpt lat="43.89783" lon="7.22111">
        <ele>1059.5100097656</ele>
        <time>2011-06-18T08:06:25Z</time>
      </trkpt>
      <trkpt lat="43.89776" lon="7.22075">
        <ele>1059.5100097656</ele>
        <time>2011-06-18T08:06:46Z</time>
      </trkpt>
      <trkpt lat="43.89768" lon="7.22033">
        <ele>1060.4699707031</ele>
        <time>2011-06-18T08:07:09Z</time>
      </trkpt>
      <trkpt lat="43.89754" lon="7.22004">
        <ele>1061.4300537109</ele>
        <time>2011-06-18T08:07:27Z</time>
      </trkpt>
      <trkpt lat="43.89744" lon="7.21979">
        <ele>1062.8699951172</ele>
        <time>2011-06-18T08:07:43Z</time>
      </trkpt>
      <trkpt lat="43.89739" lon="7.21969">
        <ele>1063.3599853516</ele>
        <time>2011-06-18T08:07:50Z</time>
      </trkpt>
      <trkpt lat="43.89737" lon="7.21961">
        <ele>1063.8399658203</ele>
        <time>2011-06-18T08:07:55Z</time>
      </trkpt>
      <trkpt lat="43.8973" lon="7.21933">
        <ele>1063.8399658203</ele>
        <time>2011-06-18T08:08:12Z</time>
      </trkpt>
      <trkpt lat="43.89725" lon="7.21927">
        <ele>1061.9100341797</ele>
        <time>2011-06-18T08:08:25Z</time>
      </trkpt>
      <trkpt lat="43.89721" lon="7.21918">
        <ele>1061.9100341797</ele>
        <time>2011-06-18T08:08:36Z</time>
      </trkpt>
      <trkpt lat="43.89713" lon="7.21901">
        <ele>1061.9100341797</ele>
        <time>2011-06-18T08:08:49Z</time>
      </trkpt>
      <trkpt lat="43.89702" lon="7.21862">
        <ele>1061.9100341797</ele>
        <time>2011-06-18T08:09:02Z</time>
      </trkpt>
      <trkpt lat="43.89698" lon="7.21837">
        <ele>1058.5500488281</ele>
        <time>2011-06-18T08:09:09Z</time>
      </trkpt>
      <trkpt lat="43.89688" lon="7.21827">
        <ele>1056.1500244141</ele>
        <time>2011-06-18T08:09:14Z</time>
      </trkpt>
      <trkpt lat="43.89681" lon="7.21811">
        <ele>1054.2199707031</ele>
        <time>2011-06-18T08:09:19Z</time>
      </trkpt>
      <trkpt lat="43.89681" lon="7.21775">
        <ele>1050.8599853516</ele>
        <time>2011-06-18T08:09:30Z</time>
      </trkpt>
      <trkpt lat="43.8968" lon="7.21772">
        <ele>1048.9399414062</ele>
        <time>2011-06-18T08:09:33Z</time>
      </trkpt>
      <trkpt lat="43.89672" lon="7.21769">
        <ele>1046.0500488281</ele>
        <time>2011-06-18T08:09:39Z</time>
      </trkpt>
      <trkpt lat="43.89663" lon="7.21762">
        <ele>1042.6899414062</ele>
        <time>2011-06-18T08:09:44Z</time>
      </trkpt>
      <trkpt lat="43.89658" lon="7.2176">
        <ele>1042.2099609375</ele>
        <time>2011-06-18T08:09:46Z</time>
      </trkpt>
      <trkpt lat="43.89655" lon="7.21759">
        <ele>1040.7600097656</ele>
        <time>2011-06-18T08:09:48Z</time>
      </trkpt>
      <trkpt lat="43.89645" lon="7.21758">
        <ele>1039.8000488281</ele>
        <time>2011-06-18T08:09:52Z</time>
      </trkpt>
      <trkpt lat="43.89629" lon="7.21751">
        <ele>1040.2800292969</ele>
        <time>2011-06-18T08:10:02Z</time>
      </trkpt>
      <trkpt lat="43.89614" lon="7.21744">
        <ele>1039.3199462891</ele>
        <time>2011-06-18T08:10:09Z</time>
      </trkpt>
      <trkpt lat="43.896" lon="7.21737">
        <ele>1037.4000244141</ele>
        <time>2011-06-18T08:10:16Z</time>
      </trkpt>
      <trkpt lat="43.89598" lon="7.21728">
        <ele>1035.9599609375</ele>
        <time>2011-06-18T08:10:19Z</time>
      </trkpt>
      <trkpt lat="43.89591" lon="7.21713">
        <ele>1032.1099853516</ele>
        <time>2011-06-18T08:10:25Z</time>
      </trkpt>
      <trkpt lat="43.89589" lon="7.21711">
        <ele>1032.5899658203</ele>
        <time>2011-06-18T08:10:26Z</time>
      </trkpt>
      <trkpt lat="43.89576" lon="7.21696">
        <ele>1026.8299560547</ele>
        <time>2011-06-18T08:10:33Z</time>
      </trkpt>
      <trkpt lat="43.89571" lon="7.21683">
        <ele>1024.4200439453</ele>
        <time>2011-06-18T08:10:39Z</time>
      </trkpt>
      <trkpt lat="43.89569" lon="7.21675">
        <ele>1023.9400024414</ele>
        <time>2011-06-18T08:10:42Z</time>
      </trkpt>
      <trkpt lat="43.89564" lon="7.21655">
        <ele>1019.6199951172</ele>
        <time>2011-06-18T08:10:48Z</time>
      </trkpt>
      <trkpt lat="43.89564" lon="7.21636">
        <ele>1016.25</ele>
        <time>2011-06-18T08:10:53Z</time>
      </trkpt>
      <trkpt lat="43.89565" lon="7.21633">
        <ele>1016.25</ele>
        <time>2011-06-18T08:10:54Z</time>
      </trkpt>
      <trkpt lat="43.89561" lon="7.21618">
        <ele>1012.8900146484</ele>
        <time>2011-06-18T08:10:59Z</time>
      </trkpt>
      <trkpt lat="43.8956" lon="7.21615">
        <ele>1012.4099731445</ele>
        <time>2011-06-18T08:11:00Z</time>
      </trkpt>
      <trkpt lat="43.89554" lon="7.216">
        <ele>1010</ele>
        <time>2011-06-18T08:11:06Z</time>
      </trkpt>
      <trkpt lat="43.89545" lon="7.21592">
        <ele>1007.5999755859</ele>
        <time>2011-06-18T08:11:11Z</time>
      </trkpt>
      <trkpt lat="43.89538" lon="7.21583">
        <ele>1005.6799926758</ele>
        <time>2011-06-18T08:11:15Z</time>
      </trkpt>
      <trkpt lat="43.89535" lon="7.21577">
        <ele>1006.1599731445</ele>
        <time>2011-06-18T08:11:17Z</time>
      </trkpt>
      <trkpt lat="43.89528" lon="7.21559">
        <ele>1003.75</ele>
        <time>2011-06-18T08:11:25Z</time>
      </trkpt>
      <trkpt lat="43.89526" lon="7.21554">
        <ele>1002.7899780273</ele>
        <time>2011-06-18T08:11:27Z</time>
      </trkpt>
      <trkpt lat="43.89527" lon="7.21546">
        <ele>1000.8699951172</ele>
        <time>2011-06-18T08:11:30Z</time>
      </trkpt>
      <trkpt lat="43.89523" lon="7.21508">
        <ele>996.05999755859</ele>
        <time>2011-06-18T08:11:40Z</time>
      </trkpt>
      <trkpt lat="43.89521" lon="7.21497">
        <ele>995.09997558594</ele>
        <time>2011-06-18T08:11:43Z</time>
      </trkpt>
      <trkpt lat="43.89522" lon="7.21482">
        <ele>994.14001464844</ele>
        <time>2011-06-18T08:11:49Z</time>
      </trkpt>
      <trkpt lat="43.89521" lon="7.21461">
        <ele>991.26000976562</ele>
        <time>2011-06-18T08:11:55Z</time>
      </trkpt>
      <trkpt lat="43.8952" lon="7.21447">
        <ele>987.89001464844</ele>
        <time>2011-06-18T08:11:59Z</time>
      </trkpt>
      <trkpt lat="43.8952" lon="7.21444">
        <ele>987.89001464844</ele>
        <time>2011-06-18T08:12:00Z</time>
      </trkpt>
      <trkpt lat="43.89519" lon="7.2144">
        <ele>987.40997314453</ele>
        <time>2011-06-18T08:12:01Z</time>
      </trkpt>
      <trkpt lat="43.89518" lon="7.21432">
        <ele>985.96997070312</ele>
        <time>2011-06-18T08:12:03Z</time>
      </trkpt>
      <trkpt lat="43.89516" lon="7.21407">
        <ele>984.04998779297</ele>
        <time>2011-06-18T08:12:09Z</time>
      </trkpt>
      <trkpt lat="43.89513" lon="7.21369">
        <ele>984.53002929688</ele>
        <time>2011-06-18T08:12:20Z</time>
      </trkpt>
      <trkpt lat="43.8951" lon="7.21331">
        <ele>985.01000976562</ele>
        <time>2011-06-18T08:12:30Z</time>
      </trkpt>
      <trkpt lat="43.8951" lon="7.21306">
        <ele>982.11999511719</ele>
        <time>2011-06-18T08:12:37Z</time>
      </trkpt>
      <trkpt lat="43.89511" lon="7.21271">
        <ele>980.20001220703</ele>
        <time>2011-06-18T08:12:47Z</time>
      </trkpt>
      <trkpt lat="43.8951" lon="7.21264">
        <ele>978.76000976562</ele>
        <time>2011-06-18T08:12:50Z</time>
      </trkpt>
      <trkpt lat="43.89508" lon="7.21248">
        <ele>975.39001464844</ele>
        <time>2011-06-18T08:12:56Z</time>
      </trkpt>
      <trkpt lat="43.89504" lon="7.21236">
        <ele>974.42999267578</ele>
        <time>2011-06-18T08:13:00Z</time>
      </trkpt>
      <trkpt lat="43.89501" lon="7.2123">
        <ele>973.46997070312</ele>
        <time>2011-06-18T08:13:02Z</time>
      </trkpt>
      <trkpt lat="43.89499" lon="7.21225">
        <ele>972.98999023438</ele>
        <time>2011-06-18T08:13:04Z</time>
      </trkpt>
      <trkpt lat="43.89488" lon="7.21211">
        <ele>970.10998535156</ele>
        <time>2011-06-18T08:13:11Z</time>
      </trkpt>
      <trkpt lat="43.89484" lon="7.21204">
        <ele>968.17999267578</ele>
        <time>2011-06-18T08:13:14Z</time>
      </trkpt>
      <trkpt lat="43.89475" lon="7.2119">
        <ele>964.82000732422</ele>
        <time>2011-06-18T08:13:19Z</time>
      </trkpt>
      <trkpt lat="43.89455" lon="7.21172">
        <ele>961.46002197266</ele>
        <time>2011-06-18T08:13:30Z</time>
      </trkpt>
      <trkpt lat="43.89445" lon="7.21167">
        <ele>962.41998291016</ele>
        <time>2011-06-18T08:13:35Z</time>
      </trkpt>
      <trkpt lat="43.89437" lon="7.21164">
        <ele>961.94000244141</ele>
        <time>2011-06-18T08:13:39Z</time>
      </trkpt>
      <trkpt lat="43.89418" lon="7.21144">
        <ele>959.04998779297</ele>
        <time>2011-06-18T08:13:48Z</time>
      </trkpt>
      <trkpt lat="43.89402" lon="7.21125">
        <ele>958.09002685547</ele>
        <time>2011-06-18T08:13:55Z</time>
      </trkpt>
      <trkpt lat="43.89378" lon="7.21098">
        <ele>955.69000244141</ele>
        <time>2011-06-18T08:14:06Z</time>
      </trkpt>
      <trkpt lat="43.89356" lon="7.21083">
        <ele>953.28002929688</ele>
        <time>2011-06-18T08:14:16Z</time>
      </trkpt>
      <trkpt lat="43.89334" lon="7.21063">
        <ele>950.88000488281</ele>
        <time>2011-06-18T08:14:26Z</time>
      </trkpt>
      <trkpt lat="43.89331" lon="7.2106">
        <ele>950.40002441406</ele>
        <time>2011-06-18T08:14:27Z</time>
      </trkpt>
      <trkpt lat="43.8932" lon="7.21055">
        <ele>949.44000244141</ele>
        <time>2011-06-18T08:14:30Z</time>
      </trkpt>
      <trkpt lat="43.89311" lon="7.21051">
        <ele>947.52001953125</ele>
        <time>2011-06-18T08:14:33Z</time>
      </trkpt>
      <trkpt lat="43.89297" lon="7.21039">
        <ele>945.10998535156</ele>
        <time>2011-06-18T08:14:38Z</time>
      </trkpt>
      <trkpt lat="43.89269" lon="7.2103">
        <ele>941.27001953125</ele>
        <time>2011-06-18T08:14:47Z</time>
      </trkpt>
      <trkpt lat="43.89267" lon="7.21029">
        <ele>941.75</ele>
        <time>2011-06-18T08:14:48Z</time>
      </trkpt>
      <trkpt lat="43.89257" lon="7.21024">
        <ele>940.30999755859</ele>
        <time>2011-06-18T08:14:51Z</time>
      </trkpt>
      <trkpt lat="43.89243" lon="7.21016">
        <ele>938.38000488281</ele>
        <time>2011-06-18T08:14:56Z</time>
      </trkpt>
      <trkpt lat="43.89232" lon="7.21004">
        <ele>934.53997802734</ele>
        <time>2011-06-18T08:15:02Z</time>
      </trkpt>
      <trkpt lat="43.89224" lon="7.20998">
        <ele>932.61999511719</ele>
        <time>2011-06-18T08:15:06Z</time>
      </trkpt>
      <trkpt lat="43.89207" lon="7.20982">
        <ele>929.25</ele>
        <time>2011-06-18T08:15:13Z</time>
      </trkpt>
      <trkpt lat="43.89205" lon="7.20979">
        <ele>928.77001953125</ele>
        <time>2011-06-18T08:15:14Z</time>
      </trkpt>
      <trkpt lat="43.89189" lon="7.20965">
        <ele>925.89001464844</ele>
        <time>2011-06-18T08:15:20Z</time>
      </trkpt>
      <trkpt lat="43.89159" lon="7.20959">
        <ele>924.45001220703</ele>
        <time>2011-06-18T08:15:31Z</time>
      </trkpt>
      <trkpt lat="43.89126" lon="7.20951">
        <ele>923.47998046875</ele>
        <time>2011-06-18T08:15:42Z</time>
      </trkpt>
      <trkpt lat="43.89115" lon="7.2095">
        <ele>924.92999267578</ele>
        <time>2011-06-18T08:15:46Z</time>
      </trkpt>
      <trkpt lat="43.89083" lon="7.20923">
        <ele>921.08001708984</ele>
        <time>2011-06-18T08:15:59Z</time>
      </trkpt>
      <trkpt lat="43.89069" lon="7.20905">
        <ele>921.08001708984</ele>
        <time>2011-06-18T08:16:05Z</time>
      </trkpt>
      <trkpt lat="43.89048" lon="7.20864">
        <ele>920.11999511719</ele>
        <time>2011-06-18T08:16:18Z</time>
      </trkpt>
      <trkpt lat="43.8904" lon="7.20831">
        <ele>921.08001708984</ele>
        <time>2011-06-18T08:16:29Z</time>
      </trkpt>
      <trkpt lat="43.89037" lon="7.20827">
        <ele>921.55999755859</ele>
        <time>2011-06-18T08:16:31Z</time>
      </trkpt>
      <trkpt lat="43.89019" lon="7.20802">
        <ele>922.52001953125</ele>
        <time>2011-06-18T08:16:44Z</time>
      </trkpt>
      <trkpt lat="43.89011" lon="7.20797">
        <ele>921.08001708984</ele>
        <time>2011-06-18T08:16:54Z</time>
      </trkpt>
      <trkpt lat="43.89" lon="7.20791">
        <ele>917.71997070312</ele>
        <time>2011-06-18T08:16:59Z</time>
      </trkpt>
      <trkpt lat="43.88982" lon="7.20781">
        <ele>914.83001708984</ele>
        <time>2011-06-18T08:17:05Z</time>
      </trkpt>
      <trkpt lat="43.88967" lon="7.20775">
        <ele>910.51000976562</ele>
        <time>2011-06-18T08:17:10Z</time>
      </trkpt>
      <trkpt lat="43.88961" lon="7.20773">
        <ele>909.05999755859</ele>
        <time>2011-06-18T08:17:12Z</time>
      </trkpt>
      <trkpt lat="43.88955" lon="7.20768">
        <ele>906.17999267578</ele>
        <time>2011-06-18T08:17:15Z</time>
      </trkpt>
      <trkpt lat="43.88939" lon="7.20749">
        <ele>901.84997558594</ele>
        <time>2011-06-18T08:17:23Z</time>
      </trkpt>
      <trkpt lat="43.88928" lon="7.2074">
        <ele>898.48999023438</ele>
        <time>2011-06-18T08:17:30Z</time>
      </trkpt>
      <trkpt lat="43.88922" lon="7.20737">
        <ele>895.60998535156</ele>
        <time>2011-06-18T08:17:35Z</time>
      </trkpt>
      <trkpt lat="43.88919" lon="7.20733">
        <ele>894.64001464844</ele>
        <time>2011-06-18T08:17:37Z</time>
      </trkpt>
      <trkpt lat="43.88917" lon="7.20728">
        <ele>892.71997070312</ele>
        <time>2011-06-18T08:17:39Z</time>
      </trkpt>
      <trkpt lat="43.88915" lon="7.20723">
        <ele>891.76000976562</ele>
        <time>2011-06-18T08:17:41Z</time>
      </trkpt>
      <trkpt lat="43.88911" lon="7.20718">
        <ele>890.79998779297</ele>
        <time>2011-06-18T08:17:43Z</time>
      </trkpt>
      <trkpt lat="43.88903" lon="7.20711">
        <ele>889.35998535156</ele>
        <time>2011-06-18T08:17:46Z</time>
      </trkpt>
      <trkpt lat="43.8889" lon="7.20704">
        <ele>885.98999023438</ele>
        <time>2011-06-18T08:17:51Z</time>
      </trkpt>
      <trkpt lat="43.88876" lon="7.20695">
        <ele>882.63000488281</ele>
        <time>2011-06-18T08:17:57Z</time>
      </trkpt>
      <trkpt lat="43.88871" lon="7.20692">
        <ele>881.66998291016</ele>
        <time>2011-06-18T08:17:59Z</time>
      </trkpt>
      <trkpt lat="43.88856" lon="7.2069">
        <ele>879.73999023438</ele>
        <time>2011-06-18T08:18:05Z</time>
      </trkpt>
      <trkpt lat="43.88847" lon="7.20683">
        <ele>876.85998535156</ele>
        <time>2011-06-18T08:18:09Z</time>
      </trkpt>
      <trkpt lat="43.88847" lon="7.20651">
        <ele>874.46002197266</ele>
        <time>2011-06-18T08:18:17Z</time>
      </trkpt>
      <trkpt lat="43.88845" lon="7.20633">
        <ele>873.01000976562</ele>
        <time>2011-06-18T08:18:22Z</time>
      </trkpt>
      <trkpt lat="43.88845" lon="7.20626">
        <ele>872.04998779297</ele>
        <time>2011-06-18T08:18:24Z</time>
      </trkpt>
      <trkpt lat="43.88847" lon="7.20611">
        <ele>871.09002685547</ele>
        <time>2011-06-18T08:18:28Z</time>
      </trkpt>
      <trkpt lat="43.88857" lon="7.20568">
        <ele>869.65002441406</ele>
        <time>2011-06-18T08:18:39Z</time>
      </trkpt>
      <trkpt lat="43.8886" lon="7.20531">
        <ele>866.28997802734</ele>
        <time>2011-06-18T08:18:48Z</time>
      </trkpt>
      <trkpt lat="43.8886" lon="7.20526">
        <ele>866.28997802734</ele>
        <time>2011-06-18T08:18:49Z</time>
      </trkpt>
      <trkpt lat="43.88845" lon="7.20503">
        <ele>862.91998291016</ele>
        <time>2011-06-18T08:18:57Z</time>
      </trkpt>
      <trkpt lat="43.88839" lon="7.20499">
        <ele>862.44000244141</ele>
        <time>2011-06-18T08:18:59Z</time>
      </trkpt>
      <trkpt lat="43.88822" lon="7.20487">
        <ele>858.59002685547</ele>
        <time>2011-06-18T08:19:06Z</time>
      </trkpt>
      <trkpt lat="43.8882" lon="7.20486">
        <ele>858.59002685547</ele>
        <time>2011-06-18T08:19:07Z</time>
      </trkpt>
      <trkpt lat="43.88794" lon="7.20467">
        <ele>855.22998046875</ele>
        <time>2011-06-18T08:19:17Z</time>
      </trkpt>
      <trkpt lat="43.88784" lon="7.20463">
        <ele>853.78997802734</ele>
        <time>2011-06-18T08:19:21Z</time>
      </trkpt>
      <trkpt lat="43.88755" lon="7.20455">
        <ele>850.90002441406</ele>
        <time>2011-06-18T08:19:31Z</time>
      </trkpt>
      <trkpt lat="43.88737" lon="7.20452">
        <ele>849.46002197266</ele>
        <time>2011-06-18T08:19:42Z</time>
      </trkpt>
      <trkpt lat="43.88736" lon="7.20451">
        <ele>848.97998046875</ele>
        <time>2011-06-18T08:20:04Z</time>
      </trkpt>
      <trkpt lat="43.88734" lon="7.20447">
        <ele>848.97998046875</ele>
        <time>2011-06-18T08:22:45Z</time>
      </trkpt>
      <trkpt lat="43.88734" lon="7.20447">
        <ele>849.46002197266</ele>
        <time>2011-06-18T08:22:49Z</time>
      </trkpt>
      <trkpt lat="43.88734" lon="7.20447">
        <ele>845.61999511719</ele>
        <time>2011-06-18T08:23:13Z</time>
      </trkpt>
      <trkpt lat="43.88734" lon="7.20447">
        <ele>849.94000244141</ele>
        <time>2011-06-18T08:23:14Z</time>
      </trkpt>
      <trkpt lat="43.88734" lon="7.20447">
        <ele>847.05999755859</ele>
        <time>2011-06-18T08:23:58Z</time>
      </trkpt>
      <trkpt lat="43.88734" lon="7.20446">
        <ele>850.41998291016</ele>
        <time>2011-06-18T08:24:00Z</time>
      </trkpt>
      <trkpt lat="43.88739" lon="7.20442">
        <ele>847.05999755859</ele>
        <time>2011-06-18T08:24:30Z</time>
      </trkpt>
      <trkpt lat="43.8874" lon="7.2044">
        <ele>847.05999755859</ele>
        <time>2011-06-18T08:24:31Z</time>
      </trkpt>
      <trkpt lat="43.88754" lon="7.20434">
        <ele>845.61999511719</ele>
        <time>2011-06-18T08:24:41Z</time>
      </trkpt>
      <trkpt lat="43.88761" lon="7.20429">
        <ele>844.17999267578</ele>
        <time>2011-06-18T08:24:50Z</time>
      </trkpt>
      <trkpt lat="43.88763" lon="7.20429">
        <ele>844.17999267578</ele>
        <time>2011-06-18T08:24:52Z</time>
      </trkpt>
      <trkpt lat="43.88787" lon="7.20429">
        <ele>841.28997802734</ele>
        <time>2011-06-18T08:25:06Z</time>
      </trkpt>
      <trkpt lat="43.88811" lon="7.20428">
        <ele>839.36999511719</ele>
        <time>2011-06-18T08:25:20Z</time>
      </trkpt>
      <trkpt lat="43.8884" lon="7.20431">
        <ele>836.47998046875</ele>
        <time>2011-06-18T08:25:32Z</time>
      </trkpt>
      <trkpt lat="43.88865" lon="7.20443">
        <ele>835.03997802734</ele>
        <time>2011-06-18T08:25:45Z</time>
      </trkpt>
      <trkpt lat="43.88895" lon="7.2046">
        <ele>833.11999511719</ele>
        <time>2011-06-18T08:25:58Z</time>
      </trkpt>
      <trkpt lat="43.88912" lon="7.20484">
        <ele>830.71997070312</ele>
        <time>2011-06-18T08:26:10Z</time>
      </trkpt>
      <trkpt lat="43.88923" lon="7.2051">
        <ele>828.30999755859</ele>
        <time>2011-06-18T08:26:20Z</time>
      </trkpt>
      <trkpt lat="43.88929" lon="7.2052">
        <ele>826.86999511719</ele>
        <time>2011-06-18T08:26:24Z</time>
      </trkpt>
      <trkpt lat="43.88935" lon="7.20537">
        <ele>824.95001220703</ele>
        <time>2011-06-18T08:26:30Z</time>
      </trkpt>
      <trkpt lat="43.88937" lon="7.20561">
        <ele>822.54998779297</ele>
        <time>2011-06-18T08:26:38Z</time>
      </trkpt>
      <trkpt lat="43.88945" lon="7.20567">
        <ele>823.51000976562</ele>
        <time>2011-06-18T08:26:44Z</time>
      </trkpt>
      <trkpt lat="43.88955" lon="7.20579">
        <ele>825.90997314453</ele>
        <time>2011-06-18T08:26:52Z</time>
      </trkpt>
      <trkpt lat="43.88974" lon="7.20573">
        <ele>824.95001220703</ele>
        <time>2011-06-18T08:27:02Z</time>
      </trkpt>
      <trkpt lat="43.89001" lon="7.20551">
        <ele>823.98999023438</ele>
        <time>2011-06-18T08:27:17Z</time>
      </trkpt>
      <trkpt lat="43.89027" lon="7.20526">
        <ele>821.58001708984</ele>
        <time>2011-06-18T08:27:31Z</time>
      </trkpt>
      <trkpt lat="43.89033" lon="7.20525">
        <ele>821.09997558594</ele>
        <time>2011-06-18T08:27:34Z</time>
      </trkpt>
      <trkpt lat="43.89037" lon="7.20526">
        <ele>819.65997314453</ele>
        <time>2011-06-18T08:27:36Z</time>
      </trkpt>
      <trkpt lat="43.8905" lon="7.20537">
        <ele>816.78002929688</ele>
        <time>2011-06-18T08:27:43Z</time>
      </trkpt>
      <trkpt lat="43.89067" lon="7.2055">
        <ele>813.89001464844</ele>
        <time>2011-06-18T08:27:52Z</time>
      </trkpt>
      <trkpt lat="43.89093" lon="7.2056">
        <ele>810.53002929688</ele>
        <time>2011-06-18T08:28:02Z</time>
      </trkpt>
      <trkpt lat="43.89103" lon="7.20567">
        <ele>809.09002685547</ele>
        <time>2011-06-18T08:28:06Z</time>
      </trkpt>
      <trkpt lat="43.8911" lon="7.2057">
        <ele>807.64001464844</ele>
        <time>2011-06-18T08:28:09Z</time>
      </trkpt>
      <trkpt lat="43.89117" lon="7.20573">
        <ele>806.67999267578</ele>
        <time>2011-06-18T08:28:12Z</time>
      </trkpt>
      <trkpt lat="43.89122" lon="7.20574">
        <ele>805.71997070312</ele>
        <time>2011-06-18T08:28:14Z</time>
      </trkpt>
      <trkpt lat="43.89135" lon="7.20577">
        <ele>802.35998535156</ele>
        <time>2011-06-18T08:28:20Z</time>
      </trkpt>
      <trkpt lat="43.89149" lon="7.20579">
        <ele>800.44000244141</ele>
        <time>2011-06-18T08:28:26Z</time>
      </trkpt>
      <trkpt lat="43.89164" lon="7.20555">
        <ele>797.54998779297</ele>
        <time>2011-06-18T08:28:36Z</time>
      </trkpt>
      <trkpt lat="43.89185" lon="7.20521">
        <ele>793.71002197266</ele>
        <time>2011-06-18T08:28:48Z</time>
      </trkpt>
      <trkpt lat="43.89186" lon="7.20518">
        <ele>794.19000244141</ele>
        <time>2011-06-18T08:28:49Z</time>
      </trkpt>
      <trkpt lat="43.89198" lon="7.20498">
        <ele>790.34002685547</ele>
        <time>2011-06-18T08:28:57Z</time>
      </trkpt>
      <trkpt lat="43.89204" lon="7.20488">
        <ele>789.38000488281</ele>
        <time>2011-06-18T08:29:01Z</time>
      </trkpt>
      <trkpt lat="43.89209" lon="7.20483">
        <ele>787.94000244141</ele>
        <time>2011-06-18T08:29:04Z</time>
      </trkpt>
      <trkpt lat="43.89219" lon="7.2048">
        <ele>785.04998779297</ele>
        <time>2011-06-18T08:29:09Z</time>
      </trkpt>
      <trkpt lat="43.89223" lon="7.20479">
        <ele>784.09002685547</ele>
        <time>2011-06-18T08:29:11Z</time>
      </trkpt>
      <trkpt lat="43.89228" lon="7.20476">
        <ele>782.65002441406</ele>
        <time>2011-06-18T08:29:14Z</time>
      </trkpt>
      <trkpt lat="43.89235" lon="7.20471">
        <ele>780.72998046875</ele>
        <time>2011-06-18T08:29:18Z</time>
      </trkpt>
      <trkpt lat="43.89241" lon="7.20471">
        <ele>778.32000732422</ele>
        <time>2011-06-18T08:29:21Z</time>
      </trkpt>
      <trkpt lat="43.89251" lon="7.20469">
        <ele>775.91998291016</ele>
        <time>2011-06-18T08:29:25Z</time>
      </trkpt>
      <trkpt lat="43.89264" lon="7.20461">
        <ele>772.55999755859</ele>
        <time>2011-06-18T08:29:31Z</time>
      </trkpt>
      <trkpt lat="43.89275" lon="7.20453">
        <ele>769.66998291016</ele>
        <time>2011-06-18T08:29:36Z</time>
      </trkpt>
      <trkpt lat="43.89293" lon="7.20443">
        <ele>766.30999755859</ele>
        <time>2011-06-18T08:29:42Z</time>
      </trkpt>
      <trkpt lat="43.89295" lon="7.20441">
        <ele>766.30999755859</ele>
        <time>2011-06-18T08:29:43Z</time>
      </trkpt>
      <trkpt lat="43.89309" lon="7.20431">
        <ele>764.39001464844</ele>
        <time>2011-06-18T08:29:48Z</time>
      </trkpt>
      <trkpt lat="43.89318" lon="7.20426">
        <ele>762.94000244141</ele>
        <time>2011-06-18T08:29:51Z</time>
      </trkpt>
      <trkpt lat="43.8933" lon="7.20423">
        <ele>761.5</ele>
        <time>2011-06-18T08:29:55Z</time>
      </trkpt>
      <trkpt lat="43.89343" lon="7.20417">
        <ele>757.65997314453</ele>
        <time>2011-06-18T08:30:00Z</time>
      </trkpt>
      <trkpt lat="43.89347" lon="7.20413">
        <ele>757.17999267578</ele>
        <time>2011-06-18T08:30:02Z</time>
      </trkpt>
      <trkpt lat="43.8935" lon="7.20411">
        <ele>756.21002197266</ele>
        <time>2011-06-18T08:30:03Z</time>
      </trkpt>
      <trkpt lat="43.89354" lon="7.20407">
        <ele>755.25</ele>
        <time>2011-06-18T08:30:05Z</time>
      </trkpt>
      <trkpt lat="43.89359" lon="7.204">
        <ele>753.80999755859</ele>
        <time>2011-06-18T08:30:08Z</time>
      </trkpt>
      <trkpt lat="43.89363" lon="7.20391">
        <ele>751.40997314453</ele>
        <time>2011-06-18T08:30:11Z</time>
      </trkpt>
      <trkpt lat="43.89372" lon="7.20387">
        <ele>748.03997802734</ele>
        <time>2011-06-18T08:30:16Z</time>
      </trkpt>
      <trkpt lat="43.89375" lon="7.20387">
        <ele>748.52001953125</ele>
        <time>2011-06-18T08:30:17Z</time>
      </trkpt>
      <trkpt lat="43.89379" lon="7.20387">
        <ele>746.59997558594</ele>
        <time>2011-06-18T08:30:19Z</time>
      </trkpt>
      <trkpt lat="43.89389" lon="7.20383">
        <ele>742.28002929688</ele>
        <time>2011-06-18T08:30:24Z</time>
      </trkpt>
      <trkpt lat="43.89401" lon="7.20377">
        <ele>738.90997314453</ele>
        <time>2011-06-18T08:30:29Z</time>
      </trkpt>
      <trkpt lat="43.89409" lon="7.20374">
        <ele>736.98999023438</ele>
        <time>2011-06-18T08:30:32Z</time>
      </trkpt>
      <trkpt lat="43.89418" lon="7.20369">
        <ele>735.54998779297</ele>
        <time>2011-06-18T08:30:36Z</time>
      </trkpt>
      <trkpt lat="43.89421" lon="7.20369">
        <ele>735.07000732422</ele>
        <time>2011-06-18T08:30:37Z</time>
      </trkpt>
      <trkpt lat="43.89425" lon="7.20359">
        <ele>730.73999023438</ele>
        <time>2011-06-18T08:30:44Z</time>
      </trkpt>
      <trkpt lat="43.89424" lon="7.20354">
        <ele>729.29998779297</ele>
        <time>2011-06-18T08:30:47Z</time>
      </trkpt>
      <trkpt lat="43.89436" lon="7.20344">
        <ele>725.92999267578</ele>
        <time>2011-06-18T08:30:52Z</time>
      </trkpt>
      <trkpt lat="43.89439" lon="7.20339">
        <ele>725.45001220703</ele>
        <time>2011-06-18T08:30:55Z</time>
      </trkpt>
      <trkpt lat="43.89437" lon="7.20335">
        <ele>724.48999023438</ele>
        <time>2011-06-18T08:30:57Z</time>
      </trkpt>
      <trkpt lat="43.89441" lon="7.2033">
        <ele>721.13000488281</ele>
        <time>2011-06-18T08:31:01Z</time>
      </trkpt>
      <trkpt lat="43.89444" lon="7.20329">
        <ele>720.65002441406</ele>
        <time>2011-06-18T08:31:02Z</time>
      </trkpt>
      <trkpt lat="43.89449" lon="7.20323">
        <ele>716.79998779297</ele>
        <time>2011-06-18T08:31:07Z</time>
      </trkpt>
      <trkpt lat="43.89449" lon="7.20321">
        <ele>717.28002929688</ele>
        <time>2011-06-18T08:31:08Z</time>
      </trkpt>
      <trkpt lat="43.89454" lon="7.20318">
        <ele>713.91998291016</ele>
        <time>2011-06-18T08:31:13Z</time>
      </trkpt>
      <trkpt lat="43.89462" lon="7.20321">
        <ele>713.44000244141</ele>
        <time>2011-06-18T08:31:16Z</time>
      </trkpt>
      <trkpt lat="43.89468" lon="7.20324">
        <ele>711.98999023438</ele>
        <time>2011-06-18T08:31:19Z</time>
      </trkpt>
      <trkpt lat="43.89476" lon="7.20322">
        <ele>708.63000488281</ele>
        <time>2011-06-18T08:31:23Z</time>
      </trkpt>
      <trkpt lat="43.89485" lon="7.20315">
        <ele>704.29998779297</ele>
        <time>2011-06-18T08:31:28Z</time>
      </trkpt>
      <trkpt lat="43.89489" lon="7.20311">
        <ele>702.85998535156</ele>
        <time>2011-06-18T08:31:31Z</time>
      </trkpt>
      <trkpt lat="43.89494" lon="7.20308">
        <ele>699.97998046875</ele>
        <time>2011-06-18T08:31:34Z</time>
      </trkpt>
      <trkpt lat="43.89499" lon="7.20305">
        <ele>698.04998779297</ele>
        <time>2011-06-18T08:31:38Z</time>
      </trkpt>
      <trkpt lat="43.895" lon="7.20303">
        <ele>697.09002685547</ele>
        <time>2011-06-18T08:31:39Z</time>
      </trkpt>
      <trkpt lat="43.89502" lon="7.20301">
        <ele>696.60998535156</ele>
        <time>2011-06-18T08:31:41Z</time>
      </trkpt>
      <trkpt lat="43.89507" lon="7.203">
        <ele>694.69000244141</ele>
        <time>2011-06-18T08:31:44Z</time>
      </trkpt>
      <trkpt lat="43.89509" lon="7.2029">
        <ele>692.28997802734</ele>
        <time>2011-06-18T08:31:50Z</time>
      </trkpt>
      <trkpt lat="43.89515" lon="7.20289">
        <ele>690.84002685547</ele>
        <time>2011-06-18T08:31:53Z</time>
      </trkpt>
      <trkpt lat="43.89524" lon="7.20289">
        <ele>687.47998046875</ele>
        <time>2011-06-18T08:31:58Z</time>
      </trkpt>
      <trkpt lat="43.89525" lon="7.20287">
        <ele>687.47998046875</ele>
        <time>2011-06-18T08:31:59Z</time>
      </trkpt>
      <trkpt lat="43.89532" lon="7.20288">
        <ele>683.63000488281</ele>
        <time>2011-06-18T08:32:04Z</time>
      </trkpt>
      <trkpt lat="43.89538" lon="7.20297">
        <ele>681.22998046875</ele>
        <time>2011-06-18T08:32:09Z</time>
      </trkpt>
      <trkpt lat="43.89545" lon="7.20291">
        <ele>678.34997558594</ele>
        <time>2011-06-18T08:32:14Z</time>
      </trkpt>
      <trkpt lat="43.89549" lon="7.20288">
        <ele>676.90997314453</ele>
        <time>2011-06-18T08:32:16Z</time>
      </trkpt>
      <trkpt lat="43.89555" lon="7.20273">
        <ele>674.02001953125</ele>
        <time>2011-06-18T08:32:21Z</time>
      </trkpt>
      <trkpt lat="43.8956" lon="7.20268">
        <ele>672.09997558594</ele>
        <time>2011-06-18T08:32:25Z</time>
      </trkpt>
      <trkpt lat="43.89562" lon="7.20273">
        <ele>670.65997314453</ele>
        <time>2011-06-18T08:32:27Z</time>
      </trkpt>
      <trkpt lat="43.89565" lon="7.20274">
        <ele>668.72998046875</ele>
        <time>2011-06-18T08:32:30Z</time>
      </trkpt>
      <trkpt lat="43.89572" lon="7.20267">
        <ele>666.80999755859</ele>
        <time>2011-06-18T08:32:34Z</time>
      </trkpt>
      <trkpt lat="43.89576" lon="7.20262">
        <ele>664.89001464844</ele>
        <time>2011-06-18T08:32:36Z</time>
      </trkpt>
      <trkpt lat="43.89581" lon="7.20269">
        <ele>661.52001953125</ele>
        <time>2011-06-18T08:32:43Z</time>
      </trkpt>
      <trkpt lat="43.89581" lon="7.20277">
        <ele>660.08001708984</ele>
        <time>2011-06-18T08:32:46Z</time>
      </trkpt>
      <trkpt lat="43.89584" lon="7.20289">
        <ele>657.67999267578</ele>
        <time>2011-06-18T08:32:51Z</time>
      </trkpt>
      <trkpt lat="43.8959" lon="7.2031">
        <ele>654.30999755859</ele>
        <time>2011-06-18T08:32:59Z</time>
      </trkpt>
      <trkpt lat="43.89594" lon="7.20311">
        <ele>652.86999511719</ele>
        <time>2011-06-18T08:33:01Z</time>
      </trkpt>
      <trkpt lat="43.89598" lon="7.20312">
        <ele>651.42999267578</ele>
        <time>2011-06-18T08:33:03Z</time>
      </trkpt>
      <trkpt lat="43.89605" lon="7.20314">
        <ele>648.54998779297</ele>
        <time>2011-06-18T08:33:06Z</time>
      </trkpt>
      <trkpt lat="43.89615" lon="7.20308">
        <ele>645.17999267578</ele>
        <time>2011-06-18T08:33:12Z</time>
      </trkpt>
      <trkpt lat="43.89623" lon="7.20306">
        <ele>641.82000732422</ele>
        <time>2011-06-18T08:33:18Z</time>
      </trkpt>
      <trkpt lat="43.89629" lon="7.20308">
        <ele>639.89001464844</ele>
        <time>2011-06-18T08:33:21Z</time>
      </trkpt>
      <trkpt lat="43.89631" lon="7.20298">
        <ele>637.48999023438</ele>
        <time>2011-06-18T08:33:27Z</time>
      </trkpt>
      <trkpt lat="43.89632" lon="7.20289">
        <ele>635.09002685547</ele>
        <time>2011-06-18T08:33:31Z</time>
      </trkpt>
      <trkpt lat="43.89637" lon="7.20281">
        <ele>630.76000976562</ele>
        <time>2011-06-18T08:33:37Z</time>
      </trkpt>
      <trkpt lat="43.89644" lon="7.20284">
        <ele>629.79998779297</ele>
        <time>2011-06-18T08:33:40Z</time>
      </trkpt>
      <trkpt lat="43.89651" lon="7.20297">
        <ele>626.91998291016</ele>
        <time>2011-06-18T08:33:46Z</time>
      </trkpt>
      <trkpt lat="43.89652" lon="7.20296">
        <ele>625.96002197266</ele>
        <time>2011-06-18T08:33:47Z</time>
      </trkpt>
      <trkpt lat="43.89657" lon="7.20298">
        <ele>624.98999023438</ele>
        <time>2011-06-18T08:33:51Z</time>
      </trkpt>
      <trkpt lat="43.89663" lon="7.20307">
        <ele>621.15002441406</ele>
        <time>2011-06-18T08:33:56Z</time>
      </trkpt>
      <trkpt lat="43.89666" lon="7.20309">
        <ele>620.66998291016</ele>
        <time>2011-06-18T08:33:58Z</time>
      </trkpt>
      <trkpt lat="43.89675" lon="7.20304">
        <ele>617.78002929688</ele>
        <time>2011-06-18T08:34:03Z</time>
      </trkpt>
      <trkpt lat="43.89684" lon="7.20301">
        <ele>614.90002441406</ele>
        <time>2011-06-18T08:34:08Z</time>
      </trkpt>
      <trkpt lat="43.89692" lon="7.20296">
        <ele>611.53997802734</ele>
        <time>2011-06-18T08:34:12Z</time>
      </trkpt>
      <trkpt lat="43.89698" lon="7.20289">
        <ele>609.13000488281</ele>
        <time>2011-06-18T08:34:16Z</time>
      </trkpt>
      <trkpt lat="43.89703" lon="7.2028">
        <ele>606.25</ele>
        <time>2011-06-18T08:34:20Z</time>
      </trkpt>
      <trkpt lat="43.89707" lon="7.20273">
        <ele>603.84997558594</ele>
        <time>2011-06-18T08:34:23Z</time>
      </trkpt>
      <trkpt lat="43.89713" lon="7.20268">
        <ele>601.91998291016</ele>
        <time>2011-06-18T08:34:26Z</time>
      </trkpt>
      <trkpt lat="43.89718" lon="7.20266">
        <ele>600.47998046875</ele>
        <time>2011-06-18T08:34:28Z</time>
      </trkpt>
      <trkpt lat="43.89727" lon="7.20261">
        <ele>598.08001708984</ele>
        <time>2011-06-18T08:34:32Z</time>
      </trkpt>
      <trkpt lat="43.89734" lon="7.20256">
        <ele>594.22998046875</ele>
        <time>2011-06-18T08:34:39Z</time>
      </trkpt>
      <trkpt lat="43.89748" lon="7.20254">
        <ele>591.34997558594</ele>
        <time>2011-06-18T08:34:45Z</time>
      </trkpt>
      <trkpt lat="43.89755" lon="7.20251">
        <ele>588.95001220703</ele>
        <time>2011-06-18T08:34:48Z</time>
      </trkpt>
      <trkpt lat="43.89769" lon="7.20255">
        <ele>585.58001708984</ele>
        <time>2011-06-18T08:34:58Z</time>
      </trkpt>
      <trkpt lat="43.8978" lon="7.20265">
        <ele>583.17999267578</ele>
        <time>2011-06-18T08:35:04Z</time>
      </trkpt>
      <trkpt lat="43.89791" lon="7.20276">
        <ele>578.84997558594</ele>
        <time>2011-06-18T08:35:10Z</time>
      </trkpt>
      <trkpt lat="43.89805" lon="7.20297">
        <ele>577.89001464844</ele>
        <time>2011-06-18T08:35:20Z</time>
      </trkpt>
      <trkpt lat="43.89825" lon="7.20336">
        <ele>574.53002929688</ele>
        <time>2011-06-18T08:35:34Z</time>
      </trkpt>
      <trkpt lat="43.89827" lon="7.20344">
        <ele>573.08001708984</ele>
        <time>2011-06-18T08:35:37Z</time>
      </trkpt>
      <trkpt lat="43.89828" lon="7.20346">
        <ele>572.59997558594</ele>
        <time>2011-06-18T08:35:38Z</time>
      </trkpt>
      <trkpt lat="43.89831" lon="7.20351">
        <ele>571.64001464844</ele>
        <time>2011-06-18T08:35:43Z</time>
      </trkpt>
      <trkpt lat="43.89836" lon="7.20357">
        <ele>567.32000732422</ele>
        <time>2011-06-18T08:35:48Z</time>
      </trkpt>
      <trkpt lat="43.89843" lon="7.20369">
        <ele>563.95001220703</ele>
        <time>2011-06-18T08:35:53Z</time>
      </trkpt>
      <trkpt lat="43.89851" lon="7.20376">
        <ele>563.46997070312</ele>
        <time>2011-06-18T08:35:58Z</time>
      </trkpt>
      <trkpt lat="43.89857" lon="7.20382">
        <ele>561.54998779297</ele>
        <time>2011-06-18T08:36:01Z</time>
      </trkpt>
      <trkpt lat="43.89858" lon="7.20384">
        <ele>560.59002685547</ele>
        <time>2011-06-18T08:36:02Z</time>
      </trkpt>
      <trkpt lat="43.89865" lon="7.20387">
        <ele>558.17999267578</ele>
        <time>2011-06-18T08:36:06Z</time>
      </trkpt>
      <trkpt lat="43.89871" lon="7.20397">
        <ele>559.14001464844</ele>
        <time>2011-06-18T08:36:12Z</time>
      </trkpt>
      <trkpt lat="43.89875" lon="7.20406">
        <ele>557.70001220703</ele>
        <time>2011-06-18T08:36:17Z</time>
      </trkpt>
      <trkpt lat="43.89877" lon="7.20408">
        <ele>556.73999023438</ele>
        <time>2011-06-18T08:36:18Z</time>
      </trkpt>
      <trkpt lat="43.89886" lon="7.20436">
        <ele>553.85998535156</ele>
        <time>2011-06-18T08:36:26Z</time>
      </trkpt>
      <trkpt lat="43.89889" lon="7.20439">
        <ele>553.38000488281</ele>
        <time>2011-06-18T08:36:28Z</time>
      </trkpt>
      <trkpt lat="43.89897" lon="7.20422">
        <ele>550.96997070312</ele>
        <time>2011-06-18T08:36:39Z</time>
      </trkpt>
      <trkpt lat="43.89893" lon="7.20422">
        <ele>549.04998779297</ele>
        <time>2011-06-18T08:36:43Z</time>
      </trkpt>
      <trkpt lat="43.89892" lon="7.20411">
        <ele>545.20001220703</ele>
        <time>2011-06-18T08:36:51Z</time>
      </trkpt>
      <trkpt lat="43.89894" lon="7.20401">
        <ele>542.79998779297</ele>
        <time>2011-06-18T08:36:56Z</time>
      </trkpt>
      <trkpt lat="43.89895" lon="7.20396">
        <ele>541.35998535156</ele>
        <time>2011-06-18T08:36:58Z</time>
      </trkpt>
      <trkpt lat="43.89895" lon="7.20388">
        <ele>539.91998291016</ele>
        <time>2011-06-18T08:37:01Z</time>
      </trkpt>
      <trkpt lat="43.89894" lon="7.20376">
        <ele>539.44000244141</ele>
        <time>2011-06-18T08:37:06Z</time>
      </trkpt>
      <trkpt lat="43.89898" lon="7.20367">
        <ele>537.51000976562</ele>
        <time>2011-06-18T08:37:18Z</time>
      </trkpt>
      <trkpt lat="43.89903" lon="7.20371">
        <ele>536.07000732422</ele>
        <time>2011-06-18T08:37:42Z</time>
      </trkpt>
      <trkpt lat="43.89907" lon="7.2037">
        <ele>534.63000488281</ele>
        <time>2011-06-18T08:37:50Z</time>
      </trkpt>
      <trkpt lat="43.89907" lon="7.20369">
        <ele>534.15002441406</ele>
        <time>2011-06-18T08:37:52Z</time>
      </trkpt>
      <trkpt lat="43.89907" lon="7.20365">
        <ele>533.19000244141</ele>
        <time>2011-06-18T08:37:55Z</time>
      </trkpt>
      <trkpt lat="43.89911" lon="7.20346">
        <ele>530.29998779297</ele>
        <time>2011-06-18T08:38:03Z</time>
      </trkpt>
      <trkpt lat="43.8991" lon="7.20337">
        <ele>531.27001953125</ele>
        <time>2011-06-18T08:38:10Z</time>
      </trkpt>
      <trkpt lat="43.89907" lon="7.20311">
        <ele>527.90002441406</ele>
        <time>2011-06-18T08:38:21Z</time>
      </trkpt>
      <trkpt lat="43.89909" lon="7.20297">
        <ele>530.29998779297</ele>
        <time>2011-06-18T08:38:30Z</time>
      </trkpt>
      <trkpt lat="43.89913" lon="7.20295">
        <ele>531.27001953125</ele>
        <time>2011-06-18T08:38:34Z</time>
      </trkpt>
      <trkpt lat="43.89917" lon="7.20309">
        <ele>534.63000488281</ele>
        <time>2011-06-18T08:38:43Z</time>
      </trkpt>
      <trkpt lat="43.8992" lon="7.20307">
        <ele>534.63000488281</ele>
        <time>2011-06-18T08:38:46Z</time>
      </trkpt>
      <trkpt lat="43.89932" lon="7.20307">
        <ele>538.96002197266</ele>
        <time>2011-06-18T08:38:57Z</time>
      </trkpt>
      <trkpt lat="43.89945" lon="7.20311">
        <ele>541.84002685547</ele>
        <time>2011-06-18T08:39:09Z</time>
      </trkpt>
      <trkpt lat="43.89956" lon="7.20318">
        <ele>544.71997070312</ele>
        <time>2011-06-18T08:39:21Z</time>
      </trkpt>
      <trkpt lat="43.89974" lon="7.20322">
        <ele>545.69000244141</ele>
        <time>2011-06-18T08:39:33Z</time>
      </trkpt>
      <trkpt lat="43.89992" lon="7.20329">
        <ele>546.16998291016</ele>
        <time>2011-06-18T08:39:45Z</time>
      </trkpt>
      <trkpt lat="43.90016" lon="7.20339">
        <ele>546.16998291016</ele>
        <time>2011-06-18T08:40:00Z</time>
      </trkpt>
      <trkpt lat="43.90041" lon="7.20345">
        <ele>544.71997070312</ele>
        <time>2011-06-18T08:40:11Z</time>
      </trkpt>
      <trkpt lat="43.9005" lon="7.20353">
        <ele>543.76000976562</ele>
        <time>2011-06-18T08:40:21Z</time>
      </trkpt>
      <trkpt lat="43.90051" lon="7.20354">
        <ele>542.79998779297</ele>
        <time>2011-06-18T08:40:31Z</time>
      </trkpt>
      <trkpt lat="43.90056" lon="7.20355">
        <ele>542.79998779297</ele>
        <time>2011-06-18T08:41:07Z</time>
      </trkpt>
      <trkpt lat="43.90056" lon="7.20355">
        <ele>542.79998779297</ele>
        <time>2011-06-18T08:41:11Z</time>
      </trkpt>
      <trkpt lat="43.90064" lon="7.20355">
        <ele>540.88000488281</ele>
        <time>2011-06-18T08:41:16Z</time>
      </trkpt>
      <trkpt lat="43.90075" lon="7.20368">
        <ele>539.44000244141</ele>
        <time>2011-06-18T08:41:21Z</time>
      </trkpt>
      <trkpt lat="43.90079" lon="7.204">
        <ele>537.51000976562</ele>
        <time>2011-06-18T08:41:29Z</time>
      </trkpt>
      <trkpt lat="43.90086" lon="7.20415">
        <ele>535.59002685547</ele>
        <time>2011-06-18T08:41:33Z</time>
      </trkpt>
      <trkpt lat="43.90087" lon="7.20418">
        <ele>535.10998535156</ele>
        <time>2011-06-18T08:41:34Z</time>
      </trkpt>
      <trkpt lat="43.90098" lon="7.20425">
        <ele>531.75</ele>
        <time>2011-06-18T08:41:39Z</time>
      </trkpt>
      <trkpt lat="43.901" lon="7.20426">
        <ele>531.27001953125</ele>
        <time>2011-06-18T08:41:40Z</time>
      </trkpt>
      <trkpt lat="43.90113" lon="7.20429">
        <ele>529.82000732422</ele>
        <time>2011-06-18T08:41:47Z</time>
      </trkpt>
      <trkpt lat="43.90118" lon="7.20416">
        <ele>529.34002685547</ele>
        <time>2011-06-18T08:41:51Z</time>
      </trkpt>
      <trkpt lat="43.9012" lon="7.2041">
        <ele>529.82000732422</ele>
        <time>2011-06-18T08:41:53Z</time>
      </trkpt>
      <trkpt lat="43.90126" lon="7.204">
        <ele>529.82000732422</ele>
        <time>2011-06-18T08:41:57Z</time>
      </trkpt>
      <trkpt lat="43.90144" lon="7.20371">
        <ele>530.29998779297</ele>
        <time>2011-06-18T08:42:07Z</time>
      </trkpt>
      <trkpt lat="43.90152" lon="7.20366">
        <ele>531.75</ele>
        <time>2011-06-18T08:42:18Z</time>
      </trkpt>
      <trkpt lat="43.90164" lon="7.20364">
        <ele>532.71002197266</ele>
        <time>2011-06-18T08:42:29Z</time>
      </trkpt>
      <trkpt lat="43.90184" lon="7.20357">
        <ele>532.71002197266</ele>
        <time>2011-06-18T08:42:42Z</time>
      </trkpt>
      <trkpt lat="43.90195" lon="7.20352">
        <ele>529.34002685547</ele>
        <time>2011-06-18T08:42:47Z</time>
      </trkpt>
      <trkpt lat="43.90214" lon="7.20343">
        <ele>525.5</ele>
        <time>2011-06-18T08:42:54Z</time>
      </trkpt>
      <trkpt lat="43.9025" lon="7.20335">
        <ele>524.53997802734</ele>
        <time>2011-06-18T08:43:06Z</time>
      </trkpt>
      <trkpt lat="43.90266" lon="7.20334">
        <ele>523.09002685547</ele>
        <time>2011-06-18T08:43:12Z</time>
      </trkpt>
      <trkpt lat="43.90268" lon="7.20335">
        <ele>521.16998291016</ele>
        <time>2011-06-18T08:43:13Z</time>
      </trkpt>
      <trkpt lat="43.90273" lon="7.20336">
        <ele>521.16998291016</ele>
        <time>2011-06-18T08:43:15Z</time>
      </trkpt>
      <trkpt lat="43.90279" lon="7.20332">
        <ele>519.25</ele>
        <time>2011-06-18T08:43:18Z</time>
      </trkpt>
      <trkpt lat="43.90286" lon="7.20321">
        <ele>516.84997558594</ele>
        <time>2011-06-18T08:43:22Z</time>
      </trkpt>
      <trkpt lat="43.90292" lon="7.20309">
        <ele>513.96002197266</ele>
        <time>2011-06-18T08:43:27Z</time>
      </trkpt>
      <trkpt lat="43.90295" lon="7.20303">
        <ele>511.07998657227</ele>
        <time>2011-06-18T08:43:31Z</time>
      </trkpt>
      <trkpt lat="43.90298" lon="7.20298">
        <ele>509.16000366211</ele>
        <time>2011-06-18T08:43:34Z</time>
      </trkpt>
      <trkpt lat="43.90303" lon="7.20293">
        <ele>505.79000854492</ele>
        <time>2011-06-18T08:43:38Z</time>
      </trkpt>
      <trkpt lat="43.90337" lon="7.20309">
        <ele>503.39001464844</ele>
        <time>2011-06-18T08:43:52Z</time>
      </trkpt>
      <trkpt lat="43.90366" lon="7.20319">
        <ele>504.35000610352</ele>
        <time>2011-06-18T08:44:05Z</time>
      </trkpt>
      <trkpt lat="43.9039" lon="7.20319">
        <ele>505.30999755859</ele>
        <time>2011-06-18T08:44:15Z</time>
      </trkpt>
      <trkpt lat="43.90398" lon="7.2032">
        <ele>506.75</ele>
        <time>2011-06-18T08:44:19Z</time>
      </trkpt>
      <trkpt lat="43.9041" lon="7.20318">
        <ele>505.79000854492</ele>
        <time>2011-06-18T08:44:25Z</time>
      </trkpt>
      <trkpt lat="43.9043" lon="7.20304">
        <ele>501.95001220703</ele>
        <time>2011-06-18T08:44:34Z</time>
      </trkpt>
      <trkpt lat="43.90431" lon="7.20302">
        <ele>501.95001220703</ele>
        <time>2011-06-18T08:44:35Z</time>
      </trkpt>
      <trkpt lat="43.90438" lon="7.20291">
        <ele>499.54000854492</ele>
        <time>2011-06-18T08:44:39Z</time>
      </trkpt>
      <trkpt lat="43.90443" lon="7.20282">
        <ele>497.61999511719</ele>
        <time>2011-06-18T08:44:42Z</time>
      </trkpt>
      <trkpt lat="43.90459" lon="7.20265">
        <ele>493.76998901367</ele>
        <time>2011-06-18T08:44:50Z</time>
      </trkpt>
      <trkpt lat="43.90461" lon="7.20263">
        <ele>493.76998901367</ele>
        <time>2011-06-18T08:44:51Z</time>
      </trkpt>
      <trkpt lat="43.90489" lon="7.20249">
        <ele>492.32998657227</ele>
        <time>2011-06-18T08:45:03Z</time>
      </trkpt>
      <trkpt lat="43.90519" lon="7.20236">
        <ele>490.89001464844</ele>
        <time>2011-06-18T08:45:15Z</time>
      </trkpt>
      <trkpt lat="43.90527" lon="7.20232">
        <ele>490.89001464844</ele>
        <time>2011-06-18T08:45:18Z</time>
      </trkpt>
      <trkpt lat="43.90532" lon="7.20228">
        <ele>488.9700012207</ele>
        <time>2011-06-18T08:45:21Z</time>
      </trkpt>
      <trkpt lat="43.90534" lon="7.20226">
        <ele>488.48999023438</ele>
        <time>2011-06-18T08:45:22Z</time>
      </trkpt>
      <trkpt lat="43.90554" lon="7.20209">
        <ele>484.64001464844</ele>
        <time>2011-06-18T08:45:31Z</time>
      </trkpt>
      <trkpt lat="43.90555" lon="7.20207">
        <ele>484.64001464844</ele>
        <time>2011-06-18T08:45:32Z</time>
      </trkpt>
      <trkpt lat="43.90573" lon="7.20182">
        <ele>482.7200012207</ele>
        <time>2011-06-18T08:45:42Z</time>
      </trkpt>
      <trkpt lat="43.90591" lon="7.20153">
        <ele>483.20001220703</ele>
        <time>2011-06-18T08:45:54Z</time>
      </trkpt>
      <trkpt lat="43.90606" lon="7.2014">
        <ele>480.32000732422</ele>
        <time>2011-06-18T08:46:01Z</time>
      </trkpt>
      <trkpt lat="43.90609" lon="7.20135">
        <ele>478.39001464844</ele>
        <time>2011-06-18T08:46:03Z</time>
      </trkpt>
      <trkpt lat="43.90615" lon="7.20126">
        <ele>477.91000366211</ele>
        <time>2011-06-18T08:46:07Z</time>
      </trkpt>
      <trkpt lat="43.90617" lon="7.20122">
        <ele>476.95001220703</ele>
        <time>2011-06-18T08:46:09Z</time>
      </trkpt>
      <trkpt lat="43.90629" lon="7.20102">
        <ele>475.0299987793</ele>
        <time>2011-06-18T08:46:19Z</time>
      </trkpt>
      <trkpt lat="43.90633" lon="7.201">
        <ele>473.10998535156</ele>
        <time>2011-06-18T08:46:21Z</time>
      </trkpt>
      <trkpt lat="43.90648" lon="7.20086">
        <ele>469.73999023438</ele>
        <time>2011-06-18T08:46:28Z</time>
      </trkpt>
      <trkpt lat="43.90662" lon="7.20078">
        <ele>468.7799987793</ele>
        <time>2011-06-18T08:46:33Z</time>
      </trkpt>
      <trkpt lat="43.90671" lon="7.20072">
        <ele>466.85998535156</ele>
        <time>2011-06-18T08:46:37Z</time>
      </trkpt>
      <trkpt lat="43.90675" lon="7.20067">
        <ele>465.89999389648</ele>
        <time>2011-06-18T08:46:39Z</time>
      </trkpt>
      <trkpt lat="43.90676" lon="7.20063">
        <ele>464.45001220703</ele>
        <time>2011-06-18T08:46:40Z</time>
      </trkpt>
      <trkpt lat="43.90684" lon="7.20051">
        <ele>463.01000976562</ele>
        <time>2011-06-18T08:46:44Z</time>
      </trkpt>
      <trkpt lat="43.90691" lon="7.20045">
        <ele>461.57000732422</ele>
        <time>2011-06-18T08:46:47Z</time>
      </trkpt>
      <trkpt lat="43.907" lon="7.20037">
        <ele>459.64999389648</ele>
        <time>2011-06-18T08:46:51Z</time>
      </trkpt>
      <trkpt lat="43.90707" lon="7.20031">
        <ele>458.20999145508</ele>
        <time>2011-06-18T08:46:54Z</time>
      </trkpt>
      <trkpt lat="43.9072" lon="7.20024">
        <ele>455.32000732422</ele>
        <time>2011-06-18T08:47:00Z</time>
      </trkpt>
      <trkpt lat="43.90727" lon="7.20026">
        <ele>455.79998779297</ele>
        <time>2011-06-18T08:47:08Z</time>
      </trkpt>
      <trkpt lat="43.90726" lon="7.20025">
        <ele>451.95999145508</ele>
        <time>2011-06-18T08:47:18Z</time>
      </trkpt>
      <trkpt lat="43.90727" lon="7.20024">
        <ele>455.32000732422</ele>
        <time>2011-06-18T08:47:22Z</time>
      </trkpt>
      <trkpt lat="43.90727" lon="7.20025">
        <ele>454.35998535156</ele>
        <time>2011-06-18T08:47:51Z</time>
      </trkpt>
      <trkpt lat="43.90726" lon="7.20026">
        <ele>453.39999389648</ele>
        <time>2011-06-18T08:48:32Z</time>
      </trkpt>
      <trkpt lat="43.90728" lon="7.20026">
        <ele>453.39999389648</ele>
        <time>2011-06-18T08:49:31Z</time>
      </trkpt>
      <trkpt lat="43.9073" lon="7.20021">
        <ele>451.95999145508</ele>
        <time>2011-06-18T08:51:49Z</time>
      </trkpt>
      <trkpt lat="43.9073" lon="7.20016">
        <ele>451.95999145508</ele>
        <time>2011-06-18T08:51:52Z</time>
      </trkpt>
      <trkpt lat="43.90727" lon="7.19988">
        <ele>448.10998535156</ele>
        <time>2011-06-18T08:52:02Z</time>
      </trkpt>
      <trkpt lat="43.90715" lon="7.19973">
        <ele>446.19000244141</ele>
        <time>2011-06-18T08:52:09Z</time>
      </trkpt>
      <trkpt lat="43.9071" lon="7.19971">
        <ele>445.23001098633</ele>
        <time>2011-06-18T08:52:11Z</time>
      </trkpt>
      <trkpt lat="43.90699" lon="7.19945">
        <ele>442.33999633789</ele>
        <time>2011-06-18T08:52:20Z</time>
      </trkpt>
      <trkpt lat="43.90699" lon="7.19932">
        <ele>440.42001342773</ele>
        <time>2011-06-18T08:52:23Z</time>
      </trkpt>
      <trkpt lat="43.90699" lon="7.19928">
        <ele>439.45999145508</ele>
        <time>2011-06-18T08:52:24Z</time>
      </trkpt>
      <trkpt lat="43.90701" lon="7.19919">
        <ele>438.98001098633</ele>
        <time>2011-06-18T08:52:26Z</time>
      </trkpt>
      <trkpt lat="43.90705" lon="7.19908">
        <ele>436.57998657227</ele>
        <time>2011-06-18T08:52:29Z</time>
      </trkpt>
      <trkpt lat="43.90707" lon="7.19905">
        <ele>435.60998535156</ele>
        <time>2011-06-18T08:52:30Z</time>
      </trkpt>
      <trkpt lat="43.90727" lon="7.19895">
        <ele>431.29000854492</ele>
        <time>2011-06-18T08:52:38Z</time>
      </trkpt>
      <trkpt lat="43.90728" lon="7.19894">
        <ele>431.29000854492</ele>
        <time>2011-06-18T08:52:39Z</time>
      </trkpt>
      <trkpt lat="43.90716" lon="7.19891">
        <ele>427.92001342773</ele>
        <time>2011-06-18T08:52:45Z</time>
      </trkpt>
      <trkpt lat="43.90705" lon="7.19893">
        <ele>426.48001098633</ele>
        <time>2011-06-18T08:52:48Z</time>
      </trkpt>
      <trkpt lat="43.90693" lon="7.19898">
        <ele>423.11999511719</ele>
        <time>2011-06-18T08:52:52Z</time>
      </trkpt>
      <trkpt lat="43.90685" lon="7.19903">
        <ele>421.67999267578</ele>
        <time>2011-06-18T08:52:55Z</time>
      </trkpt>
      <trkpt lat="43.90681" lon="7.19902">
        <ele>420.23001098633</ele>
        <time>2011-06-18T08:52:59Z</time>
      </trkpt>
      <trkpt lat="43.90688" lon="7.19888">
        <ele>418.30999755859</ele>
        <time>2011-06-18T08:53:03Z</time>
      </trkpt>
      <trkpt lat="43.90692" lon="7.1988">
        <ele>416.86999511719</ele>
        <time>2011-06-18T08:53:05Z</time>
      </trkpt>
      <trkpt lat="43.90708" lon="7.19859">
        <ele>411.57998657227</ele>
        <time>2011-06-18T08:53:12Z</time>
      </trkpt>
      <trkpt lat="43.9071" lon="7.19855">
        <ele>412.05999755859</ele>
        <time>2011-06-18T08:53:13Z</time>
      </trkpt>
      <trkpt lat="43.90718" lon="7.19843">
        <ele>409.17999267578</ele>
        <time>2011-06-18T08:53:17Z</time>
      </trkpt>
      <trkpt lat="43.90722" lon="7.19837">
        <ele>407.73999023438</ele>
        <time>2011-06-18T08:53:19Z</time>
      </trkpt>
      <trkpt lat="43.90731" lon="7.19821">
        <ele>404.36999511719</ele>
        <time>2011-06-18T08:53:24Z</time>
      </trkpt>
      <trkpt lat="43.90733" lon="7.19819">
        <ele>403.89001464844</ele>
        <time>2011-06-18T08:53:25Z</time>
      </trkpt>
      <trkpt lat="43.90728" lon="7.19813">
        <ele>400.04998779297</ele>
        <time>2011-06-18T08:53:31Z</time>
      </trkpt>
      <trkpt lat="43.90725" lon="7.19815">
        <ele>400.04998779297</ele>
        <time>2011-06-18T08:53:32Z</time>
      </trkpt>
      <trkpt lat="43.90717" lon="7.19819">
        <ele>397.64001464844</ele>
        <time>2011-06-18T08:53:35Z</time>
      </trkpt>
      <trkpt lat="43.90703" lon="7.19826">
        <ele>394.2799987793</ele>
        <time>2011-06-18T08:53:40Z</time>
      </trkpt>
      <trkpt lat="43.9069" lon="7.19832">
        <ele>390.42999267578</ele>
        <time>2011-06-18T08:53:45Z</time>
      </trkpt>
      <trkpt lat="43.90687" lon="7.19834">
        <ele>388.51000976562</ele>
        <time>2011-06-18T08:53:46Z</time>
      </trkpt>
      <trkpt lat="43.90672" lon="7.19839">
        <ele>385.14999389648</ele>
        <time>2011-06-18T08:53:51Z</time>
      </trkpt>
      <trkpt lat="43.90664" lon="7.19843">
        <ele>382.73999023438</ele>
        <time>2011-06-18T08:53:54Z</time>
      </trkpt>
      <trkpt lat="43.90655" lon="7.19854">
        <ele>379.85998535156</ele>
        <time>2011-06-18T08:53:58Z</time>
      </trkpt>
      <trkpt lat="43.90653" lon="7.1984">
        <ele>377.45001220703</ele>
        <time>2011-06-18T08:54:06Z</time>
      </trkpt>
      <trkpt lat="43.90657" lon="7.19827">
        <ele>374.57000732422</ele>
        <time>2011-06-18T08:54:10Z</time>
      </trkpt>
      <trkpt lat="43.90651" lon="7.19835">
        <ele>370.73001098633</ele>
        <time>2011-06-18T08:54:15Z</time>
      </trkpt>
      <trkpt lat="43.90649" lon="7.19838">
        <ele>371.20999145508</ele>
        <time>2011-06-18T08:54:16Z</time>
      </trkpt>
      <trkpt lat="43.90639" lon="7.19846">
        <ele>367.83999633789</ele>
        <time>2011-06-18T08:54:20Z</time>
      </trkpt>
      <trkpt lat="43.90634" lon="7.19851">
        <ele>365.92001342773</ele>
        <time>2011-06-18T08:54:23Z</time>
      </trkpt>
      <trkpt lat="43.90625" lon="7.19862">
        <ele>363.51998901367</ele>
        <time>2011-06-18T08:54:28Z</time>
      </trkpt>
      <trkpt lat="43.90621" lon="7.19871">
        <ele>361.58999633789</ele>
        <time>2011-06-18T08:54:31Z</time>
      </trkpt>
      <trkpt lat="43.90617" lon="7.19872">
        <ele>359.67001342773</ele>
        <time>2011-06-18T08:54:37Z</time>
      </trkpt>
      <trkpt lat="43.90619" lon="7.1986">
        <ele>357.26998901367</ele>
        <time>2011-06-18T08:54:40Z</time>
      </trkpt>
      <trkpt lat="43.90612" lon="7.19873">
        <ele>354.38000488281</ele>
        <time>2011-06-18T08:54:47Z</time>
      </trkpt>
      <trkpt lat="43.90607" lon="7.1988">
        <ele>353.42001342773</ele>
        <time>2011-06-18T08:54:49Z</time>
      </trkpt>
      <trkpt lat="43.906" lon="7.19881">
        <ele>350.05999755859</ele>
        <time>2011-06-18T08:54:52Z</time>
      </trkpt>
      <trkpt lat="43.90591" lon="7.19874">
        <ele>349.10000610352</ele>
        <time>2011-06-18T08:54:55Z</time>
      </trkpt>
      <trkpt lat="43.90577" lon="7.1986">
        <ele>345.25</ele>
        <time>2011-06-18T08:55:00Z</time>
      </trkpt>
      <trkpt lat="43.90569" lon="7.19854">
        <ele>342.85000610352</ele>
        <time>2011-06-18T08:55:03Z</time>
      </trkpt>
      <trkpt lat="43.90567" lon="7.19848">
        <ele>340.92001342773</ele>
        <time>2011-06-18T08:55:08Z</time>
      </trkpt>
      <trkpt lat="43.90582" lon="7.19851">
        <ele>338.04000854492</ele>
        <time>2011-06-18T08:55:13Z</time>
      </trkpt>
      <trkpt lat="43.90585" lon="7.19852">
        <ele>338.04000854492</ele>
        <time>2011-06-18T08:55:14Z</time>
      </trkpt>
      <trkpt lat="43.9059" lon="7.19854">
        <ele>336.60000610352</ele>
        <time>2011-06-18T08:55:17Z</time>
      </trkpt>
      <trkpt lat="43.90589" lon="7.1985">
        <ele>334.67999267578</ele>
        <time>2011-06-18T08:55:19Z</time>
      </trkpt>
      <trkpt lat="43.90574" lon="7.19838">
        <ele>331.30999755859</ele>
        <time>2011-06-18T08:55:25Z</time>
      </trkpt>
      <trkpt lat="43.90565" lon="7.1983">
        <ele>327.95001220703</ele>
        <time>2011-06-18T08:55:29Z</time>
      </trkpt>
      <trkpt lat="43.90564" lon="7.19827">
        <ele>327.4700012207</ele>
        <time>2011-06-18T08:55:30Z</time>
      </trkpt>
      <trkpt lat="43.90559" lon="7.19822">
        <ele>325.05999755859</ele>
        <time>2011-06-18T08:55:34Z</time>
      </trkpt>
      <trkpt lat="43.90551" lon="7.19831">
        <ele>322.66000366211</ele>
        <time>2011-06-18T08:55:39Z</time>
      </trkpt>
      <trkpt lat="43.90546" lon="7.19831">
        <ele>321.70001220703</ele>
        <time>2011-06-18T08:55:43Z</time>
      </trkpt>
      <trkpt lat="43.90548" lon="7.19825">
        <ele>321.2200012207</ele>
        <time>2011-06-18T08:55:45Z</time>
      </trkpt>
      <trkpt lat="43.90554" lon="7.19811">
        <ele>319.29998779297</ele>
        <time>2011-06-18T08:55:49Z</time>
      </trkpt>
      <trkpt lat="43.90558" lon="7.19804">
        <ele>317.85000610352</ele>
        <time>2011-06-18T08:55:52Z</time>
      </trkpt>
      <trkpt lat="43.90562" lon="7.19804">
        <ele>315.92999267578</ele>
        <time>2011-06-18T08:55:54Z</time>
      </trkpt>
      <trkpt lat="43.90566" lon="7.19807">
        <ele>314.9700012207</ele>
        <time>2011-06-18T08:55:56Z</time>
      </trkpt>
      <trkpt lat="43.90577" lon="7.19817">
        <ele>311.11999511719</ele>
        <time>2011-06-18T08:56:01Z</time>
      </trkpt>
      <trkpt lat="43.90589" lon="7.19806">
        <ele>307.76000976562</ele>
        <time>2011-06-18T08:56:07Z</time>
      </trkpt>
      <trkpt lat="43.90591" lon="7.19803">
        <ele>307.76000976562</ele>
        <time>2011-06-18T08:56:08Z</time>
      </trkpt>
      <trkpt lat="43.90593" lon="7.19801">
        <ele>306.79998779297</ele>
        <time>2011-06-18T08:56:09Z</time>
      </trkpt>
      <trkpt lat="43.90596" lon="7.19795">
        <ele>305.35998535156</ele>
        <time>2011-06-18T08:56:12Z</time>
      </trkpt>
      <trkpt lat="43.90596" lon="7.19787">
        <ele>302.95001220703</ele>
        <time>2011-06-18T08:56:15Z</time>
      </trkpt>
      <trkpt lat="43.90597" lon="7.19782">
        <ele>302.95001220703</ele>
        <time>2011-06-18T08:56:19Z</time>
      </trkpt>
      <trkpt lat="43.90589" lon="7.19791">
        <ele>299.10998535156</ele>
        <time>2011-06-18T08:56:28Z</time>
      </trkpt>
      <trkpt lat="43.90592" lon="7.19774">
        <ele>298.14999389648</ele>
        <time>2011-06-18T08:56:32Z</time>
      </trkpt>
      <trkpt lat="43.90596" lon="7.19757">
        <ele>296.70001220703</ele>
        <time>2011-06-18T08:56:36Z</time>
      </trkpt>
      <trkpt lat="43.90599" lon="7.19742">
        <ele>293.33999633789</ele>
        <time>2011-06-18T08:56:40Z</time>
      </trkpt>
      <trkpt lat="43.90605" lon="7.19721">
        <ele>289.9700012207</ele>
        <time>2011-06-18T08:56:46Z</time>
      </trkpt>
      <trkpt lat="43.90599" lon="7.19728">
        <ele>287.08999633789</ele>
        <time>2011-06-18T08:56:54Z</time>
      </trkpt>
      <trkpt lat="43.90595" lon="7.19734">
        <ele>285.64999389648</ele>
        <time>2011-06-18T08:56:56Z</time>
      </trkpt>
      <trkpt lat="43.90591" lon="7.19745">
        <ele>284.20999145508</ele>
        <time>2011-06-18T08:56:59Z</time>
      </trkpt>
      <trkpt lat="43.90587" lon="7.1974">
        <ele>281.79998779297</ele>
        <time>2011-06-18T08:57:05Z</time>
      </trkpt>
      <trkpt lat="43.90588" lon="7.19731">
        <ele>280.83999633789</ele>
        <time>2011-06-18T08:57:07Z</time>
      </trkpt>
      <trkpt lat="43.90591" lon="7.19719">
        <ele>278.92001342773</ele>
        <time>2011-06-18T08:57:10Z</time>
      </trkpt>
      <trkpt lat="43.90592" lon="7.19708">
        <ele>277</ele>
        <time>2011-06-18T08:57:13Z</time>
      </trkpt>
      <trkpt lat="43.90591" lon="7.197">
        <ele>275.07000732422</ele>
        <time>2011-06-18T08:57:15Z</time>
      </trkpt>
      <trkpt lat="43.90587" lon="7.19687">
        <ele>272.67001342773</ele>
        <time>2011-06-18T08:57:19Z</time>
      </trkpt>
      <trkpt lat="43.90586" lon="7.19683">
        <ele>270.75</ele>
        <time>2011-06-18T08:57:20Z</time>
      </trkpt>
      <trkpt lat="43.90587" lon="7.19667">
        <ele>267.85998535156</ele>
        <time>2011-06-18T08:57:27Z</time>
      </trkpt>
      <trkpt lat="43.90586" lon="7.19667">
        <ele>267.38000488281</ele>
        <time>2011-06-18T08:57:28Z</time>
      </trkpt>
      <trkpt lat="43.90576" lon="7.19678">
        <ele>264.5</ele>
        <time>2011-06-18T08:57:34Z</time>
      </trkpt>
      <trkpt lat="43.90574" lon="7.1969">
        <ele>262.10000610352</ele>
        <time>2011-06-18T08:57:39Z</time>
      </trkpt>
      <trkpt lat="43.90571" lon="7.1968">
        <ele>260.17001342773</ele>
        <time>2011-06-18T08:57:42Z</time>
      </trkpt>
      <trkpt lat="43.90572" lon="7.19663">
        <ele>258.25</ele>
        <time>2011-06-18T08:57:47Z</time>
      </trkpt>
      <trkpt lat="43.90566" lon="7.19668">
        <ele>255.85000610352</ele>
        <time>2011-06-18T08:57:52Z</time>
      </trkpt>
      <trkpt lat="43.90562" lon="7.19687">
        <ele>253.44000244141</ele>
        <time>2011-06-18T08:57:57Z</time>
      </trkpt>
      <trkpt lat="43.9056" lon="7.19691">
        <ele>252</ele>
        <time>2011-06-18T08:58:01Z</time>
      </trkpt>
      <trkpt lat="43.90556" lon="7.19671">
        <ele>248.63999938965</ele>
        <time>2011-06-18T08:58:06Z</time>
      </trkpt>
      <trkpt lat="43.90555" lon="7.19667">
        <ele>248.16000366211</ele>
        <time>2011-06-18T08:58:07Z</time>
      </trkpt>
      <trkpt lat="43.90555" lon="7.19655">
        <ele>246.7200012207</ele>
        <time>2011-06-18T08:58:11Z</time>
      </trkpt>
      <trkpt lat="43.90556" lon="7.19653">
        <ele>245.75</ele>
        <time>2011-06-18T08:58:12Z</time>
      </trkpt>
      <trkpt lat="43.90564" lon="7.19646">
        <ele>244.30999755859</ele>
        <time>2011-06-18T08:58:17Z</time>
      </trkpt>
      <trkpt lat="43.90574" lon="7.19638">
        <ele>241.42999267578</ele>
        <time>2011-06-18T08:58:22Z</time>
      </trkpt>
      <trkpt lat="43.90576" lon="7.19635">
        <ele>240.94999694824</ele>
        <time>2011-06-18T08:58:24Z</time>
      </trkpt>
      <trkpt lat="43.90569" lon="7.19639">
        <ele>238.53999328613</ele>
        <time>2011-06-18T08:58:29Z</time>
      </trkpt>
      <trkpt lat="43.90564" lon="7.19642">
        <ele>237.10000610352</ele>
        <time>2011-06-18T08:58:31Z</time>
      </trkpt>
      <trkpt lat="43.90557" lon="7.19646">
        <ele>236.61999511719</ele>
        <time>2011-06-18T08:58:34Z</time>
      </trkpt>
      <trkpt lat="43.90564" lon="7.19632">
        <ele>233.25999450684</ele>
        <time>2011-06-18T08:58:41Z</time>
      </trkpt>
      <trkpt lat="43.90574" lon="7.19619">
        <ele>230.85000610352</ele>
        <time>2011-06-18T08:58:46Z</time>
      </trkpt>
      <trkpt lat="43.90577" lon="7.19617">
        <ele>230.36999511719</ele>
        <time>2011-06-18T08:58:47Z</time>
      </trkpt>
      <trkpt lat="43.90587" lon="7.19607">
        <ele>227.49000549316</ele>
        <time>2011-06-18T08:58:52Z</time>
      </trkpt>
      <trkpt lat="43.90593" lon="7.19599">
        <ele>226.05000305176</ele>
        <time>2011-06-18T08:58:56Z</time>
      </trkpt>
      <trkpt lat="43.90576" lon="7.19606">
        <ele>223.16000366211</ele>
        <time>2011-06-18T08:59:05Z</time>
      </trkpt>
      <trkpt lat="43.90561" lon="7.19612">
        <ele>219.32000732422</ele>
        <time>2011-06-18T08:59:11Z</time>
      </trkpt>
      <trkpt lat="43.90556" lon="7.19615">
        <ele>218.36000061035</ele>
        <time>2011-06-18T08:59:13Z</time>
      </trkpt>
      <trkpt lat="43.90559" lon="7.19611">
        <ele>216.42999267578</ele>
        <time>2011-06-18T08:59:21Z</time>
      </trkpt>
      <trkpt lat="43.90558" lon="7.19611">
        <ele>214.50999450684</ele>
        <time>2011-06-18T08:59:24Z</time>
      </trkpt>
      <trkpt lat="43.90554" lon="7.19612">
        <ele>213.55000305176</ele>
        <time>2011-06-18T08:59:26Z</time>
      </trkpt>
      <trkpt lat="43.90548" lon="7.19618">
        <ele>211.63000488281</ele>
        <time>2011-06-18T08:59:29Z</time>
      </trkpt>
      <trkpt lat="43.90545" lon="7.19623">
        <ele>211.14999389648</ele>
        <time>2011-06-18T08:59:31Z</time>
      </trkpt>
      <trkpt lat="43.90542" lon="7.1962">
        <ele>209.2200012207</ele>
        <time>2011-06-18T08:59:37Z</time>
      </trkpt>
      <trkpt lat="43.90543" lon="7.19612">
        <ele>208.25999450684</ele>
        <time>2011-06-18T08:59:42Z</time>
      </trkpt>
      <trkpt lat="43.90539" lon="7.19617">
        <ele>208.25999450684</ele>
        <time>2011-06-18T08:59:46Z</time>
      </trkpt>
      <trkpt lat="43.90533" lon="7.19625">
        <ele>205.86000061035</ele>
        <time>2011-06-18T08:59:49Z</time>
      </trkpt>
      <trkpt lat="43.90528" lon="7.19622">
        <ele>203.46000671387</ele>
        <time>2011-06-18T08:59:55Z</time>
      </trkpt>
      <trkpt lat="43.90531" lon="7.19616">
        <ele>202.49000549316</ele>
        <time>2011-06-18T08:59:57Z</time>
      </trkpt>
      <trkpt lat="43.90533" lon="7.19608">
        <ele>200.08999633789</ele>
        <time>2011-06-18T09:00:02Z</time>
      </trkpt>
      <trkpt lat="43.9052" lon="7.19619">
        <ele>197.21000671387</ele>
        <time>2011-06-18T09:00:07Z</time>
      </trkpt>
      <trkpt lat="43.90514" lon="7.19628">
        <ele>195.77000427246</ele>
        <time>2011-06-18T09:00:10Z</time>
      </trkpt>
      <trkpt lat="43.90508" lon="7.1963">
        <ele>194.32000732422</ele>
        <time>2011-06-18T09:00:13Z</time>
      </trkpt>
      <trkpt lat="43.90494" lon="7.19627">
        <ele>193.83999633789</ele>
        <time>2011-06-18T09:00:22Z</time>
      </trkpt>
      <trkpt lat="43.90485" lon="7.19623">
        <ele>192.88000488281</ele>
        <time>2011-06-18T09:00:28Z</time>
      </trkpt>
      <trkpt lat="43.90482" lon="7.19624">
        <ele>192.88000488281</ele>
        <time>2011-06-18T09:00:30Z</time>
      </trkpt>
      <trkpt lat="43.90482" lon="7.19624">
        <ele>174.6</ele>
        <time>2011-06-18T09:08:05Z</time>
      </trkpt>
    </trkseg>
  </trk>
</gpx>